<?xml version="1.0" encoding="UTF-8" standalone="no" ?>
<gpx xmlns="http://www.topografix.com/GPX/1/1" xmlns:xsi="http://www.w3.org/2001/XMLSchema-instance" xsi:schemaLocation="http://www.topografix.com/GPX/1/1 http://www.topografix.com/GPX/1/1/gpx.xsd" version="1.1" creator="VisuGPX - https://www.visugpx.com">
  <metadata>
    <name>TET_F-18_20211201</name>
    <desc><![CDATA[

]]></desc>
  </metadata>
  <trk>
    <name><![CDATA[TET_F-18_20211201]]></name>
    <trkseg>
      <trkpt lat="43.85328" lon="3.34908">
        <ele>735</ele>
      </trkpt>
      <trkpt lat="43.85447" lon="3.35109">
        <ele>733.77734375</ele>
      </trkpt>
      <trkpt lat="43.8552" lon="3.353">
        <ele>732.55859375</ele>
      </trkpt>
      <trkpt lat="43.85682" lon="3.35488">
        <ele>730.0625</ele>
      </trkpt>
      <trkpt lat="43.86016" lon="3.35682">
        <ele>723.859375</ele>
      </trkpt>
      <trkpt lat="43.86118" lon="3.35693">
        <ele>722.3203125</ele>
      </trkpt>
      <trkpt lat="43.86431" lon="3.36354">
        <ele>719.40234375</ele>
      </trkpt>
      <trkpt lat="43.86565" lon="3.3634">
        <ele>711.73828125</ele>
      </trkpt>
      <trkpt lat="43.86652" lon="3.36326">
        <ele>711.9140625</ele>
      </trkpt>
      <trkpt lat="43.86714" lon="3.36312">
        <ele>714.5390625</ele>
      </trkpt>
      <trkpt lat="43.86796" lon="3.36239">
        <ele>712.79</ele>
        <time>2021-05-25T14:19:26Z</time>
      </trkpt>
      <trkpt lat="43.8686" lon="3.36332">
        <ele>707.99</ele>
        <time>2021-05-25T14:19:42Z</time>
      </trkpt>
      <trkpt lat="43.8687" lon="3.36348">
        <ele>708.06</ele>
        <time>2021-05-25T14:19:45Z</time>
      </trkpt>
      <trkpt lat="43.8694" lon="3.36525">
        <ele>711.69</ele>
        <time>2021-05-25T14:20:20Z</time>
      </trkpt>
      <trkpt lat="43.87121" lon="3.36677">
        <ele>712.92</ele>
        <time>2021-05-25T14:21:02Z</time>
      </trkpt>
      <trkpt lat="43.87138" lon="3.36686">
        <ele>715.52</ele>
        <time>2021-05-25T14:21:04Z</time>
      </trkpt>
      <trkpt lat="43.87163" lon="3.36697">
        <ele>718.74</ele>
        <time>2021-05-25T14:21:07Z</time>
      </trkpt>
      <trkpt lat="43.8724" lon="3.36796">
        <ele>722.49</ele>
        <time>2021-05-25T14:21:20Z</time>
      </trkpt>
      <trkpt lat="43.87496" lon="3.37032">
        <ele>726.45</ele>
        <time>2021-05-25T14:21:59Z</time>
      </trkpt>
      <trkpt lat="43.87523" lon="3.37072">
        <ele>732.6</ele>
        <time>2021-05-25T14:22:04Z</time>
      </trkpt>
      <trkpt lat="43.87549" lon="3.37135">
        <ele>736.76</ele>
        <time>2021-05-25T14:22:12Z</time>
      </trkpt>
      <trkpt lat="43.8755" lon="3.37158">
        <ele>737.98</ele>
        <time>2021-05-25T14:22:14Z</time>
      </trkpt>
      <trkpt lat="43.87551" lon="3.37259">
        <ele>738.76</ele>
        <time>2021-05-25T14:22:23Z</time>
      </trkpt>
      <trkpt lat="43.8755" lon="3.37268">
        <ele>738.73</ele>
        <time>2021-05-25T14:22:24Z</time>
      </trkpt>
      <trkpt lat="43.87682" lon="3.37492">
        <ele>747.51</ele>
        <time>2021-05-25T14:23:07Z</time>
      </trkpt>
      <trkpt lat="43.87691" lon="3.375">
        <ele>747.52</ele>
        <time>2021-05-25T14:23:08Z</time>
      </trkpt>
      <trkpt lat="43.87864" lon="3.37579">
        <ele>750.64</ele>
        <time>2021-05-25T14:23:23Z</time>
      </trkpt>
      <trkpt lat="43.87891" lon="3.3756">
        <ele>746.82</ele>
        <time>2021-05-25T14:23:25Z</time>
      </trkpt>
      <trkpt lat="43.87988" lon="3.37483">
        <ele>742.59</ele>
        <time>2021-05-25T14:23:33Z</time>
      </trkpt>
      <trkpt lat="43.88009" lon="3.37471">
        <ele>738.89</ele>
        <time>2021-05-25T14:23:35Z</time>
      </trkpt>
      <trkpt lat="43.88026" lon="3.37474">
        <ele>735.84</ele>
        <time>2021-05-25T14:23:37Z</time>
      </trkpt>
      <trkpt lat="43.88031" lon="3.37482">
        <ele>735.82</ele>
        <time>2021-05-25T14:23:38Z</time>
      </trkpt>
      <trkpt lat="43.88026" lon="3.37689">
        <ele>731.6</ele>
        <time>2021-05-25T14:23:50Z</time>
      </trkpt>
      <trkpt lat="43.88099" lon="3.37826">
        <ele>728</ele>
        <time>2021-05-25T14:23:57Z</time>
      </trkpt>
      <trkpt lat="43.88136" lon="3.37876">
        <ele>724.73</ele>
        <time>2021-05-25T14:24:00Z</time>
      </trkpt>
      <trkpt lat="43.8815" lon="3.37887">
        <ele>724.69</ele>
        <time>2021-05-25T14:24:01Z</time>
      </trkpt>
      <trkpt lat="43.88273" lon="3.37932">
        <ele>721.3</ele>
        <time>2021-05-25T14:24:08Z</time>
      </trkpt>
      <trkpt lat="43.88306" lon="3.37941">
        <ele>718.27</ele>
        <time>2021-05-25T14:24:10Z</time>
      </trkpt>
      <trkpt lat="43.88471" lon="3.37901">
        <ele>713.24</ele>
        <time>2021-05-25T14:24:20Z</time>
      </trkpt>
      <trkpt lat="43.88656" lon="3.37996">
        <ele>707.3</ele>
        <time>2021-05-25T14:24:32Z</time>
      </trkpt>
      <trkpt lat="43.88768" lon="3.38108">
        <ele>707.86</ele>
        <time>2021-05-25T14:25:17Z</time>
      </trkpt>
      <trkpt lat="43.88781" lon="3.38118">
        <ele>707.84</ele>
        <time>2021-05-25T14:25:18Z</time>
      </trkpt>
      <trkpt lat="43.8886" lon="3.38175">
        <ele>707.84</ele>
        <time>2021-05-25T14:25:24Z</time>
      </trkpt>
      <trkpt lat="43.89002" lon="3.38195">
        <ele>704.3</ele>
        <time>2021-05-25T14:25:33Z</time>
      </trkpt>
      <trkpt lat="43.89019" lon="3.38202">
        <ele>704.28</ele>
        <time>2021-05-25T14:25:34Z</time>
      </trkpt>
      <trkpt lat="43.89068" lon="3.38222">
        <ele>703.4</ele>
        <time>2021-05-25T14:25:37Z</time>
      </trkpt>
      <trkpt lat="43.89083" lon="3.38231">
        <ele>703.39</ele>
        <time>2021-05-25T14:25:38Z</time>
      </trkpt>
      <trkpt lat="43.89186" lon="3.38287">
        <ele>703.4</ele>
        <time>2021-05-25T14:25:45Z</time>
      </trkpt>
      <trkpt lat="43.89397" lon="3.38363">
        <ele>707.43</ele>
        <time>2021-05-25T14:25:57Z</time>
      </trkpt>
      <trkpt lat="43.89714" lon="3.38411">
        <ele>702.73</ele>
        <time>2021-05-25T14:26:15Z</time>
      </trkpt>
      <trkpt lat="43.89796" lon="3.38362">
        <ele>699.66</ele>
        <time>2021-05-25T14:26:21Z</time>
      </trkpt>
      <trkpt lat="43.89885" lon="3.38367">
        <ele>696.14</ele>
        <time>2021-05-25T14:26:27Z</time>
      </trkpt>
      <trkpt lat="43.89901" lon="3.38377">
        <ele>696.02</ele>
        <time>2021-05-25T14:26:28Z</time>
      </trkpt>
      <trkpt lat="43.89987" lon="3.38408">
        <ele>698.62</ele>
        <time>2021-05-25T14:26:33Z</time>
      </trkpt>
      <trkpt lat="43.90213" lon="3.38483">
        <ele>696.17</ele>
        <time>2021-05-25T14:26:46Z</time>
      </trkpt>
      <trkpt lat="43.9036" lon="3.38573">
        <ele>690.62</ele>
        <time>2021-05-25T14:26:56Z</time>
      </trkpt>
      <trkpt lat="43.90384" lon="3.38597">
        <ele>687.09</ele>
        <time>2021-05-25T14:26:58Z</time>
      </trkpt>
      <trkpt lat="43.90392" lon="3.38611">
        <ele>685.84</ele>
        <time>2021-05-25T14:26:59Z</time>
      </trkpt>
      <trkpt lat="43.90401" lon="3.38625">
        <ele>684.98</ele>
        <time>2021-05-25T14:27:00Z</time>
      </trkpt>
      <trkpt lat="43.9041" lon="3.38638">
        <ele>684.91</ele>
        <time>2021-05-25T14:27:01Z</time>
      </trkpt>
      <trkpt lat="43.90498" lon="3.38679">
        <ele>679.94</ele>
        <time>2021-05-25T14:27:08Z</time>
      </trkpt>
      <trkpt lat="43.90512" lon="3.38679">
        <ele>679.87</ele>
        <time>2021-05-25T14:27:09Z</time>
      </trkpt>
      <trkpt lat="43.90526" lon="3.38677">
        <ele>678.31</ele>
        <time>2021-05-25T14:27:10Z</time>
      </trkpt>
      <trkpt lat="43.90571" lon="3.38669">
        <ele>674.9</ele>
        <time>2021-05-25T14:27:13Z</time>
      </trkpt>
      <trkpt lat="43.90587" lon="3.38668">
        <ele>674.1</ele>
        <time>2021-05-25T14:27:14Z</time>
      </trkpt>
      <trkpt lat="43.9063" lon="3.38678">
        <ele>670.89</ele>
        <time>2021-05-25T14:27:17Z</time>
      </trkpt>
      <trkpt lat="43.90644" lon="3.3868">
        <ele>670.89</ele>
        <time>2021-05-25T14:27:18Z</time>
      </trkpt>
      <trkpt lat="43.90684" lon="3.38665">
        <ele>666.57</ele>
        <time>2021-05-25T14:27:21Z</time>
      </trkpt>
      <trkpt lat="43.90735" lon="3.38593">
        <ele>661.44</ele>
        <time>2021-05-25T14:27:26Z</time>
      </trkpt>
      <trkpt lat="43.90806" lon="3.38451">
        <ele>653.64</ele>
        <time>2021-05-25T14:27:34Z</time>
      </trkpt>
      <trkpt lat="43.90819" lon="3.38414">
        <ele>649.94</ele>
        <time>2021-05-25T14:27:36Z</time>
      </trkpt>
      <trkpt lat="43.9091" lon="3.38339">
        <ele>643.55</ele>
        <time>2021-05-25T14:27:43Z</time>
      </trkpt>
      <trkpt lat="43.90925" lon="3.38334">
        <ele>643.55</ele>
        <time>2021-05-25T14:27:44Z</time>
      </trkpt>
      <trkpt lat="43.90953" lon="3.38317">
        <ele>640.17</ele>
        <time>2021-05-25T14:27:46Z</time>
      </trkpt>
      <trkpt lat="43.90966" lon="3.38306">
        <ele>640.2</ele>
        <time>2021-05-25T14:27:47Z</time>
      </trkpt>
      <trkpt lat="43.90988" lon="3.38278">
        <ele>636.28</ele>
        <time>2021-05-25T14:27:49Z</time>
      </trkpt>
      <trkpt lat="43.90998" lon="3.3826">
        <ele>636.32</ele>
        <time>2021-05-25T14:27:50Z</time>
      </trkpt>
      <trkpt lat="43.91027" lon="3.38206">
        <ele>631.71</ele>
        <time>2021-05-25T14:27:53Z</time>
      </trkpt>
      <trkpt lat="43.91049" lon="3.38178">
        <ele>627.8</ele>
        <time>2021-05-25T14:27:55Z</time>
      </trkpt>
      <trkpt lat="43.91073" lon="3.38161">
        <ele>624.01</ele>
        <time>2021-05-25T14:27:57Z</time>
      </trkpt>
      <trkpt lat="43.91083" lon="3.38157">
        <ele>623.89</ele>
        <time>2021-05-25T14:27:58Z</time>
      </trkpt>
      <trkpt lat="43.91091" lon="3.38153">
        <ele>622.72</ele>
        <time>2021-05-25T14:27:59Z</time>
      </trkpt>
      <trkpt lat="43.91096" lon="3.38148">
        <ele>622.68</ele>
        <time>2021-05-25T14:28:00Z</time>
      </trkpt>
      <trkpt lat="43.91056" lon="3.38029">
        <ele>615.7</ele>
        <time>2021-05-25T14:28:09Z</time>
      </trkpt>
      <trkpt lat="43.91054" lon="3.37993">
        <ele>611.44</ele>
        <time>2021-05-25T14:28:11Z</time>
      </trkpt>
      <trkpt lat="43.91062" lon="3.37941">
        <ele>608.3</ele>
        <time>2021-05-25T14:28:14Z</time>
      </trkpt>
      <trkpt lat="43.91085" lon="3.37899">
        <ele>604.79</ele>
        <time>2021-05-25T14:28:17Z</time>
      </trkpt>
      <trkpt lat="43.91109" lon="3.37897">
        <ele>601.32</ele>
        <time>2021-05-25T14:28:20Z</time>
      </trkpt>
      <trkpt lat="43.91115" lon="3.37906">
        <ele>601.18</ele>
        <time>2021-05-25T14:28:21Z</time>
      </trkpt>
      <trkpt lat="43.91123" lon="3.37929">
        <ele>601.27</ele>
        <time>2021-05-25T14:28:23Z</time>
      </trkpt>
      <trkpt lat="43.91129" lon="3.37949">
        <ele>601.15</ele>
        <time>2021-05-25T14:28:25Z</time>
      </trkpt>
      <trkpt lat="43.91146" lon="3.3796">
        <ele>605.45</ele>
        <time>2021-05-25T14:28:28Z</time>
      </trkpt>
      <trkpt lat="43.91165" lon="3.3796">
        <ele>608.45</ele>
        <time>2021-05-25T14:28:30Z</time>
      </trkpt>
      <trkpt lat="43.91214" lon="3.37942">
        <ele>612.57</ele>
        <time>2021-05-25T14:28:34Z</time>
      </trkpt>
      <trkpt lat="43.91236" lon="3.37915">
        <ele>616.19</ele>
        <time>2021-05-25T14:28:36Z</time>
      </trkpt>
      <trkpt lat="43.91256" lon="3.37878">
        <ele>620.79</ele>
        <time>2021-05-25T14:28:38Z</time>
      </trkpt>
      <trkpt lat="43.91271" lon="3.3784">
        <ele>621.93</ele>
        <time>2021-05-25T14:28:40Z</time>
      </trkpt>
      <trkpt lat="43.91295" lon="3.37784">
        <ele>625.49</ele>
        <time>2021-05-25T14:28:43Z</time>
      </trkpt>
      <trkpt lat="43.9134" lon="3.37729">
        <ele>629.86</ele>
        <time>2021-05-25T14:28:47Z</time>
      </trkpt>
      <trkpt lat="43.9136" lon="3.37702">
        <ele>632.24</ele>
        <time>2021-05-25T14:28:49Z</time>
      </trkpt>
      <trkpt lat="43.9137" lon="3.37692">
        <ele>632.24</ele>
        <time>2021-05-25T14:28:50Z</time>
      </trkpt>
      <trkpt lat="43.91447" lon="3.37692">
        <ele>638.25</ele>
        <time>2021-05-25T14:28:56Z</time>
      </trkpt>
      <trkpt lat="43.91517" lon="3.3766">
        <ele>641.76</ele>
        <time>2021-05-25T14:29:01Z</time>
      </trkpt>
      <trkpt lat="43.91548" lon="3.37606">
        <ele>644.82</ele>
        <time>2021-05-25T14:29:05Z</time>
      </trkpt>
      <trkpt lat="43.91554" lon="3.37544">
        <ele>648.89</ele>
        <time>2021-05-25T14:29:08Z</time>
      </trkpt>
      <trkpt lat="43.91569" lon="3.3739">
        <ele>657.64</ele>
        <time>2021-05-25T14:29:19Z</time>
      </trkpt>
      <trkpt lat="43.91581" lon="3.37386">
        <ele>658.81</ele>
        <time>2021-05-25T14:29:20Z</time>
      </trkpt>
      <trkpt lat="43.91639" lon="3.37367">
        <ele>663.51</ele>
        <time>2021-05-25T14:29:24Z</time>
      </trkpt>
      <trkpt lat="43.91668" lon="3.37358">
        <ele>664.35</ele>
        <time>2021-05-25T14:29:26Z</time>
      </trkpt>
      <trkpt lat="43.91707" lon="3.3733">
        <ele>668.28</ele>
        <time>2021-05-25T14:29:29Z</time>
      </trkpt>
      <trkpt lat="43.91719" lon="3.37318">
        <ele>668.34</ele>
        <time>2021-05-25T14:29:30Z</time>
      </trkpt>
      <trkpt lat="43.91769" lon="3.37318">
        <ele>671.5</ele>
        <time>2021-05-25T14:29:35Z</time>
      </trkpt>
      <trkpt lat="43.91844" lon="3.37328">
        <ele>677.2</ele>
        <time>2021-05-25T14:29:41Z</time>
      </trkpt>
      <trkpt lat="43.91858" lon="3.3732">
        <ele>678.67</ele>
        <time>2021-05-25T14:29:42Z</time>
      </trkpt>
      <trkpt lat="43.91883" lon="3.37306">
        <ele>679.95</ele>
        <time>2021-05-25T14:29:44Z</time>
      </trkpt>
      <trkpt lat="43.91893" lon="3.37304">
        <ele>679.97</ele>
        <time>2021-05-25T14:29:45Z</time>
      </trkpt>
      <trkpt lat="43.91915" lon="3.37345">
        <ele>684.25</ele>
        <time>2021-05-25T14:29:50Z</time>
      </trkpt>
      <trkpt lat="43.91934" lon="3.37384">
        <ele>688</ele>
        <time>2021-05-25T14:29:53Z</time>
      </trkpt>
      <trkpt lat="43.91952" lon="3.37412">
        <ele>691.24</ele>
        <time>2021-05-25T14:29:55Z</time>
      </trkpt>
      <trkpt lat="43.92033" lon="3.37477">
        <ele>695.03</ele>
        <time>2021-05-25T14:30:03Z</time>
      </trkpt>
      <trkpt lat="43.92048" lon="3.37503">
        <ele>696.37</ele>
        <time>2021-05-25T14:30:05Z</time>
      </trkpt>
      <trkpt lat="43.92062" lon="3.37528">
        <ele>697.5</ele>
        <time>2021-05-25T14:30:07Z</time>
      </trkpt>
      <trkpt lat="43.92072" lon="3.37803">
        <ele>697.07</ele>
        <time>2021-05-25T14:30:29Z</time>
      </trkpt>
      <trkpt lat="43.92234" lon="3.37826">
        <ele>698.72</ele>
        <time>2021-05-25T14:30:45Z</time>
      </trkpt>
      <trkpt lat="43.92376" lon="3.37843">
        <ele>702.69</ele>
        <time>2021-05-25T14:30:54Z</time>
      </trkpt>
      <trkpt lat="43.92459" lon="3.37875">
        <ele>702.64</ele>
        <time>2021-05-25T14:30:59Z</time>
      </trkpt>
      <trkpt lat="43.92738" lon="3.37936">
        <ele>709.07</ele>
        <time>2021-05-25T14:31:16Z</time>
      </trkpt>
      <trkpt lat="43.9281" lon="3.3794">
        <ele>707.42</ele>
        <time>2021-05-25T14:31:21Z</time>
      </trkpt>
      <trkpt lat="43.92793" lon="3.38216">
        <ele>710.41</ele>
        <time>2021-05-25T14:31:40Z</time>
      </trkpt>
      <trkpt lat="43.92788" lon="3.38248">
        <ele>707.19</ele>
        <time>2021-05-25T14:31:42Z</time>
      </trkpt>
      <trkpt lat="43.92784" lon="3.38271">
        <ele>705.17</ele>
        <time>2021-05-25T14:31:44Z</time>
      </trkpt>
      <trkpt lat="43.92785" lon="3.3828">
        <ele>705.16</ele>
        <time>2021-05-25T14:31:45Z</time>
      </trkpt>
      <trkpt lat="43.9311" lon="3.38447">
        <ele>703.37</ele>
        <time>2021-05-25T14:32:15Z</time>
      </trkpt>
      <trkpt lat="43.93132" lon="3.38459">
        <ele>705.71</ele>
        <time>2021-05-25T14:32:17Z</time>
      </trkpt>
      <trkpt lat="43.93306" lon="3.38663">
        <ele>710.88671875</ele>
      </trkpt>
      <trkpt lat="43.93234" lon="3.38849">
        <ele>699.45</ele>
        <time>2021-05-25T14:32:53Z</time>
      </trkpt>
      <trkpt lat="43.93213" lon="3.38885">
        <ele>698.44</ele>
        <time>2021-05-25T14:32:56Z</time>
      </trkpt>
      <trkpt lat="43.93198" lon="3.3898">
        <ele>695.08</ele>
        <time>2021-05-25T14:33:02Z</time>
      </trkpt>
      <trkpt lat="43.932" lon="3.38993">
        <ele>695.09</ele>
        <time>2021-05-25T14:33:03Z</time>
      </trkpt>
      <trkpt lat="43.93222" lon="3.39052">
        <ele>694.33203125</ele>
      </trkpt>
      <trkpt lat="43.93301" lon="3.39106">
        <ele>692.93</ele>
        <time>2021-05-25T14:34:28Z</time>
      </trkpt>
      <trkpt lat="43.93318" lon="3.39162">
        <ele>699.3046875</ele>
      </trkpt>
      <trkpt lat="43.93308" lon="3.39243">
        <ele>697.98</ele>
        <time>2021-05-25T14:34:44Z</time>
      </trkpt>
      <trkpt lat="43.93308" lon="3.39253">
        <ele>698.04</ele>
        <time>2021-05-25T14:34:45Z</time>
      </trkpt>
      <trkpt lat="43.93324" lon="3.39309">
        <ele>701.14</ele>
        <time>2021-05-25T14:34:51Z</time>
      </trkpt>
      <trkpt lat="43.93337" lon="3.3937">
        <ele>712.73046875</ele>
      </trkpt>
      <trkpt lat="43.93407" lon="3.39409">
        <ele>707.23</ele>
        <time>2021-05-25T14:35:06Z</time>
      </trkpt>
      <trkpt lat="43.9345" lon="3.3948">
        <ele>711.27</ele>
        <time>2021-05-25T14:35:15Z</time>
      </trkpt>
      <trkpt lat="43.93456" lon="3.39489">
        <ele>711.27</ele>
        <time>2021-05-25T14:35:16Z</time>
      </trkpt>
      <trkpt lat="43.935" lon="3.39528">
        <ele>715.08</ele>
        <time>2021-05-25T14:35:22Z</time>
      </trkpt>
      <trkpt lat="43.93508" lon="3.39532">
        <ele>715.06</ele>
        <time>2021-05-25T14:35:23Z</time>
      </trkpt>
      <trkpt lat="43.93567" lon="3.39573">
        <ele>720</ele>
        <time>2021-05-25T14:35:32Z</time>
      </trkpt>
      <trkpt lat="43.93632" lon="3.39661">
        <ele>725.91</ele>
        <time>2021-05-25T14:35:43Z</time>
      </trkpt>
      <trkpt lat="43.93638" lon="3.39669">
        <ele>725.96</ele>
        <time>2021-05-25T14:35:44Z</time>
      </trkpt>
      <trkpt lat="43.93661" lon="3.39699">
        <ele>727.78</ele>
        <time>2021-05-25T14:35:48Z</time>
      </trkpt>
      <trkpt lat="43.937" lon="3.39731">
        <ele>731.42</ele>
        <time>2021-05-25T14:35:54Z</time>
      </trkpt>
      <trkpt lat="43.938" lon="3.39804">
        <ele>735.93</ele>
        <time>2021-05-25T14:36:09Z</time>
      </trkpt>
      <trkpt lat="43.93914" lon="3.40137">
        <ele>740.79</ele>
        <time>2021-05-25T14:36:44Z</time>
      </trkpt>
      <trkpt lat="43.94029" lon="3.40295">
        <ele>747.23</ele>
        <time>2021-05-25T14:37:06Z</time>
      </trkpt>
      <trkpt lat="43.94037" lon="3.40299">
        <ele>747.23</ele>
        <time>2021-05-25T14:37:07Z</time>
      </trkpt>
      <trkpt lat="43.94068" lon="3.40319">
        <ele>749.76</ele>
        <time>2021-05-25T14:37:11Z</time>
      </trkpt>
      <trkpt lat="43.94146" lon="3.40411">
        <ele>754.41</ele>
        <time>2021-05-25T14:37:22Z</time>
      </trkpt>
      <trkpt lat="43.94151" lon="3.40419">
        <ele>754.37</ele>
        <time>2021-05-25T14:37:23Z</time>
      </trkpt>
      <trkpt lat="43.94179" lon="3.40436">
        <ele>758.34</ele>
        <time>2021-05-25T14:37:28Z</time>
      </trkpt>
      <trkpt lat="43.94186" lon="3.40437">
        <ele>758.29</ele>
        <time>2021-05-25T14:37:29Z</time>
      </trkpt>
      <trkpt lat="43.94204" lon="3.4044">
        <ele>759.83</ele>
        <time>2021-05-25T14:37:31Z</time>
      </trkpt>
      <trkpt lat="43.94251" lon="3.4045">
        <ele>760.15</ele>
        <time>2021-05-25T14:37:36Z</time>
      </trkpt>
      <trkpt lat="43.94408" lon="3.4058">
        <ele>763.32</ele>
        <time>2021-05-25T14:37:53Z</time>
      </trkpt>
      <trkpt lat="43.94644" lon="3.4083">
        <ele>759.39</ele>
        <time>2021-05-25T14:38:16Z</time>
      </trkpt>
      <trkpt lat="43.94681" lon="3.4087">
        <ele>759.37</ele>
        <time>2021-05-25T14:38:20Z</time>
      </trkpt>
      <trkpt lat="43.94803" lon="3.40891">
        <ele>754.17</ele>
        <time>2021-05-25T14:38:31Z</time>
      </trkpt>
      <trkpt lat="43.94806" lon="3.409">
        <ele>754.17</ele>
        <time>2021-05-25T14:38:32Z</time>
      </trkpt>
      <trkpt lat="43.94742" lon="3.41017">
        <ele>757.71</ele>
        <time>2021-05-25T14:38:41Z</time>
      </trkpt>
      <trkpt lat="43.9473" lon="3.41146">
        <ele>763.04</ele>
        <time>2021-05-25T14:38:48Z</time>
      </trkpt>
      <trkpt lat="43.94737" lon="3.41164">
        <ele>765.34</ele>
        <time>2021-05-25T14:38:49Z</time>
      </trkpt>
      <trkpt lat="43.94751" lon="3.41204">
        <ele>768.81</ele>
        <time>2021-05-25T14:38:51Z</time>
      </trkpt>
      <trkpt lat="43.94795" lon="3.41316">
        <ele>771.19</ele>
        <time>2021-05-25T14:38:57Z</time>
      </trkpt>
      <trkpt lat="43.95052" lon="3.41786">
        <ele>778.01</ele>
        <time>2021-05-25T14:39:23Z</time>
      </trkpt>
      <trkpt lat="43.95077" lon="3.41851">
        <ele>774.82</ele>
        <time>2021-05-25T14:39:27Z</time>
      </trkpt>
      <trkpt lat="43.95083" lon="3.41863">
        <ele>774.82</ele>
        <time>2021-05-25T14:39:28Z</time>
      </trkpt>
      <trkpt lat="43.9527" lon="3.42028">
        <ele>777.76</ele>
        <time>2021-05-25T14:40:00Z</time>
      </trkpt>
      <trkpt lat="43.95276" lon="3.42028">
        <ele>777.8</ele>
        <time>2021-05-25T14:40:01Z</time>
      </trkpt>
      <trkpt lat="43.95284" lon="3.42028">
        <ele>779.75</ele>
        <time>2021-05-25T14:40:02Z</time>
      </trkpt>
      <trkpt lat="43.95309" lon="3.42029">
        <ele>782.35</ele>
        <time>2021-05-25T14:40:05Z</time>
      </trkpt>
      <trkpt lat="43.95351" lon="3.42014">
        <ele>785.98</ele>
        <time>2021-05-25T14:40:10Z</time>
      </trkpt>
      <trkpt lat="43.95359" lon="3.42007">
        <ele>785.97</ele>
        <time>2021-05-25T14:40:11Z</time>
      </trkpt>
      <trkpt lat="43.95427" lon="3.41944">
        <ele>789.73</ele>
        <time>2021-05-25T14:40:19Z</time>
      </trkpt>
      <trkpt lat="43.95446" lon="3.41926">
        <ele>792.06</ele>
        <time>2021-05-25T14:40:21Z</time>
      </trkpt>
      <trkpt lat="43.95455" lon="3.41916">
        <ele>792.35</ele>
        <time>2021-05-25T14:40:22Z</time>
      </trkpt>
      <trkpt lat="43.95479" lon="3.41877">
        <ele>796.46</ele>
        <time>2021-05-25T14:40:25Z</time>
      </trkpt>
      <trkpt lat="43.95485" lon="3.41864">
        <ele>796.46</ele>
        <time>2021-05-25T14:40:26Z</time>
      </trkpt>
      <trkpt lat="43.95488" lon="3.41751">
        <ele>801.92</ele>
        <time>2021-05-25T14:40:33Z</time>
      </trkpt>
      <trkpt lat="43.95485" lon="3.41671">
        <ele>805.19</ele>
        <time>2021-05-25T14:40:37Z</time>
      </trkpt>
      <trkpt lat="43.95487" lon="3.41652">
        <ele>805.31</ele>
        <time>2021-05-25T14:40:38Z</time>
      </trkpt>
      <trkpt lat="43.95506" lon="3.41603">
        <ele>810.23</ele>
        <time>2021-05-25T14:40:41Z</time>
      </trkpt>
      <trkpt lat="43.95535" lon="3.41549">
        <ele>815.75</ele>
        <time>2021-05-25T14:40:44Z</time>
      </trkpt>
      <trkpt lat="43.95574" lon="3.41469">
        <ele>817.3</ele>
        <time>2021-05-25T14:40:48Z</time>
      </trkpt>
      <trkpt lat="43.95793" lon="3.41052">
        <ele>821.57</ele>
        <time>2021-05-25T14:41:09Z</time>
      </trkpt>
      <trkpt lat="43.95803" lon="3.41032">
        <ele>821.56</ele>
        <time>2021-05-25T14:41:10Z</time>
      </trkpt>
      <trkpt lat="43.96088" lon="3.40781">
        <ele>815.94</ele>
        <time>2021-05-25T14:41:30Z</time>
      </trkpt>
      <trkpt lat="43.96127" lon="3.40811">
        <ele>811.83</ele>
        <time>2021-05-25T14:41:33Z</time>
      </trkpt>
      <trkpt lat="43.96138" lon="3.40827">
        <ele>811.83</ele>
        <time>2021-05-25T14:41:34Z</time>
      </trkpt>
      <trkpt lat="43.96147" lon="3.40844">
        <ele>811.88</ele>
        <time>2021-05-25T14:41:35Z</time>
      </trkpt>
      <trkpt lat="43.96175" lon="3.40892">
        <ele>811.76</ele>
        <time>2021-05-25T14:41:38Z</time>
      </trkpt>
      <trkpt lat="43.96269" lon="3.40896">
        <ele>808.34</ele>
        <time>2021-05-25T14:41:46Z</time>
      </trkpt>
      <trkpt lat="43.96277" lon="3.40883">
        <ele>808.32</ele>
        <time>2021-05-25T14:41:47Z</time>
      </trkpt>
      <trkpt lat="43.96311" lon="3.40796">
        <ele>811.74</ele>
        <time>2021-05-25T14:41:52Z</time>
      </trkpt>
      <trkpt lat="43.96323" lon="3.40781">
        <ele>811.74</ele>
        <time>2021-05-25T14:41:53Z</time>
      </trkpt>
      <trkpt lat="43.96402" lon="3.40718">
        <ele>808.89</ele>
        <time>2021-05-25T14:41:58Z</time>
      </trkpt>
      <trkpt lat="43.96419" lon="3.40706">
        <ele>808.89</ele>
        <time>2021-05-25T14:41:59Z</time>
      </trkpt>
      <trkpt lat="43.9652" lon="3.40638">
        <ele>811.6</ele>
        <time>2021-05-25T14:42:05Z</time>
      </trkpt>
      <trkpt lat="43.96537" lon="3.40631">
        <ele>811.58</ele>
        <time>2021-05-25T14:42:06Z</time>
      </trkpt>
      <trkpt lat="43.9671" lon="3.40631">
        <ele>805.92</ele>
        <time>2021-05-25T14:42:18Z</time>
      </trkpt>
      <trkpt lat="43.96731" lon="3.40637">
        <ele>802.46</ele>
        <time>2021-05-25T14:42:21Z</time>
      </trkpt>
      <trkpt lat="43.96734" lon="3.40638">
        <ele>802.4</ele>
        <time>2021-05-25T14:42:22Z</time>
      </trkpt>
      <trkpt lat="43.9678" lon="3.40666">
        <ele>802.32</ele>
        <time>2021-05-25T14:42:28Z</time>
      </trkpt>
      <trkpt lat="43.96796" lon="3.40676">
        <ele>802.34</ele>
        <time>2021-05-25T14:42:30Z</time>
      </trkpt>
      <trkpt lat="43.9682" lon="3.40677">
        <ele>806.11</ele>
        <time>2021-05-25T14:42:33Z</time>
      </trkpt>
      <trkpt lat="43.96828" lon="3.40675">
        <ele>806.16</ele>
        <time>2021-05-25T14:42:34Z</time>
      </trkpt>
      <trkpt lat="43.96845" lon="3.40669">
        <ele>808.95</ele>
        <time>2021-05-25T14:42:36Z</time>
      </trkpt>
      <trkpt lat="43.96854" lon="3.40669">
        <ele>808.98</ele>
        <time>2021-05-25T14:42:37Z</time>
      </trkpt>
      <trkpt lat="43.96885" lon="3.40678">
        <ele>812.21</ele>
        <time>2021-05-25T14:42:40Z</time>
      </trkpt>
      <trkpt lat="43.96971" lon="3.40703">
        <ele>818.34</ele>
        <time>2021-05-25T14:42:53Z</time>
      </trkpt>
      <trkpt lat="43.96983" lon="3.40673">
        <ele>820.43</ele>
        <time>2021-05-25T14:42:56Z</time>
      </trkpt>
      <trkpt lat="43.96986" lon="3.40666">
        <ele>820.34</ele>
        <time>2021-05-25T14:42:57Z</time>
      </trkpt>
      <trkpt lat="43.97016" lon="3.40663">
        <ele>824.02</ele>
        <time>2021-05-25T14:43:02Z</time>
      </trkpt>
      <trkpt lat="43.97024" lon="3.40666">
        <ele>824.04</ele>
        <time>2021-05-25T14:43:03Z</time>
      </trkpt>
      <trkpt lat="43.97055" lon="3.40669">
        <ele>827.31</ele>
        <time>2021-05-25T14:43:06Z</time>
      </trkpt>
      <trkpt lat="43.97086" lon="3.40671">
        <ele>829.23</ele>
        <time>2021-05-25T14:43:09Z</time>
      </trkpt>
      <trkpt lat="43.97137" lon="3.40653">
        <ele>833.43</ele>
        <time>2021-05-25T14:43:14Z</time>
      </trkpt>
      <trkpt lat="43.97169" lon="3.40642">
        <ele>837.04</ele>
        <time>2021-05-25T14:43:17Z</time>
      </trkpt>
      <trkpt lat="43.97179" lon="3.40638">
        <ele>837.03</ele>
        <time>2021-05-25T14:43:18Z</time>
      </trkpt>
      <trkpt lat="43.97215" lon="3.40649">
        <ele>840.92</ele>
        <time>2021-05-25T14:43:22Z</time>
      </trkpt>
      <trkpt lat="43.97281" lon="3.40753">
        <ele>845.7</ele>
        <time>2021-05-25T14:43:34Z</time>
      </trkpt>
      <trkpt lat="43.97363" lon="3.40827">
        <ele>848.89</ele>
        <time>2021-05-25T14:43:45Z</time>
      </trkpt>
      <trkpt lat="43.97373" lon="3.40826">
        <ele>848.99</ele>
        <time>2021-05-25T14:43:46Z</time>
      </trkpt>
      <trkpt lat="43.97394" lon="3.40822">
        <ele>850.35</ele>
        <time>2021-05-25T14:43:48Z</time>
      </trkpt>
      <trkpt lat="43.97404" lon="3.40819">
        <ele>850.28</ele>
        <time>2021-05-25T14:43:49Z</time>
      </trkpt>
      <trkpt lat="43.97415" lon="3.40817">
        <ele>850.32</ele>
        <time>2021-05-25T14:43:50Z</time>
      </trkpt>
      <trkpt lat="43.97537" lon="3.40848">
        <ele>854.41</ele>
        <time>2021-05-25T14:44:01Z</time>
      </trkpt>
      <trkpt lat="43.97546" lon="3.40849">
        <ele>854.37</ele>
        <time>2021-05-25T14:44:02Z</time>
      </trkpt>
      <trkpt lat="43.97657" lon="3.40861">
        <ele>857.62</ele>
        <time>2021-05-25T14:44:15Z</time>
      </trkpt>
      <trkpt lat="43.97735" lon="3.40916">
        <ele>862.4</ele>
        <time>2021-05-25T14:44:25Z</time>
      </trkpt>
      <trkpt lat="43.97742" lon="3.40927">
        <ele>862.48</ele>
        <time>2021-05-25T14:44:26Z</time>
      </trkpt>
      <trkpt lat="43.97797" lon="3.41135">
        <ele>867.27</ele>
        <time>2021-05-25T14:44:46Z</time>
      </trkpt>
      <trkpt lat="43.9788" lon="3.41128">
        <ele>871.35</ele>
        <time>2021-05-25T14:44:55Z</time>
      </trkpt>
      <trkpt lat="43.97891" lon="3.41129">
        <ele>871.44</ele>
        <time>2021-05-25T14:44:56Z</time>
      </trkpt>
      <trkpt lat="43.97978" lon="3.41121">
        <ele>876.37</ele>
        <time>2021-05-25T14:45:03Z</time>
      </trkpt>
      <trkpt lat="43.9799" lon="3.41122">
        <ele>876.32</ele>
        <time>2021-05-25T14:45:04Z</time>
      </trkpt>
      <trkpt lat="43.98035" lon="3.41124">
        <ele>876.86</ele>
        <time>2021-05-25T14:45:08Z</time>
      </trkpt>
      <trkpt lat="43.98145" lon="3.41187">
        <ele>880.94</ele>
        <time>2021-05-25T14:45:27Z</time>
      </trkpt>
      <trkpt lat="43.98182" lon="3.4122">
        <ele>885.31</ele>
        <time>2021-05-25T14:45:34Z</time>
      </trkpt>
      <trkpt lat="43.98187" lon="3.41229">
        <ele>885.29</ele>
        <time>2021-05-25T14:45:35Z</time>
      </trkpt>
      <trkpt lat="43.98192" lon="3.41239">
        <ele>886.27</ele>
        <time>2021-05-25T14:45:36Z</time>
      </trkpt>
      <trkpt lat="43.98205" lon="3.41272">
        <ele>887.68</ele>
        <time>2021-05-25T14:45:39Z</time>
      </trkpt>
      <trkpt lat="43.98213" lon="3.41351">
        <ele>890.73</ele>
        <time>2021-05-25T14:45:45Z</time>
      </trkpt>
      <trkpt lat="43.98212" lon="3.41364">
        <ele>890.78</ele>
        <time>2021-05-25T14:45:46Z</time>
      </trkpt>
      <trkpt lat="43.98253" lon="3.41463">
        <ele>894.99</ele>
        <time>2021-05-25T14:45:56Z</time>
      </trkpt>
      <trkpt lat="43.98262" lon="3.41468">
        <ele>894.96</ele>
        <time>2021-05-25T14:45:57Z</time>
      </trkpt>
      <trkpt lat="43.98319" lon="3.41507">
        <ele>898.34</ele>
        <time>2021-05-25T14:46:03Z</time>
      </trkpt>
      <trkpt lat="43.98373" lon="3.41556">
        <ele>902.04</ele>
        <time>2021-05-25T14:46:09Z</time>
      </trkpt>
      <trkpt lat="43.98401" lon="3.41582">
        <ele>904.11</ele>
        <time>2021-05-25T14:46:12Z</time>
      </trkpt>
      <trkpt lat="43.9845" lon="3.41611">
        <ele>907.32</ele>
        <time>2021-05-25T14:46:17Z</time>
      </trkpt>
      <trkpt lat="43.9846" lon="3.41616">
        <ele>907.21</ele>
        <time>2021-05-25T14:46:18Z</time>
      </trkpt>
      <trkpt lat="43.98502" lon="3.41637">
        <ele>910.1</ele>
        <time>2021-05-25T14:46:22Z</time>
      </trkpt>
      <trkpt lat="43.9856" lon="3.41709">
        <ele>915.21</ele>
        <time>2021-05-25T14:46:29Z</time>
      </trkpt>
      <trkpt lat="43.98595" lon="3.41874">
        <ele>921.49</ele>
        <time>2021-05-25T14:47:47Z</time>
      </trkpt>
      <trkpt lat="43.98599" lon="3.41872">
        <ele>921</ele>
        <time>2021-05-25T14:48:23Z</time>
      </trkpt>
      <trkpt lat="43.98736" lon="3.41799">
        <ele>918.51</ele>
        <time>2021-05-25T14:48:43Z</time>
      </trkpt>
      <trkpt lat="43.98805" lon="3.41761">
        <ele>914.91</ele>
        <time>2021-05-25T14:48:50Z</time>
      </trkpt>
      <trkpt lat="43.99038" lon="3.41766">
        <ele>908.08</ele>
        <time>2021-05-25T14:49:11Z</time>
      </trkpt>
      <trkpt lat="43.99218" lon="3.41795">
        <ele>901.98</ele>
        <time>2021-05-25T14:49:27Z</time>
      </trkpt>
      <trkpt lat="43.99232" lon="3.418">
        <ele>902</ele>
        <time>2021-05-25T14:49:28Z</time>
      </trkpt>
      <trkpt lat="43.99347" lon="3.41937">
        <ele>898.2</ele>
        <time>2021-05-25T14:49:40Z</time>
      </trkpt>
      <trkpt lat="43.99353" lon="3.4195">
        <ele>898.18</ele>
        <time>2021-05-25T14:49:41Z</time>
      </trkpt>
      <trkpt lat="43.99351" lon="3.42158">
        <ele>901.98</ele>
        <time>2021-05-25T14:49:59Z</time>
      </trkpt>
      <trkpt lat="43.9936" lon="3.42234">
        <ele>906.88</ele>
        <time>2021-05-25T14:50:05Z</time>
      </trkpt>
      <trkpt lat="43.99363" lon="3.42241">
        <ele>906.91</ele>
        <time>2021-05-25T14:50:06Z</time>
      </trkpt>
      <trkpt lat="43.99414" lon="3.42352">
        <ele>912.12</ele>
        <time>2021-05-25T14:50:19Z</time>
      </trkpt>
      <trkpt lat="43.99431" lon="3.42539">
        <ele>919.01</ele>
        <time>2021-05-25T14:50:42Z</time>
      </trkpt>
      <trkpt lat="43.99474" lon="3.42576">
        <ele>922.76</ele>
        <time>2021-05-25T14:50:46Z</time>
      </trkpt>
      <trkpt lat="43.99484" lon="3.42586">
        <ele>922.78</ele>
        <time>2021-05-25T14:50:47Z</time>
      </trkpt>
      <trkpt lat="43.99591" lon="3.42702">
        <ele>923.69</ele>
        <time>2021-05-25T14:50:58Z</time>
      </trkpt>
      <trkpt lat="43.99668" lon="3.42917">
        <ele>928.41</ele>
        <time>2021-05-25T14:51:20Z</time>
      </trkpt>
      <trkpt lat="43.99592" lon="3.4307">
        <ele>932.59</ele>
        <time>2021-05-25T14:51:33Z</time>
      </trkpt>
      <trkpt lat="43.99615" lon="3.43145">
        <ele>936.18</ele>
        <time>2021-05-25T14:51:42Z</time>
      </trkpt>
      <trkpt lat="43.99616" lon="3.43213">
        <ele>939.21</ele>
        <time>2021-05-25T14:51:48Z</time>
      </trkpt>
      <trkpt lat="43.99618" lon="3.43417">
        <ele>945.27</ele>
        <time>2021-05-25T14:52:06Z</time>
      </trkpt>
      <trkpt lat="43.99626" lon="3.43422">
        <ele>945.33</ele>
        <time>2021-05-25T14:52:07Z</time>
      </trkpt>
      <trkpt lat="43.99681" lon="3.43476">
        <ele>948.57</ele>
        <time>2021-05-25T14:52:14Z</time>
      </trkpt>
      <trkpt lat="43.99686" lon="3.43483">
        <ele>948.55</ele>
        <time>2021-05-25T14:52:15Z</time>
      </trkpt>
      <trkpt lat="43.99725" lon="3.43565">
        <ele>950.9</ele>
        <time>2021-05-25T14:52:22Z</time>
      </trkpt>
      <trkpt lat="43.99736" lon="3.43587">
        <ele>950.9</ele>
        <time>2021-05-25T14:52:24Z</time>
      </trkpt>
      <trkpt lat="43.99745" lon="3.43664">
        <ele>956.09</ele>
        <time>2021-05-25T14:52:31Z</time>
      </trkpt>
      <trkpt lat="43.99744" lon="3.43676">
        <ele>956.1</ele>
        <time>2021-05-25T14:52:32Z</time>
      </trkpt>
      <trkpt lat="43.99741" lon="3.4374">
        <ele>959.37</ele>
        <time>2021-05-25T14:52:37Z</time>
      </trkpt>
      <trkpt lat="43.99739" lon="3.438">
        <ele>962.13</ele>
        <time>2021-05-25T14:52:42Z</time>
      </trkpt>
      <trkpt lat="43.99729" lon="3.43883">
        <ele>967.32</ele>
        <time>2021-05-25T14:52:48Z</time>
      </trkpt>
      <trkpt lat="43.99717" lon="3.43975">
        <ele>973.39</ele>
        <time>2021-05-25T14:52:54Z</time>
      </trkpt>
      <trkpt lat="43.9971" lon="3.44047">
        <ele>975.31</ele>
        <time>2021-05-25T14:52:59Z</time>
      </trkpt>
      <trkpt lat="43.99711" lon="3.44059">
        <ele>975.32</ele>
        <time>2021-05-25T14:53:00Z</time>
      </trkpt>
      <trkpt lat="43.99749" lon="3.44105">
        <ele>979.01</ele>
        <time>2021-05-25T14:53:08Z</time>
      </trkpt>
      <trkpt lat="43.99789" lon="3.44104">
        <ele>983.46</ele>
        <time>2021-05-25T14:53:13Z</time>
      </trkpt>
      <trkpt lat="43.99844" lon="3.44106">
        <ele>987.55</ele>
        <time>2021-05-25T14:53:18Z</time>
      </trkpt>
      <trkpt lat="43.99876" lon="3.4412">
        <ele>989.44</ele>
        <time>2021-05-25T14:53:21Z</time>
      </trkpt>
      <trkpt lat="43.99908" lon="3.44135">
        <ele>991.87</ele>
        <time>2021-05-25T14:53:24Z</time>
      </trkpt>
      <trkpt lat="43.99941" lon="3.44143">
        <ele>995.19</ele>
        <time>2021-05-25T14:53:27Z</time>
      </trkpt>
      <trkpt lat="43.99998" lon="3.44172">
        <ele>1000.02</ele>
        <time>2021-05-25T14:53:33Z</time>
      </trkpt>
      <trkpt lat="44.00087" lon="3.44289">
        <ele>1007.81</ele>
        <time>2021-05-25T14:53:49Z</time>
      </trkpt>
      <trkpt lat="44.00123" lon="3.44325">
        <ele>1011.22</ele>
        <time>2021-05-25T14:53:55Z</time>
      </trkpt>
      <trkpt lat="44.00129" lon="3.44332">
        <ele>1011.21</ele>
        <time>2021-05-25T14:53:56Z</time>
      </trkpt>
      <trkpt lat="44.00174" lon="3.4437">
        <ele>1016.16</ele>
        <time>2021-05-25T14:54:07Z</time>
      </trkpt>
      <trkpt lat="44.00174" lon="3.44369">
        <ele>1015.84</ele>
        <time>2021-05-25T14:54:25Z</time>
      </trkpt>
      <trkpt lat="44.00192" lon="3.44381">
        <ele>1009.15</ele>
        <time>2021-05-25T14:55:08Z</time>
      </trkpt>
      <trkpt lat="44.0019" lon="3.4438">
        <ele>1015.48</ele>
        <time>2021-05-25T15:06:58Z</time>
      </trkpt>
      <trkpt lat="44.00225" lon="3.44407">
        <ele>1020.51</ele>
        <time>2021-05-25T15:07:09Z</time>
      </trkpt>
      <trkpt lat="44.00233" lon="3.44413">
        <ele>1020.53</ele>
        <time>2021-05-25T15:07:10Z</time>
      </trkpt>
      <trkpt lat="44.00266" lon="3.44447">
        <ele>1023.81</ele>
        <time>2021-05-25T15:07:14Z</time>
      </trkpt>
      <trkpt lat="44.00274" lon="3.44457">
        <ele>1023.81</ele>
        <time>2021-05-25T15:07:15Z</time>
      </trkpt>
      <trkpt lat="44.00295" lon="3.44487">
        <ele>1027.8</ele>
        <time>2021-05-25T15:07:19Z</time>
      </trkpt>
      <trkpt lat="44.00315" lon="3.44542">
        <ele>1034.02</ele>
        <time>2021-05-25T15:07:25Z</time>
      </trkpt>
      <trkpt lat="44.00319" lon="3.44551">
        <ele>1033.98</ele>
        <time>2021-05-25T15:07:26Z</time>
      </trkpt>
      <trkpt lat="44.00347" lon="3.44584">
        <ele>1037.89</ele>
        <time>2021-05-25T15:07:30Z</time>
      </trkpt>
      <trkpt lat="44.00384" lon="3.44645">
        <ele>1041.91</ele>
        <time>2021-05-25T15:07:36Z</time>
      </trkpt>
      <trkpt lat="44.00413" lon="3.44727">
        <ele>1046.89</ele>
        <time>2021-05-25T15:07:43Z</time>
      </trkpt>
      <trkpt lat="44.00451" lon="3.4477">
        <ele>1051.71</ele>
        <time>2021-05-25T15:07:48Z</time>
      </trkpt>
      <trkpt lat="44.00457" lon="3.44776">
        <ele>1051.71</ele>
        <time>2021-05-25T15:07:49Z</time>
      </trkpt>
      <trkpt lat="44.00492" lon="3.44804">
        <ele>1055.34</ele>
        <time>2021-05-25T15:07:54Z</time>
      </trkpt>
      <trkpt lat="44.00499" lon="3.44809">
        <ele>1055.4</ele>
        <time>2021-05-25T15:07:55Z</time>
      </trkpt>
      <trkpt lat="44.00546" lon="3.44819">
        <ele>1059.97</ele>
        <time>2021-05-25T15:08:10Z</time>
      </trkpt>
      <trkpt lat="44.00571" lon="3.44813">
        <ele>1063.21</ele>
        <time>2021-05-25T15:08:24Z</time>
      </trkpt>
      <trkpt lat="44.00614" lon="3.44842">
        <ele>1067.29</ele>
        <time>2021-05-25T15:08:30Z</time>
      </trkpt>
      <trkpt lat="44.00643" lon="3.4485">
        <ele>1070.5</ele>
        <time>2021-05-25T15:08:33Z</time>
      </trkpt>
      <trkpt lat="44.00691" lon="3.44848">
        <ele>1075.21</ele>
        <time>2021-05-25T15:08:38Z</time>
      </trkpt>
      <trkpt lat="44.00731" lon="3.44834">
        <ele>1079.34</ele>
        <time>2021-05-25T15:08:42Z</time>
      </trkpt>
      <trkpt lat="44.00763" lon="3.44829">
        <ele>1082.47</ele>
        <time>2021-05-25T15:08:45Z</time>
      </trkpt>
      <trkpt lat="44.00773" lon="3.44825">
        <ele>1083.41</ele>
        <time>2021-05-25T15:08:46Z</time>
      </trkpt>
      <trkpt lat="44.00805" lon="3.44813">
        <ele>1086.23</ele>
        <time>2021-05-25T15:08:49Z</time>
      </trkpt>
      <trkpt lat="44.00889" lon="3.44839">
        <ele>1090.94</ele>
        <time>2021-05-25T15:08:57Z</time>
      </trkpt>
      <trkpt lat="44.00954" lon="3.44954">
        <ele>1098.12</ele>
        <time>2021-05-25T15:09:07Z</time>
      </trkpt>
      <trkpt lat="44.00992" lon="3.45043">
        <ele>1102.69</ele>
        <time>2021-05-25T15:09:15Z</time>
      </trkpt>
      <trkpt lat="44.00999" lon="3.4505">
        <ele>1102.78</ele>
        <time>2021-05-25T15:09:16Z</time>
      </trkpt>
      <trkpt lat="44.01007" lon="3.45057">
        <ele>1104.13</ele>
        <time>2021-05-25T15:09:17Z</time>
      </trkpt>
      <trkpt lat="44.01015" lon="3.45063">
        <ele>1104.15</ele>
        <time>2021-05-25T15:09:18Z</time>
      </trkpt>
      <trkpt lat="44.01054" lon="3.45097">
        <ele>1108.1</ele>
        <time>2021-05-25T15:09:23Z</time>
      </trkpt>
      <trkpt lat="44.01088" lon="3.45127">
        <ele>1111.1</ele>
        <time>2021-05-25T15:09:27Z</time>
      </trkpt>
      <trkpt lat="44.01095" lon="3.45136">
        <ele>1111.12</ele>
        <time>2021-05-25T15:09:28Z</time>
      </trkpt>
      <trkpt lat="44.01108" lon="3.45159">
        <ele>1112.33</ele>
        <time>2021-05-25T15:09:30Z</time>
      </trkpt>
      <trkpt lat="44.01123" lon="3.45185">
        <ele>1113.09</ele>
        <time>2021-05-25T15:09:33Z</time>
      </trkpt>
      <trkpt lat="44.01127" lon="3.4519">
        <ele>1113.19</ele>
        <time>2021-05-25T15:09:34Z</time>
      </trkpt>
      <trkpt lat="44.01199" lon="3.45153">
        <ele>1118.82</ele>
        <time>2021-05-25T15:09:45Z</time>
      </trkpt>
      <trkpt lat="44.01206" lon="3.45147">
        <ele>1118.81</ele>
        <time>2021-05-25T15:09:46Z</time>
      </trkpt>
      <trkpt lat="44.01221" lon="3.45126">
        <ele>1121.98</ele>
        <time>2021-05-25T15:09:49Z</time>
      </trkpt>
      <trkpt lat="44.01258" lon="3.45105">
        <ele>1127.11</ele>
        <time>2021-05-25T15:09:56Z</time>
      </trkpt>
      <trkpt lat="44.0139" lon="3.45146">
        <ele>1132.79</ele>
        <time>2021-05-25T15:10:09Z</time>
      </trkpt>
      <trkpt lat="44.01502" lon="3.45201">
        <ele>1138.3</ele>
        <time>2021-05-25T15:10:24Z</time>
      </trkpt>
      <trkpt lat="44.01508" lon="3.452">
        <ele>1138.37</ele>
        <time>2021-05-25T15:10:25Z</time>
      </trkpt>
      <trkpt lat="44.01544" lon="3.45191">
        <ele>1141.51</ele>
        <time>2021-05-25T15:10:30Z</time>
      </trkpt>
      <trkpt lat="44.01586" lon="3.45209">
        <ele>1146.47</ele>
        <time>2021-05-25T15:10:37Z</time>
      </trkpt>
      <trkpt lat="44.01607" lon="3.45255">
        <ele>1150.01</ele>
        <time>2021-05-25T15:10:41Z</time>
      </trkpt>
      <trkpt lat="44.01634" lon="3.4532">
        <ele>1153.57</ele>
        <time>2021-05-25T15:10:47Z</time>
      </trkpt>
      <trkpt lat="44.01644" lon="3.45348">
        <ele>1155.5</ele>
        <time>2021-05-25T15:10:52Z</time>
      </trkpt>
      <trkpt lat="44.01636" lon="3.45404">
        <ele>1159.9</ele>
        <time>2021-05-25T15:10:58Z</time>
      </trkpt>
      <trkpt lat="44.0164" lon="3.45476">
        <ele>1163.65</ele>
        <time>2021-05-25T15:11:05Z</time>
      </trkpt>
      <trkpt lat="44.0164" lon="3.45485">
        <ele>1163.67</ele>
        <time>2021-05-25T15:11:06Z</time>
      </trkpt>
      <trkpt lat="44.01618" lon="3.45562">
        <ele>1167.52</ele>
        <time>2021-05-25T15:11:16Z</time>
      </trkpt>
      <trkpt lat="44.01604" lon="3.45621">
        <ele>1167.15</ele>
        <time>2021-05-25T15:11:23Z</time>
      </trkpt>
      <trkpt lat="44.01659" lon="3.45811">
        <ele>1172.67</ele>
        <time>2021-05-25T15:11:45Z</time>
      </trkpt>
      <trkpt lat="44.01732" lon="3.45919">
        <ele>1196.09765625</ele>
      </trkpt>
      <trkpt lat="44.01608" lon="3.45985">
        <ele>1177.3</ele>
        <time>2021-05-25T15:12:14Z</time>
      </trkpt>
      <trkpt lat="44.01577" lon="3.46054">
        <ele>1182.84765625</ele>
      </trkpt>
      <trkpt lat="44.01635" lon="3.46186">
        <ele>1188.1953125</ele>
      </trkpt>
      <trkpt lat="44.01667" lon="3.46242">
        <ele>1183.65</ele>
        <time>2021-05-25T15:12:46Z</time>
      </trkpt>
      <trkpt lat="44.01721" lon="3.46289">
        <ele>1199.953125</ele>
      </trkpt>
      <trkpt lat="44.01703" lon="3.46602">
        <ele>1189.79</ele>
        <time>2021-05-25T15:13:25Z</time>
      </trkpt>
      <trkpt lat="44.01653" lon="3.46779">
        <ele>1193.39</ele>
        <time>2021-05-25T15:13:48Z</time>
      </trkpt>
      <trkpt lat="44.01524" lon="3.46996">
        <ele>1196.56</ele>
        <time>2021-05-25T15:14:09Z</time>
      </trkpt>
      <trkpt lat="44.01444" lon="3.47204">
        <ele>1203.29</ele>
        <time>2021-05-25T15:14:28Z</time>
      </trkpt>
      <trkpt lat="44.01442" lon="3.47215">
        <ele>1203.24</ele>
        <time>2021-05-25T15:14:29Z</time>
      </trkpt>
      <trkpt lat="44.01475" lon="3.47327">
        <ele>1209.07</ele>
        <time>2021-05-25T15:14:44Z</time>
      </trkpt>
      <trkpt lat="44.01478" lon="3.47373">
        <ele>1209.08</ele>
        <time>2021-05-25T15:14:48Z</time>
      </trkpt>
      <trkpt lat="44.01423" lon="3.47539">
        <ele>1213.78</ele>
        <time>2021-05-25T15:15:00Z</time>
      </trkpt>
      <trkpt lat="44.01418" lon="3.47552">
        <ele>1213.81</ele>
        <time>2021-05-25T15:15:01Z</time>
      </trkpt>
      <trkpt lat="44.01401" lon="3.47589">
        <ele>1215.95</ele>
        <time>2021-05-25T15:15:04Z</time>
      </trkpt>
      <trkpt lat="44.01394" lon="3.476">
        <ele>1215.99</ele>
        <time>2021-05-25T15:15:05Z</time>
      </trkpt>
      <trkpt lat="44.01379" lon="3.47685">
        <ele>1221.58</ele>
        <time>2021-05-25T15:15:16Z</time>
      </trkpt>
      <trkpt lat="44.01386" lon="3.47691">
        <ele>1221.61</ele>
        <time>2021-05-25T15:15:17Z</time>
      </trkpt>
      <trkpt lat="44.01572" lon="3.47854">
        <ele>1225.48</ele>
        <time>2021-05-25T15:15:41Z</time>
      </trkpt>
      <trkpt lat="44.01578" lon="3.47862">
        <ele>1225.48</ele>
        <time>2021-05-25T15:15:42Z</time>
      </trkpt>
      <trkpt lat="44.01643" lon="3.47906">
        <ele>1229.5</ele>
        <time>2021-05-25T15:15:49Z</time>
      </trkpt>
      <trkpt lat="44.01744" lon="3.4792">
        <ele>1232.63</ele>
        <time>2021-05-25T15:15:59Z</time>
      </trkpt>
      <trkpt lat="44.01804" lon="3.47902">
        <ele>1236.54</ele>
        <time>2021-05-25T15:16:07Z</time>
      </trkpt>
      <trkpt lat="44.01827" lon="3.47926">
        <ele>1240.75</ele>
        <time>2021-05-25T15:16:14Z</time>
      </trkpt>
      <trkpt lat="44.01828" lon="3.47934">
        <ele>1241.56</ele>
        <time>2021-05-25T15:16:15Z</time>
      </trkpt>
      <trkpt lat="44.01831" lon="3.48053">
        <ele>1244.75</ele>
        <time>2021-05-25T15:16:26Z</time>
      </trkpt>
      <trkpt lat="44.01869" lon="3.48096">
        <ele>1247.84</ele>
        <time>2021-05-25T15:16:37Z</time>
      </trkpt>
      <trkpt lat="44.01873" lon="3.48102">
        <ele>1247.82</ele>
        <time>2021-05-25T15:16:38Z</time>
      </trkpt>
      <trkpt lat="44.0192" lon="3.48111">
        <ele>1251.61</ele>
        <time>2021-05-25T15:16:46Z</time>
      </trkpt>
      <trkpt lat="44.02084" lon="3.48124">
        <ele>1257.49</ele>
        <time>2021-05-25T15:17:04Z</time>
      </trkpt>
      <trkpt lat="44.02162" lon="3.48102">
        <ele>1262.41</ele>
        <time>2021-05-25T15:17:12Z</time>
      </trkpt>
      <trkpt lat="44.02254" lon="3.48061">
        <ele>1268.15</ele>
        <time>2021-05-25T15:17:21Z</time>
      </trkpt>
      <trkpt lat="44.02285" lon="3.4805">
        <ele>1270.09</ele>
        <time>2021-05-25T15:17:24Z</time>
      </trkpt>
      <trkpt lat="44.02295" lon="3.48044">
        <ele>1269.98</ele>
        <time>2021-05-25T15:17:25Z</time>
      </trkpt>
      <trkpt lat="44.02356" lon="3.48019">
        <ele>1273.16</ele>
        <time>2021-05-25T15:17:31Z</time>
      </trkpt>
      <trkpt lat="44.02364" lon="3.48017">
        <ele>1273.11</ele>
        <time>2021-05-25T15:17:32Z</time>
      </trkpt>
      <trkpt lat="44.02418" lon="3.48022">
        <ele>1277.1</ele>
        <time>2021-05-25T15:17:37Z</time>
      </trkpt>
      <trkpt lat="44.02429" lon="3.4803">
        <ele>1277.08</ele>
        <time>2021-05-25T15:17:38Z</time>
      </trkpt>
      <trkpt lat="44.02481" lon="3.48064">
        <ele>1280.21</ele>
        <time>2021-05-25T15:17:43Z</time>
      </trkpt>
      <trkpt lat="44.02489" lon="3.48071">
        <ele>1280.22</ele>
        <time>2021-05-25T15:17:44Z</time>
      </trkpt>
      <trkpt lat="44.0263" lon="3.48204">
        <ele>1287.16</ele>
        <time>2021-05-25T15:18:03Z</time>
      </trkpt>
      <trkpt lat="44.02699" lon="3.48283">
        <ele>1290.95</ele>
        <time>2021-05-25T15:18:12Z</time>
      </trkpt>
      <trkpt lat="44.02703" lon="3.48294">
        <ele>1291</ele>
        <time>2021-05-25T15:18:13Z</time>
      </trkpt>
      <trkpt lat="44.02715" lon="3.48328">
        <ele>1292</ele>
        <time>2021-05-25T15:18:16Z</time>
      </trkpt>
      <trkpt lat="44.02771" lon="3.48444">
        <ele>1295.51</ele>
        <time>2021-05-25T15:18:27Z</time>
      </trkpt>
      <trkpt lat="44.0291" lon="3.48579">
        <ele>1299.26</ele>
        <time>2021-05-25T15:19:00Z</time>
      </trkpt>
      <trkpt lat="44.0291" lon="3.48583">
        <ele>1300.35</ele>
        <time>2021-05-25T15:19:11Z</time>
      </trkpt>
      <trkpt lat="44.02907" lon="3.48664">
        <ele>1305.09</ele>
        <time>2021-05-25T15:19:19Z</time>
      </trkpt>
      <trkpt lat="44.02907" lon="3.48676">
        <ele>1305.11</ele>
        <time>2021-05-25T15:19:20Z</time>
      </trkpt>
      <trkpt lat="44.02845" lon="3.48762">
        <ele>1308.93</ele>
        <time>2021-05-25T15:19:31Z</time>
      </trkpt>
      <trkpt lat="44.02819" lon="3.48801">
        <ele>1311.53</ele>
        <time>2021-05-25T15:19:35Z</time>
      </trkpt>
      <trkpt lat="44.02766" lon="3.48912">
        <ele>1319.58</ele>
        <time>2021-05-25T15:19:50Z</time>
      </trkpt>
      <trkpt lat="44.02796" lon="3.4893">
        <ele>1323.91</ele>
        <time>2021-05-25T15:19:57Z</time>
      </trkpt>
      <trkpt lat="44.02801" lon="3.48926">
        <ele>1325.08</ele>
        <time>2021-05-25T15:19:58Z</time>
      </trkpt>
      <trkpt lat="44.02817" lon="3.48913">
        <ele>1327.2</ele>
        <time>2021-05-25T15:20:01Z</time>
      </trkpt>
      <trkpt lat="44.02863" lon="3.48901">
        <ele>1331.87</ele>
        <time>2021-05-25T15:20:07Z</time>
      </trkpt>
      <trkpt lat="44.0291" lon="3.48888">
        <ele>1336.13</ele>
        <time>2021-05-25T15:20:13Z</time>
      </trkpt>
      <trkpt lat="44.02941" lon="3.48896">
        <ele>1339.82</ele>
        <time>2021-05-25T15:20:17Z</time>
      </trkpt>
      <trkpt lat="44.02962" lon="3.48908">
        <ele>1339.96</ele>
        <time>2021-05-25T15:20:20Z</time>
      </trkpt>
      <trkpt lat="44.03144" lon="3.48902">
        <ele>1345.17</ele>
        <time>2021-05-25T15:20:43Z</time>
      </trkpt>
      <trkpt lat="44.032" lon="3.48974">
        <ele>1348.07</ele>
        <time>2021-05-25T15:20:56Z</time>
      </trkpt>
      <trkpt lat="44.03212" lon="3.4899">
        <ele>1348.05</ele>
        <time>2021-05-25T15:20:58Z</time>
      </trkpt>
      <trkpt lat="44.0345" lon="3.49212">
        <ele>1352.39</ele>
        <time>2021-05-25T15:21:29Z</time>
      </trkpt>
      <trkpt lat="44.03475" lon="3.49262">
        <ele>1355.54</ele>
        <time>2021-05-25T15:21:33Z</time>
      </trkpt>
      <trkpt lat="44.03481" lon="3.49272">
        <ele>1355.52</ele>
        <time>2021-05-25T15:21:34Z</time>
      </trkpt>
      <trkpt lat="44.03572" lon="3.49492">
        <ele>1357.58</ele>
        <time>2021-05-25T15:22:51Z</time>
      </trkpt>
      <trkpt lat="44.03575" lon="3.49491">
        <ele>1357.59</ele>
        <time>2021-05-25T15:22:54Z</time>
      </trkpt>
      <trkpt lat="44.0363" lon="3.49302">
        <ele>1354.25</ele>
        <time>2021-05-25T15:23:34Z</time>
      </trkpt>
      <trkpt lat="44.03627" lon="3.49069">
        <ele>1349.45</ele>
        <time>2021-05-25T15:23:54Z</time>
      </trkpt>
      <trkpt lat="44.03624" lon="3.4906">
        <ele>1349.42</ele>
        <time>2021-05-25T15:23:55Z</time>
      </trkpt>
      <trkpt lat="44.03825" lon="3.48723">
        <ele>1345.27</ele>
        <time>2021-05-25T15:24:33Z</time>
      </trkpt>
      <trkpt lat="44.04061" lon="3.48669">
        <ele>1341.37</ele>
        <time>2021-05-25T15:25:02Z</time>
      </trkpt>
      <trkpt lat="44.04071" lon="3.48666">
        <ele>1341.32</ele>
        <time>2021-05-25T15:25:03Z</time>
      </trkpt>
      <trkpt lat="44.04088" lon="3.48661">
        <ele>1340</ele>
        <time>2021-05-25T15:25:05Z</time>
      </trkpt>
      <trkpt lat="44.04117" lon="3.4866">
        <ele>1336.95</ele>
        <time>2021-05-25T15:25:09Z</time>
      </trkpt>
      <trkpt lat="44.04124" lon="3.48663">
        <ele>1336.95</ele>
        <time>2021-05-25T15:25:10Z</time>
      </trkpt>
      <trkpt lat="44.04141" lon="3.4867">
        <ele>1335.59</ele>
        <time>2021-05-25T15:25:12Z</time>
      </trkpt>
      <trkpt lat="44.04246" lon="3.48802">
        <ele>1331.29</ele>
        <time>2021-05-25T15:25:28Z</time>
      </trkpt>
      <trkpt lat="44.04254" lon="3.48807">
        <ele>1331.3</ele>
        <time>2021-05-25T15:25:29Z</time>
      </trkpt>
      <trkpt lat="44.04534" lon="3.48855">
        <ele>1335.23</ele>
        <time>2021-05-25T15:26:04Z</time>
      </trkpt>
      <trkpt lat="44.04539" lon="3.48863">
        <ele>1335.26</ele>
        <time>2021-05-25T15:26:05Z</time>
      </trkpt>
      <trkpt lat="44.04583" lon="3.48879">
        <ele>1338.91</ele>
        <time>2021-05-25T15:26:13Z</time>
      </trkpt>
      <trkpt lat="44.04666" lon="3.48847">
        <ele>1335.66</ele>
        <time>2021-05-25T15:26:21Z</time>
      </trkpt>
      <trkpt lat="44.04715" lon="3.48869">
        <ele>1329.55</ele>
        <time>2021-05-25T15:26:26Z</time>
      </trkpt>
      <trkpt lat="44.0476" lon="3.48894">
        <ele>1323.69</ele>
        <time>2021-05-25T15:26:31Z</time>
      </trkpt>
      <trkpt lat="44.04799" lon="3.48878">
        <ele>1319.67</ele>
        <time>2021-05-25T15:26:36Z</time>
      </trkpt>
      <trkpt lat="44.04808" lon="3.4887">
        <ele>1319.47</ele>
        <time>2021-05-25T15:26:37Z</time>
      </trkpt>
      <trkpt lat="44.04823" lon="3.48858">
        <ele>1316.62</ele>
        <time>2021-05-25T15:26:39Z</time>
      </trkpt>
      <trkpt lat="44.04832" lon="3.48853">
        <ele>1316.51</ele>
        <time>2021-05-25T15:26:40Z</time>
      </trkpt>
      <trkpt lat="44.04857" lon="3.48845">
        <ele>1313.06</ele>
        <time>2021-05-25T15:26:43Z</time>
      </trkpt>
      <trkpt lat="44.0497" lon="3.4879">
        <ele>1308.23</ele>
        <time>2021-05-25T15:26:54Z</time>
      </trkpt>
      <trkpt lat="44.05031" lon="3.48756">
        <ele>1307.29</ele>
        <time>2021-05-25T15:27:00Z</time>
      </trkpt>
      <trkpt lat="44.0504" lon="3.48749">
        <ele>1307.29</ele>
        <time>2021-05-25T15:27:01Z</time>
      </trkpt>
      <trkpt lat="44.05047" lon="3.48742">
        <ele>1307.35</ele>
        <time>2021-05-25T15:27:02Z</time>
      </trkpt>
      <trkpt lat="44.05086" lon="3.48703">
        <ele>1309.73</ele>
        <time>2021-05-25T15:27:07Z</time>
      </trkpt>
      <trkpt lat="44.05092" lon="3.487">
        <ele>1309.72</ele>
        <time>2021-05-25T15:27:08Z</time>
      </trkpt>
      <trkpt lat="44.05196" lon="3.48731">
        <ele>1306.7</ele>
        <time>2021-05-25T15:27:32Z</time>
      </trkpt>
      <trkpt lat="44.05195" lon="3.4882">
        <ele>1301.32</ele>
        <time>2021-05-25T15:27:46Z</time>
      </trkpt>
      <trkpt lat="44.05194" lon="3.4883">
        <ele>1301.28</ele>
        <time>2021-05-25T15:27:47Z</time>
      </trkpt>
      <trkpt lat="44.0519" lon="3.48861">
        <ele>1299.94</ele>
        <time>2021-05-25T15:27:50Z</time>
      </trkpt>
      <trkpt lat="44.0519" lon="3.48883">
        <ele>1298.5</ele>
        <time>2021-05-25T15:27:52Z</time>
      </trkpt>
      <trkpt lat="44.0519" lon="3.48938">
        <ele>1296.93</ele>
        <time>2021-05-25T15:27:57Z</time>
      </trkpt>
      <trkpt lat="44.04965" lon="3.49441">
        <ele>1304.85</ele>
        <time>2021-05-25T15:28:46Z</time>
      </trkpt>
      <trkpt lat="44.04971" lon="3.49501">
        <ele>1304.86</ele>
        <time>2021-05-25T15:28:51Z</time>
      </trkpt>
      <trkpt lat="44.04919" lon="3.49622">
        <ele>1307.86</ele>
        <time>2021-05-25T15:29:10Z</time>
      </trkpt>
      <trkpt lat="44.0483" lon="3.49755">
        <ele>1312.4</ele>
        <time>2021-05-25T15:29:27Z</time>
      </trkpt>
      <trkpt lat="44.04915" lon="3.5009">
        <ele>1314.51</ele>
        <time>2021-05-25T15:29:56Z</time>
      </trkpt>
      <trkpt lat="44.04956" lon="3.50156">
        <ele>1308.12</ele>
        <time>2021-05-25T15:30:02Z</time>
      </trkpt>
      <trkpt lat="44.04957" lon="3.50169">
        <ele>1308.11</ele>
        <time>2021-05-25T15:30:03Z</time>
      </trkpt>
      <trkpt lat="44.04958" lon="3.50257">
        <ele>1303.77</ele>
        <time>2021-05-25T15:30:09Z</time>
      </trkpt>
      <trkpt lat="44.04977" lon="3.50277">
        <ele>1302.67</ele>
        <time>2021-05-25T15:30:11Z</time>
      </trkpt>
      <trkpt lat="44.05086" lon="3.5038">
        <ele>1300.38</ele>
        <time>2021-05-25T15:30:21Z</time>
      </trkpt>
      <trkpt lat="44.05098" lon="3.50414">
        <ele>1296.48</ele>
        <time>2021-05-25T15:30:24Z</time>
      </trkpt>
      <trkpt lat="44.05097" lon="3.50428">
        <ele>1296.49</ele>
        <time>2021-05-25T15:30:25Z</time>
      </trkpt>
      <trkpt lat="44.05057" lon="3.50529">
        <ele>1291.02</ele>
        <time>2021-05-25T15:30:31Z</time>
      </trkpt>
      <trkpt lat="44.05015" lon="3.50587">
        <ele>1286.93</ele>
        <time>2021-05-25T15:30:35Z</time>
      </trkpt>
      <trkpt lat="44.05004" lon="3.50603">
        <ele>1286.06</ele>
        <time>2021-05-25T15:30:36Z</time>
      </trkpt>
      <trkpt lat="44.04966" lon="3.50673">
        <ele>1280.24</ele>
        <time>2021-05-25T15:30:40Z</time>
      </trkpt>
      <trkpt lat="44.04938" lon="3.50719">
        <ele>1276.1</ele>
        <time>2021-05-25T15:30:43Z</time>
      </trkpt>
      <trkpt lat="44.04927" lon="3.50747">
        <ele>1272.48</ele>
        <time>2021-05-25T15:30:45Z</time>
      </trkpt>
      <trkpt lat="44.04928" lon="3.50785">
        <ele>1268.6</ele>
        <time>2021-05-25T15:30:48Z</time>
      </trkpt>
      <trkpt lat="44.04932" lon="3.50794">
        <ele>1268.6</ele>
        <time>2021-05-25T15:30:49Z</time>
      </trkpt>
      <trkpt lat="44.04936" lon="3.50802">
        <ele>1267.2</ele>
        <time>2021-05-25T15:30:50Z</time>
      </trkpt>
      <trkpt lat="44.0494" lon="3.5081">
        <ele>1267.19</ele>
        <time>2021-05-25T15:30:51Z</time>
      </trkpt>
      <trkpt lat="44.0496" lon="3.50845">
        <ele>1263.98</ele>
        <time>2021-05-25T15:30:56Z</time>
      </trkpt>
      <trkpt lat="44.04963" lon="3.50853">
        <ele>1263.99</ele>
        <time>2021-05-25T15:30:57Z</time>
      </trkpt>
      <trkpt lat="44.04989" lon="3.50903">
        <ele>1262.29</ele>
        <time>2021-05-25T15:31:04Z</time>
      </trkpt>
      <trkpt lat="44.04993" lon="3.50908">
        <ele>1262.3</ele>
        <time>2021-05-25T15:31:05Z</time>
      </trkpt>
      <trkpt lat="44.05074" lon="3.5106">
        <ele>1255.29</ele>
        <time>2021-05-25T15:31:19Z</time>
      </trkpt>
      <trkpt lat="44.05092" lon="3.51168">
        <ele>1247.91</ele>
        <time>2021-05-25T15:31:25Z</time>
      </trkpt>
      <trkpt lat="44.05123" lon="3.51263">
        <ele>1243.3</ele>
        <time>2021-05-25T15:31:30Z</time>
      </trkpt>
      <trkpt lat="44.05136" lon="3.513">
        <ele>1239.82</ele>
        <time>2021-05-25T15:31:32Z</time>
      </trkpt>
      <trkpt lat="44.05158" lon="3.51357">
        <ele>1236.1</ele>
        <time>2021-05-25T15:31:35Z</time>
      </trkpt>
      <trkpt lat="44.05186" lon="3.51408">
        <ele>1232.71</ele>
        <time>2021-05-25T15:31:38Z</time>
      </trkpt>
      <trkpt lat="44.05238" lon="3.51468">
        <ele>1227.19</ele>
        <time>2021-05-25T15:31:43Z</time>
      </trkpt>
      <trkpt lat="44.0525" lon="3.51499">
        <ele>1223.77</ele>
        <time>2021-05-25T15:31:46Z</time>
      </trkpt>
      <trkpt lat="44.05222" lon="3.5153">
        <ele>1220.66</ele>
        <time>2021-05-25T15:31:50Z</time>
      </trkpt>
      <trkpt lat="44.05165" lon="3.51599">
        <ele>1215.62</ele>
        <time>2021-05-25T15:31:56Z</time>
      </trkpt>
      <trkpt lat="44.05158" lon="3.51608">
        <ele>1214.09</ele>
        <time>2021-05-25T15:31:57Z</time>
      </trkpt>
      <trkpt lat="44.0521" lon="3.51706">
        <ele>1220.13</ele>
        <time>2021-05-25T15:32:12Z</time>
      </trkpt>
      <trkpt lat="44.0524" lon="3.51733">
        <ele>1223.92</ele>
        <time>2021-05-25T15:32:15Z</time>
      </trkpt>
      <trkpt lat="44.05313" lon="3.5177">
        <ele>1229.38</ele>
        <time>2021-05-25T15:32:21Z</time>
      </trkpt>
      <trkpt lat="44.05417" lon="3.51808">
        <ele>1233.27</ele>
        <time>2021-05-25T15:32:28Z</time>
      </trkpt>
      <trkpt lat="44.05472" lon="3.51865">
        <ele>1238.35</ele>
        <time>2021-05-25T15:32:33Z</time>
      </trkpt>
      <trkpt lat="44.05487" lon="3.51888">
        <ele>1238.08</ele>
        <time>2021-05-25T15:32:35Z</time>
      </trkpt>
      <trkpt lat="44.05628" lon="3.52244">
        <ele>1242.73</ele>
        <time>2021-05-25T15:32:57Z</time>
      </trkpt>
      <trkpt lat="44.05655" lon="3.52356">
        <ele>1247.14</ele>
        <time>2021-05-25T15:33:03Z</time>
      </trkpt>
      <trkpt lat="44.05655" lon="3.52377">
        <ele>1247.15</ele>
        <time>2021-05-25T15:33:04Z</time>
      </trkpt>
      <trkpt lat="44.05657" lon="3.52476">
        <ele>1249.79</ele>
        <time>2021-05-25T15:33:09Z</time>
      </trkpt>
      <trkpt lat="44.05521" lon="3.52813">
        <ele>1255.2</ele>
        <time>2021-05-25T15:33:33Z</time>
      </trkpt>
      <trkpt lat="44.05336" lon="3.52899">
        <ele>1253.09</ele>
        <time>2021-05-25T15:33:51Z</time>
      </trkpt>
      <trkpt lat="44.05234" lon="3.52919">
        <ele>1248.54</ele>
        <time>2021-05-25T15:33:59Z</time>
      </trkpt>
      <trkpt lat="44.05223" lon="3.52928">
        <ele>1248.58</ele>
        <time>2021-05-25T15:34:00Z</time>
      </trkpt>
      <trkpt lat="44.05176" lon="3.53027">
        <ele>1244.84</ele>
        <time>2021-05-25T15:34:06Z</time>
      </trkpt>
      <trkpt lat="44.05172" lon="3.53047">
        <ele>1244.67</ele>
        <time>2021-05-25T15:34:07Z</time>
      </trkpt>
      <trkpt lat="44.05162" lon="3.53102">
        <ele>1244.81</ele>
        <time>2021-05-25T15:34:10Z</time>
      </trkpt>
      <trkpt lat="44.05137" lon="3.53146">
        <ele>1247.82</ele>
        <time>2021-05-25T15:34:13Z</time>
      </trkpt>
      <trkpt lat="44.05117" lon="3.53175">
        <ele>1248.8</ele>
        <time>2021-05-25T15:34:15Z</time>
      </trkpt>
      <trkpt lat="44.05073" lon="3.53243">
        <ele>1252.34</ele>
        <time>2021-05-25T15:34:20Z</time>
      </trkpt>
      <trkpt lat="44.05044" lon="3.53323">
        <ele>1256.37</ele>
        <time>2021-05-25T15:34:25Z</time>
      </trkpt>
      <trkpt lat="44.04969" lon="3.53476">
        <ele>1265.09</ele>
        <time>2021-05-25T15:34:36Z</time>
      </trkpt>
      <trkpt lat="44.04929" lon="3.53516">
        <ele>1269.43</ele>
        <time>2021-05-25T15:34:41Z</time>
      </trkpt>
      <trkpt lat="44.04867" lon="3.53551">
        <ele>1274.49</ele>
        <time>2021-05-25T15:34:58Z</time>
      </trkpt>
      <trkpt lat="44.04839" lon="3.53585">
        <ele>1277.84</ele>
        <time>2021-05-25T15:35:18Z</time>
      </trkpt>
      <trkpt lat="44.04811" lon="3.53621">
        <ele>1280.31</ele>
        <time>2021-05-25T15:35:21Z</time>
      </trkpt>
      <trkpt lat="44.04767" lon="3.5366">
        <ele>1283.61</ele>
        <time>2021-05-25T15:35:25Z</time>
      </trkpt>
      <trkpt lat="44.04716" lon="3.53756">
        <ele>1288.59</ele>
        <time>2021-05-25T15:35:32Z</time>
      </trkpt>
      <trkpt lat="44.04713" lon="3.53774">
        <ele>1290.09</ele>
        <time>2021-05-25T15:35:33Z</time>
      </trkpt>
      <trkpt lat="44.04709" lon="3.53794">
        <ele>1291.2</ele>
        <time>2021-05-25T15:35:34Z</time>
      </trkpt>
      <trkpt lat="44.047" lon="3.53901">
        <ele>1295.98</ele>
        <time>2021-05-25T15:35:39Z</time>
      </trkpt>
      <trkpt lat="44.04693" lon="3.53943">
        <ele>1296.75</ele>
        <time>2021-05-25T15:35:41Z</time>
      </trkpt>
      <trkpt lat="44.04672" lon="3.54054">
        <ele>1297.78</ele>
        <time>2021-05-25T15:35:47Z</time>
      </trkpt>
      <trkpt lat="44.04671" lon="3.54097">
        <ele>1294.59</ele>
        <time>2021-05-25T15:35:49Z</time>
      </trkpt>
      <trkpt lat="44.04671" lon="3.5414">
        <ele>1293.42</ele>
        <time>2021-05-25T15:35:51Z</time>
      </trkpt>
      <trkpt lat="44.04689" lon="3.54247">
        <ele>1288.63</ele>
        <time>2021-05-25T15:35:56Z</time>
      </trkpt>
      <trkpt lat="44.04714" lon="3.54293">
        <ele>1285.47</ele>
        <time>2021-05-25T15:35:59Z</time>
      </trkpt>
      <trkpt lat="44.04721" lon="3.54302">
        <ele>1285.36</ele>
        <time>2021-05-25T15:36:00Z</time>
      </trkpt>
      <trkpt lat="44.04761" lon="3.54302">
        <ele>1281.71</ele>
        <time>2021-05-25T15:36:04Z</time>
      </trkpt>
      <trkpt lat="44.04791" lon="3.54295">
        <ele>1276.88</ele>
        <time>2021-05-25T15:36:07Z</time>
      </trkpt>
      <trkpt lat="44.04886" lon="3.54445">
        <ele>1273.56</ele>
        <time>2021-05-25T15:36:19Z</time>
      </trkpt>
      <trkpt lat="44.04927" lon="3.54476">
        <ele>1276.09</ele>
        <time>2021-05-25T15:36:22Z</time>
      </trkpt>
      <trkpt lat="44.04965" lon="3.54501">
        <ele>1272.68</ele>
        <time>2021-05-25T15:36:25Z</time>
      </trkpt>
      <trkpt lat="44.04977" lon="3.54507">
        <ele>1272.65</ele>
        <time>2021-05-25T15:36:26Z</time>
      </trkpt>
      <trkpt lat="44.05048" lon="3.54608">
        <ele>1269.59</ele>
        <time>2021-05-25T15:36:36Z</time>
      </trkpt>
      <trkpt lat="44.05375" lon="3.54717">
        <ele>1261.44</ele>
        <time>2021-05-25T15:37:03Z</time>
      </trkpt>
      <trkpt lat="44.05403" lon="3.54882">
        <ele>1262.16</ele>
        <time>2021-05-25T15:37:20Z</time>
      </trkpt>
      <trkpt lat="44.05409" lon="3.54901">
        <ele>1262.19</ele>
        <time>2021-05-25T15:37:21Z</time>
      </trkpt>
      <trkpt lat="44.05444" lon="3.55006">
        <ele>1256.16</ele>
        <time>2021-05-25T15:37:27Z</time>
      </trkpt>
      <trkpt lat="44.05443" lon="3.55039">
        <ele>1252.34</ele>
        <time>2021-05-25T15:37:30Z</time>
      </trkpt>
      <trkpt lat="44.05437" lon="3.55042">
        <ele>1252.2</ele>
        <time>2021-05-25T15:37:31Z</time>
      </trkpt>
      <trkpt lat="44.05366" lon="3.5503">
        <ele>1248.57</ele>
        <time>2021-05-25T15:37:37Z</time>
      </trkpt>
      <trkpt lat="44.05259" lon="3.55086">
        <ele>1243.09</ele>
        <time>2021-05-25T15:37:45Z</time>
      </trkpt>
      <trkpt lat="44.05206" lon="3.55132">
        <ele>1238.56</ele>
        <time>2021-05-25T15:37:49Z</time>
      </trkpt>
      <trkpt lat="44.05185" lon="3.55151">
        <ele>1235.56</ele>
        <time>2021-05-25T15:37:51Z</time>
      </trkpt>
      <trkpt lat="44.05186" lon="3.55275">
        <ele>1230.86</ele>
        <time>2021-05-25T15:37:59Z</time>
      </trkpt>
      <trkpt lat="44.05124" lon="3.55337">
        <ele>1225.51</ele>
        <time>2021-05-25T15:38:07Z</time>
      </trkpt>
      <trkpt lat="44.05115" lon="3.55336">
        <ele>1224.5</ele>
        <time>2021-05-25T15:38:08Z</time>
      </trkpt>
      <trkpt lat="44.05095" lon="3.55336">
        <ele>1224.66</ele>
        <time>2021-05-25T15:38:10Z</time>
      </trkpt>
      <trkpt lat="44.05019" lon="3.55411">
        <ele>1228.29</ele>
        <time>2021-05-25T15:38:19Z</time>
      </trkpt>
      <trkpt lat="44.04989" lon="3.55473">
        <ele>1232.08</ele>
        <time>2021-05-25T15:38:24Z</time>
      </trkpt>
      <trkpt lat="44.04985" lon="3.55487">
        <ele>1232.09</ele>
        <time>2021-05-25T15:38:25Z</time>
      </trkpt>
      <trkpt lat="44.05002" lon="3.55573">
        <ele>1235.93</ele>
        <time>2021-05-25T15:38:33Z</time>
      </trkpt>
      <trkpt lat="44.05031" lon="3.55674">
        <ele>1240.76</ele>
        <time>2021-05-25T15:38:42Z</time>
      </trkpt>
      <trkpt lat="44.05033" lon="3.55685">
        <ele>1240.76</ele>
        <time>2021-05-25T15:38:43Z</time>
      </trkpt>
      <trkpt lat="44.05548" lon="3.56079">
        <ele>1247.57</ele>
        <time>2021-05-25T15:39:37Z</time>
      </trkpt>
      <trkpt lat="44.05573" lon="3.56117">
        <ele>1247.44</ele>
        <time>2021-05-25T15:39:43Z</time>
      </trkpt>
      <trkpt lat="44.05754" lon="3.56312">
        <ele>1247.43</ele>
        <time>2021-05-25T15:40:24Z</time>
      </trkpt>
      <trkpt lat="44.05827" lon="3.56414">
        <ele>1243.99</ele>
        <time>2021-05-25T15:40:32Z</time>
      </trkpt>
      <trkpt lat="44.05832" lon="3.5643">
        <ele>1243.98</ele>
        <time>2021-05-25T15:40:33Z</time>
      </trkpt>
      <trkpt lat="44.05896" lon="3.56645">
        <ele>1241.27</ele>
        <time>2021-05-25T15:40:51Z</time>
      </trkpt>
      <trkpt lat="44.059" lon="3.56647">
        <ele>1241.28</ele>
        <time>2021-05-25T15:40:52Z</time>
      </trkpt>
      <trkpt lat="44.0598" lon="3.56665">
        <ele>1244.77</ele>
        <time>2021-05-25T15:41:02Z</time>
      </trkpt>
      <trkpt lat="44.05991" lon="3.56668">
        <ele>1244.78</ele>
        <time>2021-05-25T15:41:03Z</time>
      </trkpt>
      <trkpt lat="44.06011" lon="3.56671">
        <ele>1245.82</ele>
        <time>2021-05-25T15:41:05Z</time>
      </trkpt>
      <trkpt lat="44.06063" lon="3.56646">
        <ele>1249.82</ele>
        <time>2021-05-25T15:41:10Z</time>
      </trkpt>
      <trkpt lat="44.06086" lon="3.56634">
        <ele>1251.02</ele>
        <time>2021-05-25T15:41:12Z</time>
      </trkpt>
      <trkpt lat="44.06164" lon="3.5668">
        <ele>1256.29</ele>
        <time>2021-05-25T15:41:23Z</time>
      </trkpt>
      <trkpt lat="44.06166" lon="3.5669">
        <ele>1256.29</ele>
        <time>2021-05-25T15:41:24Z</time>
      </trkpt>
      <trkpt lat="44.06171" lon="3.5673">
        <ele>1259.46</ele>
        <time>2021-05-25T15:41:27Z</time>
      </trkpt>
      <trkpt lat="44.06174" lon="3.56744">
        <ele>1259.48</ele>
        <time>2021-05-25T15:41:28Z</time>
      </trkpt>
      <trkpt lat="44.06182" lon="3.56791">
        <ele>1263.3</ele>
        <time>2021-05-25T15:41:31Z</time>
      </trkpt>
      <trkpt lat="44.06185" lon="3.56806">
        <ele>1263.27</ele>
        <time>2021-05-25T15:41:32Z</time>
      </trkpt>
      <trkpt lat="44.06188" lon="3.5682">
        <ele>1263.29</ele>
        <time>2021-05-25T15:41:33Z</time>
      </trkpt>
      <trkpt lat="44.06257" lon="3.56874">
        <ele>1268.97</ele>
        <time>2021-05-25T15:41:42Z</time>
      </trkpt>
      <trkpt lat="44.06336" lon="3.56917">
        <ele>1273.93</ele>
        <time>2021-05-25T15:41:51Z</time>
      </trkpt>
      <trkpt lat="44.0636" lon="3.56973">
        <ele>1277.31</ele>
        <time>2021-05-25T15:41:55Z</time>
      </trkpt>
      <trkpt lat="44.06365" lon="3.56984">
        <ele>1277.3</ele>
        <time>2021-05-25T15:41:56Z</time>
      </trkpt>
      <trkpt lat="44.06426" lon="3.57035">
        <ele>1283.04</ele>
        <time>2021-05-25T15:42:03Z</time>
      </trkpt>
      <trkpt lat="44.0645" lon="3.57052">
        <ele>1283.11</ele>
        <time>2021-05-25T15:42:06Z</time>
      </trkpt>
      <trkpt lat="44.06417" lon="3.57205">
        <ele>1286.25</ele>
        <time>2021-05-25T15:42:28Z</time>
      </trkpt>
      <trkpt lat="44.0643" lon="3.57206">
        <ele>1289.31</ele>
        <time>2021-05-25T15:42:35Z</time>
      </trkpt>
      <trkpt lat="44.06435" lon="3.57202">
        <ele>1289.31</ele>
        <time>2021-05-25T15:42:36Z</time>
      </trkpt>
      <trkpt lat="44.06478" lon="3.57183">
        <ele>1293.19</ele>
        <time>2021-05-25T15:42:41Z</time>
      </trkpt>
      <trkpt lat="44.06507" lon="3.57148">
        <ele>1297.55</ele>
        <time>2021-05-25T15:42:45Z</time>
      </trkpt>
      <trkpt lat="44.06518" lon="3.57125">
        <ele>1298.68</ele>
        <time>2021-05-25T15:42:47Z</time>
      </trkpt>
      <trkpt lat="44.06528" lon="3.57104">
        <ele>1299.68</ele>
        <time>2021-05-25T15:42:49Z</time>
      </trkpt>
      <trkpt lat="44.06579" lon="3.57069">
        <ele>1299.89</ele>
        <time>2021-05-25T15:43:11Z</time>
      </trkpt>
      <trkpt lat="44.06556" lon="3.57155">
        <ele>1303.48</ele>
        <time>2021-05-25T15:43:20Z</time>
      </trkpt>
      <trkpt lat="44.06551" lon="3.57168">
        <ele>1303.49</ele>
        <time>2021-05-25T15:43:21Z</time>
      </trkpt>
      <trkpt lat="44.06521" lon="3.57229">
        <ele>1306.75</ele>
        <time>2021-05-25T15:43:26Z</time>
      </trkpt>
      <trkpt lat="44.06496" lon="3.57283">
        <ele>1310.11</ele>
        <time>2021-05-25T15:43:30Z</time>
      </trkpt>
      <trkpt lat="44.06489" lon="3.57297">
        <ele>1310.18</ele>
        <time>2021-05-25T15:43:31Z</time>
      </trkpt>
      <trkpt lat="44.06445" lon="3.57375">
        <ele>1313.21</ele>
        <time>2021-05-25T15:43:38Z</time>
      </trkpt>
      <trkpt lat="44.06438" lon="3.57385">
        <ele>1313.21</ele>
        <time>2021-05-25T15:43:39Z</time>
      </trkpt>
      <trkpt lat="44.06377" lon="3.57488">
        <ele>1317.3</ele>
        <time>2021-05-25T15:43:48Z</time>
      </trkpt>
      <trkpt lat="44.06359" lon="3.57525">
        <ele>1318.56</ele>
        <time>2021-05-25T15:43:51Z</time>
      </trkpt>
      <trkpt lat="44.06339" lon="3.57568">
        <ele>1319.33</ele>
        <time>2021-05-25T15:43:55Z</time>
      </trkpt>
      <trkpt lat="44.06311" lon="3.57657">
        <ele>1321.68</ele>
        <time>2021-05-25T15:44:05Z</time>
      </trkpt>
      <trkpt lat="44.06288" lon="3.57728">
        <ele>1325.13</ele>
        <time>2021-05-25T15:44:15Z</time>
      </trkpt>
      <trkpt lat="44.06285" lon="3.57735">
        <ele>1325.15</ele>
        <time>2021-05-25T15:44:16Z</time>
      </trkpt>
      <trkpt lat="44.06252" lon="3.5783">
        <ele>1330.17</ele>
        <time>2021-05-25T15:44:25Z</time>
      </trkpt>
      <trkpt lat="44.06231" lon="3.57912">
        <ele>1334.46</ele>
        <time>2021-05-25T15:44:31Z</time>
      </trkpt>
      <trkpt lat="44.06298" lon="3.58102">
        <ele>1336.07</ele>
        <time>2021-05-25T15:44:55Z</time>
      </trkpt>
      <trkpt lat="44.06389" lon="3.58412">
        <ele>1343.12</ele>
        <time>2021-05-25T15:45:23Z</time>
      </trkpt>
      <trkpt lat="44.06492" lon="3.58509">
        <ele>1348.6</ele>
        <time>2021-05-25T15:45:36Z</time>
      </trkpt>
      <trkpt lat="44.06537" lon="3.58533">
        <ele>1352</ele>
        <time>2021-05-25T15:45:42Z</time>
      </trkpt>
      <trkpt lat="44.06543" lon="3.58539">
        <ele>1352.03</ele>
        <time>2021-05-25T15:45:43Z</time>
      </trkpt>
      <trkpt lat="44.06524" lon="3.58653">
        <ele>1349.15</ele>
        <time>2021-05-25T15:46:02Z</time>
      </trkpt>
      <trkpt lat="44.06499" lon="3.58686">
        <ele>1345.6</ele>
        <time>2021-05-25T15:46:08Z</time>
      </trkpt>
      <trkpt lat="44.0647" lon="3.58719">
        <ele>1342.95</ele>
        <time>2021-05-25T15:46:13Z</time>
      </trkpt>
      <trkpt lat="44.06446" lon="3.58744">
        <ele>1338.99</ele>
        <time>2021-05-25T15:46:17Z</time>
      </trkpt>
      <trkpt lat="44.06413" lon="3.58776">
        <ele>1335.27</ele>
        <time>2021-05-25T15:46:26Z</time>
      </trkpt>
      <trkpt lat="44.06407" lon="3.58782">
        <ele>1335.26</ele>
        <time>2021-05-25T15:46:27Z</time>
      </trkpt>
      <trkpt lat="44.06392" lon="3.58847">
        <ele>1330.98</ele>
        <time>2021-05-25T15:46:35Z</time>
      </trkpt>
      <trkpt lat="44.06398" lon="3.58869">
        <ele>1329.18</ele>
        <time>2021-05-25T15:46:38Z</time>
      </trkpt>
      <trkpt lat="44.06431" lon="3.58907">
        <ele>1325.28</ele>
        <time>2021-05-25T15:46:44Z</time>
      </trkpt>
      <trkpt lat="44.06437" lon="3.58912">
        <ele>1325.27</ele>
        <time>2021-05-25T15:46:45Z</time>
      </trkpt>
      <trkpt lat="44.06472" lon="3.58926">
        <ele>1321.27</ele>
        <time>2021-05-25T15:46:50Z</time>
      </trkpt>
      <trkpt lat="44.06522" lon="3.5896">
        <ele>1318.62</ele>
        <time>2021-05-25T15:47:04Z</time>
      </trkpt>
      <trkpt lat="44.06535" lon="3.58969">
        <ele>1318.63</ele>
        <time>2021-05-25T15:47:06Z</time>
      </trkpt>
      <trkpt lat="44.0664" lon="3.59362">
        <ele>1318.45</ele>
        <time>2021-05-25T15:47:47Z</time>
      </trkpt>
      <trkpt lat="44.06744" lon="3.59575">
        <ele>1321.64</ele>
        <time>2021-05-25T15:48:30Z</time>
      </trkpt>
      <trkpt lat="44.06757" lon="3.59539">
        <ele>1325.35</ele>
        <time>2021-05-25T15:48:33Z</time>
      </trkpt>
      <trkpt lat="44.06771" lon="3.59492">
        <ele>1328.49</ele>
        <time>2021-05-25T15:48:36Z</time>
      </trkpt>
      <trkpt lat="44.06776" lon="3.59417">
        <ele>1333.39</ele>
        <time>2021-05-25T15:48:40Z</time>
      </trkpt>
      <trkpt lat="44.06774" lon="3.59396">
        <ele>1334.9</ele>
        <time>2021-05-25T15:48:41Z</time>
      </trkpt>
      <trkpt lat="44.0677" lon="3.59375">
        <ele>1334.92</ele>
        <time>2021-05-25T15:48:42Z</time>
      </trkpt>
      <trkpt lat="44.06766" lon="3.59332">
        <ele>1337.91</ele>
        <time>2021-05-25T15:48:44Z</time>
      </trkpt>
      <trkpt lat="44.06768" lon="3.59288">
        <ele>1343.48</ele>
        <time>2021-05-25T15:48:46Z</time>
      </trkpt>
      <trkpt lat="44.06776" lon="3.59246">
        <ele>1346.93</ele>
        <time>2021-05-25T15:48:48Z</time>
      </trkpt>
      <trkpt lat="44.06787" lon="3.59212">
        <ele>1348.31</ele>
        <time>2021-05-25T15:48:50Z</time>
      </trkpt>
      <trkpt lat="44.06803" lon="3.59171">
        <ele>1348.15</ele>
        <time>2021-05-25T15:48:54Z</time>
      </trkpt>
      <trkpt lat="44.06824" lon="3.59146">
        <ele>1344.99</ele>
        <time>2021-05-25T15:48:58Z</time>
      </trkpt>
      <trkpt lat="44.06828" lon="3.59141">
        <ele>1342.1</ele>
        <time>2021-05-25T15:48:59Z</time>
      </trkpt>
      <trkpt lat="44.0685" lon="3.59124">
        <ele>1336.2</ele>
        <time>2021-05-25T15:49:04Z</time>
      </trkpt>
      <trkpt lat="44.06864" lon="3.59113">
        <ele>1332.38</ele>
        <time>2021-05-25T15:49:07Z</time>
      </trkpt>
      <trkpt lat="44.0687" lon="3.59109">
        <ele>1332.33</ele>
        <time>2021-05-25T15:49:08Z</time>
      </trkpt>
      <trkpt lat="44.06882" lon="3.59099">
        <ele>1331.29</ele>
        <time>2021-05-25T15:49:10Z</time>
      </trkpt>
      <trkpt lat="44.06923" lon="3.59052">
        <ele>1326.16</ele>
        <time>2021-05-25T15:49:15Z</time>
      </trkpt>
      <trkpt lat="44.06942" lon="3.59034">
        <ele>1322.82</ele>
        <time>2021-05-25T15:49:17Z</time>
      </trkpt>
      <trkpt lat="44.06975" lon="3.59007">
        <ele>1318.29</ele>
        <time>2021-05-25T15:49:20Z</time>
      </trkpt>
      <trkpt lat="44.07" lon="3.58994">
        <ele>1314.52</ele>
        <time>2021-05-25T15:49:22Z</time>
      </trkpt>
      <trkpt lat="44.07027" lon="3.58984">
        <ele>1311.12</ele>
        <time>2021-05-25T15:49:24Z</time>
      </trkpt>
      <trkpt lat="44.07053" lon="3.58969">
        <ele>1307.6</ele>
        <time>2021-05-25T15:49:26Z</time>
      </trkpt>
      <trkpt lat="44.07084" lon="3.58931">
        <ele>1303.98</ele>
        <time>2021-05-25T15:49:29Z</time>
      </trkpt>
      <trkpt lat="44.07102" lon="3.589">
        <ele>1299.35</ele>
        <time>2021-05-25T15:49:31Z</time>
      </trkpt>
      <trkpt lat="44.07117" lon="3.58866">
        <ele>1295.17</ele>
        <time>2021-05-25T15:49:33Z</time>
      </trkpt>
      <trkpt lat="44.07131" lon="3.5883">
        <ele>1291.4</ele>
        <time>2021-05-25T15:49:35Z</time>
      </trkpt>
      <trkpt lat="44.07145" lon="3.58795">
        <ele>1287.99</ele>
        <time>2021-05-25T15:49:37Z</time>
      </trkpt>
      <trkpt lat="44.07179" lon="3.58733">
        <ele>1281.77</ele>
        <time>2021-05-25T15:49:41Z</time>
      </trkpt>
      <trkpt lat="44.07267" lon="3.58606">
        <ele>1277.05</ele>
        <time>2021-05-25T15:49:49Z</time>
      </trkpt>
      <trkpt lat="44.07333" lon="3.58514">
        <ele>1273.21</ele>
        <time>2021-05-25T15:49:55Z</time>
      </trkpt>
      <trkpt lat="44.0737" lon="3.58471">
        <ele>1272.42</ele>
        <time>2021-05-25T15:49:58Z</time>
      </trkpt>
      <trkpt lat="44.07463" lon="3.58286">
        <ele>1268.66</ele>
        <time>2021-05-25T15:50:07Z</time>
      </trkpt>
      <trkpt lat="44.0749" lon="3.58228">
        <ele>1264.35</ele>
        <time>2021-05-25T15:50:10Z</time>
      </trkpt>
      <trkpt lat="44.07511" lon="3.58193">
        <ele>1261.18</ele>
        <time>2021-05-25T15:50:12Z</time>
      </trkpt>
      <trkpt lat="44.0755" lon="3.58149">
        <ele>1257.01</ele>
        <time>2021-05-25T15:50:15Z</time>
      </trkpt>
      <trkpt lat="44.07576" lon="3.58118">
        <ele>1252.91</ele>
        <time>2021-05-25T15:50:17Z</time>
      </trkpt>
      <trkpt lat="44.07619" lon="3.58038">
        <ele>1246.26</ele>
        <time>2021-05-25T15:50:21Z</time>
      </trkpt>
      <trkpt lat="44.0765" lon="3.57978">
        <ele>1242.66</ele>
        <time>2021-05-25T15:50:24Z</time>
      </trkpt>
      <trkpt lat="44.07681" lon="3.57917">
        <ele>1239.2</ele>
        <time>2021-05-25T15:50:27Z</time>
      </trkpt>
      <trkpt lat="44.07692" lon="3.57897">
        <ele>1239.23</ele>
        <time>2021-05-25T15:50:28Z</time>
      </trkpt>
      <trkpt lat="44.07711" lon="3.57859">
        <ele>1235.41</ele>
        <time>2021-05-25T15:50:30Z</time>
      </trkpt>
      <trkpt lat="44.07738" lon="3.57804">
        <ele>1231.81</ele>
        <time>2021-05-25T15:50:33Z</time>
      </trkpt>
      <trkpt lat="44.07786" lon="3.57708">
        <ele>1228.16</ele>
        <time>2021-05-25T15:50:38Z</time>
      </trkpt>
      <trkpt lat="44.0799" lon="3.57281">
        <ele>1231.55</ele>
        <time>2021-05-25T15:50:57Z</time>
      </trkpt>
      <trkpt lat="44.08052" lon="3.5714">
        <ele>1227.99</ele>
        <time>2021-05-25T15:51:03Z</time>
      </trkpt>
      <trkpt lat="44.0816" lon="3.57001">
        <ele>1226.75</ele>
        <time>2021-05-25T15:51:11Z</time>
      </trkpt>
      <trkpt lat="44.08276" lon="3.56857">
        <ele>1231.03</ele>
        <time>2021-05-25T15:51:19Z</time>
      </trkpt>
      <trkpt lat="44.08329" lon="3.5676">
        <ele>1235.04</ele>
        <time>2021-05-25T15:51:24Z</time>
      </trkpt>
      <trkpt lat="44.08327" lon="3.56596">
        <ele>1227.29</ele>
        <time>2021-05-25T15:51:32Z</time>
      </trkpt>
      <trkpt lat="44.0831" lon="3.56528">
        <ele>1222.67</ele>
        <time>2021-05-25T15:51:35Z</time>
      </trkpt>
      <trkpt lat="44.0831" lon="3.5644">
        <ele>1219.55</ele>
        <time>2021-05-25T15:51:39Z</time>
      </trkpt>
      <trkpt lat="44.08334" lon="3.5633">
        <ele>1215.04</ele>
        <time>2021-05-25T15:51:45Z</time>
      </trkpt>
      <trkpt lat="44.08337" lon="3.56322">
        <ele>1215.11</ele>
        <time>2021-05-25T15:51:46Z</time>
      </trkpt>
      <trkpt lat="44.08389" lon="3.56303">
        <ele>1218.94</ele>
        <time>2021-05-25T15:51:54Z</time>
      </trkpt>
      <trkpt lat="44.08452" lon="3.56278">
        <ele>1224.14</ele>
        <time>2021-05-25T15:51:59Z</time>
      </trkpt>
      <trkpt lat="44.08481" lon="3.56261">
        <ele>1225.6</ele>
        <time>2021-05-25T15:52:01Z</time>
      </trkpt>
      <trkpt lat="44.08719" lon="3.56136">
        <ele>1231.03</ele>
        <time>2021-05-25T15:52:17Z</time>
      </trkpt>
      <trkpt lat="44.08734" lon="3.56123">
        <ele>1231.1</ele>
        <time>2021-05-25T15:52:18Z</time>
      </trkpt>
      <trkpt lat="44.0893" lon="3.55758">
        <ele>1228.05</ele>
        <time>2021-05-25T15:52:35Z</time>
      </trkpt>
      <trkpt lat="44.09037" lon="3.55236">
        <ele>1232.18</ele>
        <time>2021-05-25T15:52:58Z</time>
      </trkpt>
      <trkpt lat="44.09106" lon="3.55114">
        <ele>1237.25</ele>
        <time>2021-05-25T15:53:07Z</time>
      </trkpt>
      <trkpt lat="44.09223" lon="3.54928">
        <ele>1230.48</ele>
        <time>2021-05-25T15:53:21Z</time>
      </trkpt>
      <trkpt lat="44.09235" lon="3.54879">
        <ele>1225.87</ele>
        <time>2021-05-25T15:53:24Z</time>
      </trkpt>
      <trkpt lat="44.09236" lon="3.54847">
        <ele>1222.31</ele>
        <time>2021-05-25T15:53:26Z</time>
      </trkpt>
      <trkpt lat="44.09233" lon="3.54817">
        <ele>1218.4</ele>
        <time>2021-05-25T15:53:28Z</time>
      </trkpt>
      <trkpt lat="44.09231" lon="3.54803">
        <ele>1218.51</ele>
        <time>2021-05-25T15:53:29Z</time>
      </trkpt>
      <trkpt lat="44.09228" lon="3.54775">
        <ele>1217.08</ele>
        <time>2021-05-25T15:53:31Z</time>
      </trkpt>
      <trkpt lat="44.09227" lon="3.54761">
        <ele>1217.08</ele>
        <time>2021-05-25T15:53:32Z</time>
      </trkpt>
      <trkpt lat="44.09238" lon="3.54714">
        <ele>1210.62</ele>
        <time>2021-05-26T07:21:51Z</time>
      </trkpt>
      <trkpt lat="44.0926" lon="3.54629">
        <ele>1212.67</ele>
        <time>2021-05-26T07:22:03Z</time>
      </trkpt>
      <trkpt lat="44.09269" lon="3.546">
        <ele>1215.71</ele>
        <time>2021-05-26T07:22:06Z</time>
      </trkpt>
      <trkpt lat="44.09271" lon="3.5459">
        <ele>1215.81</ele>
        <time>2021-05-26T07:22:07Z</time>
      </trkpt>
      <trkpt lat="44.09273" lon="3.5455">
        <ele>1219.73</ele>
        <time>2021-05-26T07:22:11Z</time>
      </trkpt>
      <trkpt lat="44.09296" lon="3.5452">
        <ele>1227.42</ele>
        <time>2021-05-26T07:22:18Z</time>
      </trkpt>
      <trkpt lat="44.09318" lon="3.54513">
        <ele>1231.19</ele>
        <time>2021-05-26T07:22:21Z</time>
      </trkpt>
      <trkpt lat="44.09357" lon="3.54467">
        <ele>1238.16</ele>
        <time>2021-05-26T07:22:27Z</time>
      </trkpt>
      <trkpt lat="44.09364" lon="3.54439">
        <ele>1239.87</ele>
        <time>2021-05-26T07:22:29Z</time>
      </trkpt>
      <trkpt lat="44.0937" lon="3.54415">
        <ele>1241.26</ele>
        <time>2021-05-26T07:22:31Z</time>
      </trkpt>
      <trkpt lat="44.09374" lon="3.54376">
        <ele>1244.92</ele>
        <time>2021-05-26T07:22:34Z</time>
      </trkpt>
      <trkpt lat="44.09377" lon="3.54363">
        <ele>1245.04</ele>
        <time>2021-05-26T07:22:35Z</time>
      </trkpt>
      <trkpt lat="44.09382" lon="3.54324">
        <ele>1249.36</ele>
        <time>2021-05-26T07:22:38Z</time>
      </trkpt>
      <trkpt lat="44.09384" lon="3.54287">
        <ele>1252.67</ele>
        <time>2021-05-26T07:22:41Z</time>
      </trkpt>
      <trkpt lat="44.09385" lon="3.54277">
        <ele>1252.79</ele>
        <time>2021-05-26T07:22:42Z</time>
      </trkpt>
      <trkpt lat="44.09415" lon="3.54241">
        <ele>1259</ele>
        <time>2021-05-26T07:22:48Z</time>
      </trkpt>
      <trkpt lat="44.09428" lon="3.54226">
        <ele>1262.51</ele>
        <time>2021-05-26T07:22:52Z</time>
      </trkpt>
      <trkpt lat="44.09448" lon="3.5421">
        <ele>1268.86</ele>
        <time>2021-05-26T07:22:59Z</time>
      </trkpt>
      <trkpt lat="44.09456" lon="3.54201">
        <ele>1271.86</ele>
        <time>2021-05-26T07:23:01Z</time>
      </trkpt>
      <trkpt lat="44.09466" lon="3.54188">
        <ele>1276.41</ele>
        <time>2021-05-26T07:23:04Z</time>
      </trkpt>
      <trkpt lat="44.09474" lon="3.54179">
        <ele>1280.5</ele>
        <time>2021-05-26T07:23:07Z</time>
      </trkpt>
      <trkpt lat="44.09484" lon="3.54169">
        <ele>1283.71</ele>
        <time>2021-05-26T07:23:10Z</time>
      </trkpt>
      <trkpt lat="44.09495" lon="3.54156">
        <ele>1288.28</ele>
        <time>2021-05-26T07:23:13Z</time>
      </trkpt>
      <trkpt lat="44.09498" lon="3.54152">
        <ele>1288.42</ele>
        <time>2021-05-26T07:23:14Z</time>
      </trkpt>
      <trkpt lat="44.09507" lon="3.54141">
        <ele>1289.11</ele>
        <time>2021-05-26T07:24:12Z</time>
      </trkpt>
      <trkpt lat="44.09522" lon="3.54101">
        <ele>1294.42</ele>
        <time>2021-05-26T07:24:25Z</time>
      </trkpt>
      <trkpt lat="44.09532" lon="3.54078">
        <ele>1297.82</ele>
        <time>2021-05-26T07:24:28Z</time>
      </trkpt>
      <trkpt lat="44.09552" lon="3.54044">
        <ele>1305.14</ele>
        <time>2021-05-26T07:24:32Z</time>
      </trkpt>
      <trkpt lat="44.09563" lon="3.54026">
        <ele>1308.84</ele>
        <time>2021-05-26T07:24:34Z</time>
      </trkpt>
      <trkpt lat="44.09581" lon="3.53995">
        <ele>1313.41</ele>
        <time>2021-05-26T07:24:37Z</time>
      </trkpt>
      <trkpt lat="44.09585" lon="3.53987">
        <ele>1313.51</ele>
        <time>2021-05-26T07:24:38Z</time>
      </trkpt>
      <trkpt lat="44.09616" lon="3.53974">
        <ele>1316.78</ele>
        <time>2021-05-26T07:24:43Z</time>
      </trkpt>
      <trkpt lat="44.09773" lon="3.54026">
        <ele>1317</ele>
        <time>2021-05-26T07:26:56Z</time>
      </trkpt>
      <trkpt lat="44.09821" lon="3.54062">
        <ele>1321.79</ele>
        <time>2021-05-26T07:27:01Z</time>
      </trkpt>
      <trkpt lat="44.0988" lon="3.54101">
        <ele>1325.37</ele>
        <time>2021-05-26T07:27:06Z</time>
      </trkpt>
      <trkpt lat="44.09892" lon="3.54108">
        <ele>1325.48</ele>
        <time>2021-05-26T07:27:07Z</time>
      </trkpt>
      <trkpt lat="44.09971" lon="3.54145">
        <ele>1325.58</ele>
        <time>2021-05-26T07:27:14Z</time>
      </trkpt>
      <trkpt lat="44.10023" lon="3.54154">
        <ele>1321.93</ele>
        <time>2021-05-26T07:27:18Z</time>
      </trkpt>
      <trkpt lat="44.10034" lon="3.54153">
        <ele>1321.92</ele>
        <time>2021-05-26T07:27:19Z</time>
      </trkpt>
      <trkpt lat="44.1015" lon="3.5411">
        <ele>1315.05</ele>
        <time>2021-05-26T07:27:31Z</time>
      </trkpt>
      <trkpt lat="44.10172" lon="3.54107">
        <ele>1311.4</ele>
        <time>2021-05-26T07:27:35Z</time>
      </trkpt>
      <trkpt lat="44.10178" lon="3.54107">
        <ele>1310.43</ele>
        <time>2021-05-26T07:27:36Z</time>
      </trkpt>
      <trkpt lat="44.10183" lon="3.54108">
        <ele>1310.38</ele>
        <time>2021-05-26T07:27:37Z</time>
      </trkpt>
      <trkpt lat="44.10207" lon="3.5411">
        <ele>1306.51</ele>
        <time>2021-05-26T07:27:45Z</time>
      </trkpt>
      <trkpt lat="44.1021" lon="3.54111">
        <ele>1306.44</ele>
        <time>2021-05-26T07:27:46Z</time>
      </trkpt>
      <trkpt lat="44.10228" lon="3.54111">
        <ele>1302.69</ele>
        <time>2021-05-26T07:27:52Z</time>
      </trkpt>
      <trkpt lat="44.1025" lon="3.54112">
        <ele>1298.37</ele>
        <time>2021-05-26T07:27:59Z</time>
      </trkpt>
      <trkpt lat="44.10274" lon="3.54111">
        <ele>1293.86</ele>
        <time>2021-05-26T07:28:06Z</time>
      </trkpt>
      <trkpt lat="44.10292" lon="3.54109">
        <ele>1290.78</ele>
        <time>2021-05-26T07:28:12Z</time>
      </trkpt>
      <trkpt lat="44.10298" lon="3.54111">
        <ele>1290.04</ele>
        <time>2021-05-26T07:28:14Z</time>
      </trkpt>
      <trkpt lat="44.10307" lon="3.54149">
        <ele>1289.74</ele>
        <time>2021-05-26T07:28:23Z</time>
      </trkpt>
      <trkpt lat="44.10369" lon="3.54272">
        <ele>1293.72</ele>
        <time>2021-05-26T07:28:45Z</time>
      </trkpt>
      <trkpt lat="44.10364" lon="3.54261">
        <ele>1293.69</ele>
        <time>2021-05-26T07:28:46Z</time>
      </trkpt>
      <trkpt lat="44.10313" lon="3.54108">
        <ele>1289.49</ele>
        <time>2021-05-26T07:29:53Z</time>
      </trkpt>
      <trkpt lat="44.10305" lon="3.54124">
        <ele>1289.51</ele>
        <time>2021-05-26T07:30:03Z</time>
      </trkpt>
      <trkpt lat="44.10352" lon="3.54223">
        <ele>1292.51</ele>
        <time>2021-05-26T07:30:13Z</time>
      </trkpt>
      <trkpt lat="44.10376" lon="3.54296">
        <ele>1296.43</ele>
        <time>2021-05-26T07:30:17Z</time>
      </trkpt>
      <trkpt lat="44.10397" lon="3.54417">
        <ele>1300.12</ele>
        <time>2021-05-26T07:30:23Z</time>
      </trkpt>
      <trkpt lat="44.104" lon="3.54437">
        <ele>1301.11</ele>
        <time>2021-05-26T07:30:24Z</time>
      </trkpt>
      <trkpt lat="44.10404" lon="3.54454">
        <ele>1301.11</ele>
        <time>2021-05-26T07:30:25Z</time>
      </trkpt>
      <trkpt lat="44.10485" lon="3.54571">
        <ele>1309.43</ele>
        <time>2021-05-26T07:30:33Z</time>
      </trkpt>
      <trkpt lat="44.10535" lon="3.54639">
        <ele>1312.45</ele>
        <time>2021-05-26T07:30:37Z</time>
      </trkpt>
      <trkpt lat="44.10607" lon="3.54808">
        <ele>1317.28</ele>
        <time>2021-05-26T07:30:53Z</time>
      </trkpt>
      <trkpt lat="44.10616" lon="3.54801">
        <ele>1317.22</ele>
        <time>2021-05-26T07:30:54Z</time>
      </trkpt>
      <trkpt lat="44.10669" lon="3.54727">
        <ele>1324.51</ele>
        <time>2021-05-26T07:31:00Z</time>
      </trkpt>
      <trkpt lat="44.10782" lon="3.54617">
        <ele>1329.46</ele>
        <time>2021-05-26T07:31:10Z</time>
      </trkpt>
      <trkpt lat="44.10797" lon="3.54615">
        <ele>1329.5</ele>
        <time>2021-05-26T07:31:11Z</time>
      </trkpt>
      <trkpt lat="44.10828" lon="3.54616">
        <ele>1331.95</ele>
        <time>2021-05-26T07:31:13Z</time>
      </trkpt>
      <trkpt lat="44.10907" lon="3.54622">
        <ele>1334.43</ele>
        <time>2021-05-26T07:31:18Z</time>
      </trkpt>
      <trkpt lat="44.11018" lon="3.54724">
        <ele>1342.4</ele>
        <time>2021-05-26T07:31:27Z</time>
      </trkpt>
      <trkpt lat="44.11035" lon="3.54732">
        <ele>1342.45</ele>
        <time>2021-05-26T07:31:28Z</time>
      </trkpt>
      <trkpt lat="44.11162" lon="3.54759">
        <ele>1345.88</ele>
        <time>2021-05-26T07:31:38Z</time>
      </trkpt>
      <trkpt lat="44.11167" lon="3.5479">
        <ele>1347.72</ele>
        <time>2021-05-26T07:31:40Z</time>
      </trkpt>
      <trkpt lat="44.11169" lon="3.54807">
        <ele>1347.73</ele>
        <time>2021-05-26T07:31:41Z</time>
      </trkpt>
      <trkpt lat="44.11181" lon="3.54843">
        <ele>1350.94</ele>
        <time>2021-05-26T07:31:43Z</time>
      </trkpt>
      <trkpt lat="44.11203" lon="3.54877">
        <ele>1354.14</ele>
        <time>2021-05-26T07:31:45Z</time>
      </trkpt>
      <trkpt lat="44.11324" lon="3.54919">
        <ele>1358.99</ele>
        <time>2021-05-26T07:31:52Z</time>
      </trkpt>
      <trkpt lat="44.11341" lon="3.54918">
        <ele>1358.98</ele>
        <time>2021-05-26T07:31:53Z</time>
      </trkpt>
      <trkpt lat="44.1137" lon="3.54912">
        <ele>1358.98</ele>
        <time>2021-05-26T07:31:55Z</time>
      </trkpt>
      <trkpt lat="44.11383" lon="3.5491">
        <ele>1359.09</ele>
        <time>2021-05-26T07:31:56Z</time>
      </trkpt>
      <trkpt lat="44.11452" lon="3.54983">
        <ele>1362.42</ele>
        <time>2021-05-26T07:32:03Z</time>
      </trkpt>
      <trkpt lat="44.11466" lon="3.5499">
        <ele>1362.35</ele>
        <time>2021-05-26T07:32:04Z</time>
      </trkpt>
      <trkpt lat="44.11521" lon="3.55042">
        <ele>1366.47</ele>
        <time>2021-05-26T07:32:15Z</time>
      </trkpt>
      <trkpt lat="44.11477" lon="3.55102">
        <ele>1372.24</ele>
        <time>2021-05-26T07:32:19Z</time>
      </trkpt>
      <trkpt lat="44.11465" lon="3.55116">
        <ele>1372.22</ele>
        <time>2021-05-26T07:32:20Z</time>
      </trkpt>
      <trkpt lat="44.11442" lon="3.55143">
        <ele>1372.49</ele>
        <time>2021-05-26T07:32:22Z</time>
      </trkpt>
      <trkpt lat="44.11421" lon="3.55219">
        <ele>1375.68</ele>
        <time>2021-05-26T07:32:26Z</time>
      </trkpt>
      <trkpt lat="44.11466" lon="3.5531">
        <ele>1380.02</ele>
        <time>2021-05-26T07:32:32Z</time>
      </trkpt>
      <trkpt lat="44.11521" lon="3.55346">
        <ele>1383.31</ele>
        <time>2021-05-26T07:32:36Z</time>
      </trkpt>
      <trkpt lat="44.11553" lon="3.55378">
        <ele>1383.33</ele>
        <time>2021-05-26T07:32:39Z</time>
      </trkpt>
      <trkpt lat="44.11576" lon="3.55419">
        <ele>1383.89</ele>
        <time>2021-05-26T07:33:00Z</time>
      </trkpt>
      <trkpt lat="44.11571" lon="3.55346">
        <ele>1388.96</ele>
        <time>2021-05-26T07:33:11Z</time>
      </trkpt>
      <trkpt lat="44.11542" lon="3.55226">
        <ele>1393.35</ele>
        <time>2021-05-26T07:33:19Z</time>
      </trkpt>
      <trkpt lat="44.11593" lon="3.55149">
        <ele>1399.9</ele>
        <time>2021-05-26T07:33:26Z</time>
      </trkpt>
      <trkpt lat="44.11601" lon="3.55144">
        <ele>1399.9</ele>
        <time>2021-05-26T07:33:27Z</time>
      </trkpt>
      <trkpt lat="44.11659" lon="3.55161">
        <ele>1403.83</ele>
        <time>2021-05-26T07:33:35Z</time>
      </trkpt>
      <trkpt lat="44.11662" lon="3.5517">
        <ele>1403.82</ele>
        <time>2021-05-26T07:33:36Z</time>
      </trkpt>
      <trkpt lat="44.11663" lon="3.55181">
        <ele>1405.23</ele>
        <time>2021-05-26T07:33:37Z</time>
      </trkpt>
      <trkpt lat="44.11665" lon="3.55192">
        <ele>1405.3</ele>
        <time>2021-05-26T07:33:38Z</time>
      </trkpt>
      <trkpt lat="44.1168" lon="3.55305">
        <ele>1401.72</ele>
        <time>2021-05-26T07:33:46Z</time>
      </trkpt>
      <trkpt lat="44.11739" lon="3.5548">
        <ele>1403.7</ele>
        <time>2021-05-26T07:34:25Z</time>
      </trkpt>
      <trkpt lat="44.11779" lon="3.55573">
        <ele>1409.31</ele>
        <time>2021-05-26T07:34:31Z</time>
      </trkpt>
      <trkpt lat="44.11787" lon="3.55593">
        <ele>1409.32</ele>
        <time>2021-05-26T07:34:32Z</time>
      </trkpt>
      <trkpt lat="44.1183" lon="3.55686">
        <ele>1412.39</ele>
        <time>2021-05-26T07:34:37Z</time>
      </trkpt>
      <trkpt lat="44.11839" lon="3.55703">
        <ele>1412.41</ele>
        <time>2021-05-26T07:34:38Z</time>
      </trkpt>
      <trkpt lat="44.11867" lon="3.55757">
        <ele>1415.79</ele>
        <time>2021-05-26T07:34:41Z</time>
      </trkpt>
      <trkpt lat="44.11877" lon="3.55775">
        <ele>1415.82</ele>
        <time>2021-05-26T07:34:42Z</time>
      </trkpt>
      <trkpt lat="44.11952" lon="3.55874">
        <ele>1422.51</ele>
        <time>2021-05-26T07:34:52Z</time>
      </trkpt>
      <trkpt lat="44.12018" lon="3.55929">
        <ele>1426.44</ele>
        <time>2021-05-26T07:34:55Z</time>
      </trkpt>
      <trkpt lat="44.12068" lon="3.55961">
        <ele>1430.69</ele>
        <time>2021-05-26T07:34:58Z</time>
      </trkpt>
      <trkpt lat="44.12151" lon="3.5595">
        <ele>1433.8</ele>
        <time>2021-05-26T07:35:00Z</time>
      </trkpt>
      <trkpt lat="44.12186" lon="3.55975">
        <ele>1436.85</ele>
        <time>2021-05-26T07:35:02Z</time>
      </trkpt>
      <trkpt lat="44.1222" lon="3.56026">
        <ele>1438.89</ele>
        <time>2021-05-26T07:35:04Z</time>
      </trkpt>
      <trkpt lat="44.12336" lon="3.5607">
        <ele>1443.13</ele>
        <time>2021-05-26T07:35:09Z</time>
      </trkpt>
      <trkpt lat="44.12417" lon="3.56072">
        <ele>1449.39</ele>
        <time>2021-05-26T07:35:20Z</time>
      </trkpt>
      <trkpt lat="44.12457" lon="3.5609">
        <ele>1449.42</ele>
        <time>2021-05-26T07:35:21Z</time>
      </trkpt>
      <trkpt lat="44.12483" lon="3.5616">
        <ele>1457.58</ele>
        <time>2021-05-26T07:35:32Z</time>
      </trkpt>
      <trkpt lat="44.12459" lon="3.56346">
        <ele>1462.42</ele>
        <time>2021-05-26T07:35:35Z</time>
      </trkpt>
      <trkpt lat="44.12456" lon="3.565">
        <ele>1465.89</ele>
        <time>2021-05-26T07:35:38Z</time>
      </trkpt>
      <trkpt lat="44.12422" lon="3.56691">
        <ele>1471.19</ele>
        <time>2021-05-26T07:35:42Z</time>
      </trkpt>
      <trkpt lat="44.12397" lon="3.56814">
        <ele>1475.67</ele>
        <time>2021-05-26T07:35:45Z</time>
      </trkpt>
      <trkpt lat="44.12414" lon="3.56839">
        <ele>1482.72</ele>
        <time>2021-05-26T07:35:56Z</time>
      </trkpt>
      <trkpt lat="44.12509" lon="3.56829">
        <ele>1483.44</ele>
        <time>2021-05-26T07:36:13Z</time>
      </trkpt>
      <trkpt lat="44.12619" lon="3.56873">
        <ele>1487.49</ele>
        <time>2021-05-26T07:36:28Z</time>
      </trkpt>
      <trkpt lat="44.12654" lon="3.56928">
        <ele>1487.54</ele>
        <time>2021-05-26T07:36:29Z</time>
      </trkpt>
      <trkpt lat="44.12529" lon="3.56959">
        <ele>1491.24</ele>
        <time>2021-05-26T07:36:38Z</time>
      </trkpt>
      <trkpt lat="44.12413" lon="3.56989">
        <ele>1491.25</ele>
        <time>2021-05-26T07:36:39Z</time>
      </trkpt>
      <trkpt lat="44.12313" lon="3.5703">
        <ele>1496.14</ele>
        <time>2021-05-26T07:37:00Z</time>
      </trkpt>
      <trkpt lat="44.12269" lon="3.57008">
        <ele>1498.29</ele>
        <time>2021-05-26T07:37:16Z</time>
      </trkpt>
      <trkpt lat="44.12241" lon="3.57004">
        <ele>1536.77</ele>
        <time>2021-05-26T07:39:28Z</time>
      </trkpt>
      <trkpt lat="44.12216" lon="3.57055">
        <ele>1544.56</ele>
        <time>2021-05-26T07:40:32Z</time>
      </trkpt>
      <trkpt lat="44.12182" lon="3.57191">
        <ele>1543.3</ele>
        <time>2021-05-26T07:42:40Z</time>
      </trkpt>
      <trkpt lat="44.12166" lon="3.57258">
        <ele>1545.44</ele>
        <time>2021-05-26T07:42:44Z</time>
      </trkpt>
      <trkpt lat="44.12159" lon="3.57413">
        <ele>1549.83</ele>
        <time>2021-05-26T07:42:57Z</time>
      </trkpt>
      <trkpt lat="44.12148" lon="3.57723">
        <ele>1553.19</ele>
        <time>2021-05-26T07:43:22Z</time>
      </trkpt>
      <trkpt lat="44.12144" lon="3.57733">
        <ele>1549.87</ele>
        <time>2021-05-26T07:43:23Z</time>
      </trkpt>
      <trkpt lat="44.1214" lon="3.57743">
        <ele>1553.47</ele>
        <time>2021-05-26T07:43:24Z</time>
      </trkpt>
      <trkpt lat="44.12132" lon="3.57762">
        <ele>1553.4</ele>
        <time>2021-05-26T07:43:26Z</time>
      </trkpt>
      <trkpt lat="44.12129" lon="3.57944">
        <ele>1552.31</ele>
        <time>2021-05-26T07:45:00Z</time>
      </trkpt>
      <trkpt lat="44.12131" lon="3.57946">
        <ele>1548.77</ele>
        <time>2021-05-26T07:53:22Z</time>
      </trkpt>
      <trkpt lat="44.12131" lon="3.57946">
        <ele>1555.52</ele>
        <time>2021-05-26T07:53:23Z</time>
      </trkpt>
      <trkpt lat="44.12131" lon="3.57946">
        <ele>1551.32</ele>
        <time>2021-05-26T07:53:24Z</time>
      </trkpt>
      <trkpt lat="44.12131" lon="3.57946">
        <ele>1556.56</ele>
        <time>2021-05-26T07:53:34Z</time>
      </trkpt>
      <trkpt lat="44.12131" lon="3.57946">
        <ele>1553.48</ele>
        <time>2021-05-26T07:53:35Z</time>
      </trkpt>
      <trkpt lat="44.12128" lon="3.57945">
        <ele>1552.24</ele>
        <time>2021-05-26T07:54:53Z</time>
      </trkpt>
      <trkpt lat="44.12139" lon="3.57755">
        <ele>1556.92</ele>
        <time>2021-05-26T07:55:14Z</time>
      </trkpt>
      <trkpt lat="44.12144" lon="3.57744">
        <ele>1556.92</ele>
        <time>2021-05-26T07:55:15Z</time>
      </trkpt>
      <trkpt lat="44.12153" lon="3.57722">
        <ele>1556.88</ele>
        <time>2021-05-26T07:55:17Z</time>
      </trkpt>
      <trkpt lat="44.12169" lon="3.57254">
        <ele>1553.52</ele>
        <time>2021-05-26T07:55:42Z</time>
      </trkpt>
      <trkpt lat="44.12172" lon="3.57233">
        <ele>1553.52</ele>
        <time>2021-05-26T07:55:43Z</time>
      </trkpt>
      <trkpt lat="44.12233" lon="3.57016">
        <ele>1546.66</ele>
        <time>2021-05-26T07:55:54Z</time>
      </trkpt>
      <trkpt lat="44.12262" lon="3.56996">
        <ele>1542.56</ele>
        <time>2021-05-26T07:55:57Z</time>
      </trkpt>
      <trkpt lat="44.12272" lon="3.57001">
        <ele>1542.5</ele>
        <time>2021-05-26T07:55:58Z</time>
      </trkpt>
      <trkpt lat="44.12283" lon="3.57009">
        <ele>1542.46</ele>
        <time>2021-05-26T07:55:59Z</time>
      </trkpt>
      <trkpt lat="44.12296" lon="3.57017">
        <ele>1542.49</ele>
        <time>2021-05-26T07:56:00Z</time>
      </trkpt>
      <trkpt lat="44.12369" lon="3.57009">
        <ele>1538.69</ele>
        <time>2021-05-26T07:56:05Z</time>
      </trkpt>
      <trkpt lat="44.12429" lon="3.56982">
        <ele>1534.15</ele>
        <time>2021-05-26T07:56:09Z</time>
      </trkpt>
      <trkpt lat="44.12445" lon="3.56977">
        <ele>1534.14</ele>
        <time>2021-05-26T07:56:10Z</time>
      </trkpt>
      <trkpt lat="44.12478" lon="3.56971">
        <ele>1530.95</ele>
        <time>2021-05-26T07:56:12Z</time>
      </trkpt>
      <trkpt lat="44.1256" lon="3.56947">
        <ele>1523.96</ele>
        <time>2021-05-26T07:56:17Z</time>
      </trkpt>
      <trkpt lat="44.12604" lon="3.56932">
        <ele>1519.91</ele>
        <time>2021-05-26T07:56:20Z</time>
      </trkpt>
      <trkpt lat="44.12619" lon="3.56929">
        <ele>1519.81</ele>
        <time>2021-05-26T07:56:21Z</time>
      </trkpt>
      <trkpt lat="44.12647" lon="3.56929">
        <ele>1516.19</ele>
        <time>2021-05-26T07:56:23Z</time>
      </trkpt>
      <trkpt lat="44.12661" lon="3.56931">
        <ele>1516.2</ele>
        <time>2021-05-26T07:56:24Z</time>
      </trkpt>
      <trkpt lat="44.12688" lon="3.56944">
        <ele>1514.63</ele>
        <time>2021-05-26T07:56:26Z</time>
      </trkpt>
      <trkpt lat="44.12746" lon="3.56974">
        <ele>1511.63</ele>
        <time>2021-05-26T07:56:30Z</time>
      </trkpt>
      <trkpt lat="44.12834" lon="3.56982">
        <ele>1506.88</ele>
        <time>2021-05-26T07:56:35Z</time>
      </trkpt>
      <trkpt lat="44.12851" lon="3.56979">
        <ele>1506.76</ele>
        <time>2021-05-26T07:56:36Z</time>
      </trkpt>
      <trkpt lat="44.12996" lon="3.56907">
        <ele>1500.95</ele>
        <time>2021-05-26T07:56:45Z</time>
      </trkpt>
      <trkpt lat="44.13022" lon="3.56893">
        <ele>1499.07</ele>
        <time>2021-05-26T07:56:47Z</time>
      </trkpt>
      <trkpt lat="44.13034" lon="3.56883">
        <ele>1499.02</ele>
        <time>2021-05-26T07:56:48Z</time>
      </trkpt>
      <trkpt lat="44.13144" lon="3.56519">
        <ele>1498.9375</ele>
      </trkpt>
      <trkpt lat="44.13288" lon="3.56442">
        <ele>1500.09375</ele>
      </trkpt>
      <trkpt lat="44.13415" lon="3.56425">
        <ele>1500.40234375</ele>
      </trkpt>
      <trkpt lat="44.13474" lon="3.56318">
        <ele>1496.96</ele>
        <time>2021-05-26T07:57:32Z</time>
      </trkpt>
      <trkpt lat="44.13555" lon="3.56142">
        <ele>1498.17578125</ele>
      </trkpt>
      <trkpt lat="44.13624" lon="3.56182">
        <ele>1491.44</ele>
        <time>2021-05-26T07:57:50Z</time>
      </trkpt>
      <trkpt lat="44.13611" lon="3.56287">
        <ele>1486.88</ele>
        <time>2021-05-26T07:57:56Z</time>
      </trkpt>
      <trkpt lat="44.13632" lon="3.56372">
        <ele>1482.29</ele>
        <time>2021-05-26T07:58:01Z</time>
      </trkpt>
      <trkpt lat="44.13645" lon="3.56386">
        <ele>1482.3</ele>
        <time>2021-05-26T07:58:02Z</time>
      </trkpt>
      <trkpt lat="44.13708" lon="3.56435">
        <ele>1476.67</ele>
        <time>2021-05-26T07:58:06Z</time>
      </trkpt>
      <trkpt lat="44.13838" lon="3.5645">
        <ele>1469.6</ele>
        <time>2021-05-26T07:58:13Z</time>
      </trkpt>
      <trkpt lat="44.13875" lon="3.56452">
        <ele>1464.33</ele>
        <time>2021-05-26T07:58:15Z</time>
      </trkpt>
      <trkpt lat="44.13912" lon="3.56459">
        <ele>1460.3</ele>
        <time>2021-05-26T07:58:17Z</time>
      </trkpt>
      <trkpt lat="44.13984" lon="3.56482">
        <ele>1454.87</ele>
        <time>2021-05-26T07:58:21Z</time>
      </trkpt>
      <trkpt lat="44.14023" lon="3.56477">
        <ele>1452.96</ele>
        <time>2021-05-26T07:58:23Z</time>
      </trkpt>
      <trkpt lat="44.14043" lon="3.56474">
        <ele>1449.78</ele>
        <time>2021-05-26T07:58:24Z</time>
      </trkpt>
      <trkpt lat="44.14085" lon="3.56472">
        <ele>1445.22</ele>
        <time>2021-05-26T07:58:26Z</time>
      </trkpt>
      <trkpt lat="44.14129" lon="3.5647">
        <ele>1442.2</ele>
        <time>2021-05-26T07:58:28Z</time>
      </trkpt>
      <trkpt lat="44.14175" lon="3.56459">
        <ele>1438.69</ele>
        <time>2021-05-26T07:58:30Z</time>
      </trkpt>
      <trkpt lat="44.14219" lon="3.56443">
        <ele>1434.84</ele>
        <time>2021-05-26T07:58:32Z</time>
      </trkpt>
      <trkpt lat="44.14261" lon="3.56427">
        <ele>1430.08</ele>
        <time>2021-05-26T07:58:34Z</time>
      </trkpt>
      <trkpt lat="44.14302" lon="3.5641">
        <ele>1425.34</ele>
        <time>2021-05-26T07:58:36Z</time>
      </trkpt>
      <trkpt lat="44.14361" lon="3.5638">
        <ele>1421.38</ele>
        <time>2021-05-26T07:58:39Z</time>
      </trkpt>
      <trkpt lat="44.14435" lon="3.56325">
        <ele>1414.76</ele>
        <time>2021-05-26T07:58:43Z</time>
      </trkpt>
      <trkpt lat="44.14488" lon="3.56291">
        <ele>1410.28</ele>
        <time>2021-05-26T07:58:46Z</time>
      </trkpt>
      <trkpt lat="44.14558" lon="3.56221">
        <ele>1406</ele>
        <time>2021-05-26T07:58:51Z</time>
      </trkpt>
      <trkpt lat="44.14588" lon="3.56159">
        <ele>1404.45</ele>
        <time>2021-05-26T07:58:54Z</time>
      </trkpt>
      <trkpt lat="44.14628" lon="3.5607">
        <ele>1400.15</ele>
        <time>2021-05-26T07:58:58Z</time>
      </trkpt>
      <trkpt lat="44.14649" lon="3.56032">
        <ele>1397.52</ele>
        <time>2021-05-26T07:59:00Z</time>
      </trkpt>
      <trkpt lat="44.14684" lon="3.55982">
        <ele>1393.71</ele>
        <time>2021-05-26T07:59:03Z</time>
      </trkpt>
      <trkpt lat="44.14714" lon="3.55867">
        <ele>1390.36</ele>
        <time>2021-05-26T07:59:08Z</time>
      </trkpt>
      <trkpt lat="44.14748" lon="3.55806">
        <ele>1386.43</ele>
        <time>2021-05-26T07:59:11Z</time>
      </trkpt>
      <trkpt lat="44.14794" lon="3.55771">
        <ele>1382.92</ele>
        <time>2021-05-26T07:59:14Z</time>
      </trkpt>
      <trkpt lat="44.14853" lon="3.55722">
        <ele>1377.52</ele>
        <time>2021-05-26T07:59:18Z</time>
      </trkpt>
      <trkpt lat="44.14865" lon="3.55704">
        <ele>1377.29</ele>
        <time>2021-05-26T07:59:19Z</time>
      </trkpt>
      <trkpt lat="44.14942" lon="3.55642">
        <ele>1371.51</ele>
        <time>2021-05-26T07:59:24Z</time>
      </trkpt>
      <trkpt lat="44.14976" lon="3.55638">
        <ele>1368.38</ele>
        <time>2021-05-26T07:59:26Z</time>
      </trkpt>
      <trkpt lat="44.15016" lon="3.55629">
        <ele>1363.62</ele>
        <time>2021-05-26T07:59:29Z</time>
      </trkpt>
      <trkpt lat="44.15032" lon="3.5557">
        <ele>1360.46</ele>
        <time>2021-05-26T07:59:33Z</time>
      </trkpt>
      <trkpt lat="44.15033" lon="3.55489">
        <ele>1357.27</ele>
        <time>2021-05-26T07:59:37Z</time>
      </trkpt>
      <trkpt lat="44.15062" lon="3.55423">
        <ele>1353.44</ele>
        <time>2021-05-26T07:59:41Z</time>
      </trkpt>
      <trkpt lat="44.15101" lon="3.55409">
        <ele>1349.1</ele>
        <time>2021-05-26T07:59:44Z</time>
      </trkpt>
      <trkpt lat="44.15177" lon="3.55443">
        <ele>1343.19</ele>
        <time>2021-05-26T07:59:50Z</time>
      </trkpt>
      <trkpt lat="44.15187" lon="3.55441">
        <ele>1343.25</ele>
        <time>2021-05-26T07:59:51Z</time>
      </trkpt>
      <trkpt lat="44.15205" lon="3.55284">
        <ele>1337.43</ele>
        <time>2021-05-26T08:00:00Z</time>
      </trkpt>
      <trkpt lat="44.15172" lon="3.55205">
        <ele>1333.55</ele>
        <time>2021-05-26T08:00:04Z</time>
      </trkpt>
      <trkpt lat="44.1515" lon="3.55146">
        <ele>1329.76</ele>
        <time>2021-05-26T08:00:07Z</time>
      </trkpt>
      <trkpt lat="44.15205" lon="3.54949">
        <ele>1320.31</ele>
        <time>2021-05-26T08:00:16Z</time>
      </trkpt>
      <trkpt lat="44.1525" lon="3.54903">
        <ele>1315.83</ele>
        <time>2021-05-26T08:00:19Z</time>
      </trkpt>
      <trkpt lat="44.15299" lon="3.54869">
        <ele>1310.92</ele>
        <time>2021-05-26T08:00:22Z</time>
      </trkpt>
      <trkpt lat="44.15333" lon="3.54863">
        <ele>1307.48</ele>
        <time>2021-05-26T08:00:24Z</time>
      </trkpt>
      <trkpt lat="44.1537" lon="3.54866">
        <ele>1306.45</ele>
        <time>2021-05-26T08:00:26Z</time>
      </trkpt>
      <trkpt lat="44.15421" lon="3.54871">
        <ele>1301.99</ele>
        <time>2021-05-26T08:00:29Z</time>
      </trkpt>
      <trkpt lat="44.15447" lon="3.54864">
        <ele>1297.88</ele>
        <time>2021-05-26T08:00:31Z</time>
      </trkpt>
      <trkpt lat="44.15467" lon="3.5484">
        <ele>1298.5</ele>
        <time>2021-05-26T08:00:33Z</time>
      </trkpt>
      <trkpt lat="44.15571" lon="3.54762">
        <ele>1291.65</ele>
        <time>2021-05-26T08:00:40Z</time>
      </trkpt>
      <trkpt lat="44.1562" lon="3.54695">
        <ele>1288.63</ele>
        <time>2021-05-26T08:00:44Z</time>
      </trkpt>
      <trkpt lat="44.15647" lon="3.54632">
        <ele>1282.74</ele>
        <time>2021-05-26T08:00:47Z</time>
      </trkpt>
      <trkpt lat="44.15704" lon="3.5455">
        <ele>1276.57</ele>
        <time>2021-05-26T08:00:52Z</time>
      </trkpt>
      <trkpt lat="44.15824" lon="3.54492">
        <ele>1268.63</ele>
        <time>2021-05-26T08:00:59Z</time>
      </trkpt>
      <trkpt lat="44.15858" lon="3.54483">
        <ele>1265.52</ele>
        <time>2021-05-26T08:01:01Z</time>
      </trkpt>
      <trkpt lat="44.15983" lon="3.54485">
        <ele>1257.51</ele>
        <time>2021-05-26T08:01:08Z</time>
      </trkpt>
      <trkpt lat="44.16062" lon="3.54488">
        <ele>1251.03</ele>
        <time>2021-05-26T08:01:13Z</time>
      </trkpt>
      <trkpt lat="44.16095" lon="3.54528">
        <ele>1246.64</ele>
        <time>2021-05-26T08:01:16Z</time>
      </trkpt>
      <trkpt lat="44.16086" lon="3.54679">
        <ele>1240.91</ele>
        <time>2021-05-26T08:01:23Z</time>
      </trkpt>
      <trkpt lat="44.16075" lon="3.54795">
        <ele>1235.78</ele>
        <time>2021-05-26T08:01:28Z</time>
      </trkpt>
      <trkpt lat="44.16081" lon="3.54867">
        <ele>1232.12</ele>
        <time>2021-05-26T08:01:31Z</time>
      </trkpt>
      <trkpt lat="44.16092" lon="3.54907">
        <ele>1228.84</ele>
        <time>2021-05-26T08:01:33Z</time>
      </trkpt>
      <trkpt lat="44.1612" lon="3.54937">
        <ele>1224.89</ele>
        <time>2021-05-26T08:01:36Z</time>
      </trkpt>
      <trkpt lat="44.16133" lon="3.54937">
        <ele>1224.78</ele>
        <time>2021-05-26T08:01:37Z</time>
      </trkpt>
      <trkpt lat="44.16147" lon="3.54934">
        <ele>1224.03</ele>
        <time>2021-05-26T08:01:38Z</time>
      </trkpt>
      <trkpt lat="44.16162" lon="3.5493">
        <ele>1224.07</ele>
        <time>2021-05-26T08:01:39Z</time>
      </trkpt>
      <trkpt lat="44.16253" lon="3.54875">
        <ele>1219.93</ele>
        <time>2021-05-26T08:01:45Z</time>
      </trkpt>
      <trkpt lat="44.16292" lon="3.54872">
        <ele>1215.82</ele>
        <time>2021-05-26T08:01:48Z</time>
      </trkpt>
      <trkpt lat="44.16307" lon="3.54875">
        <ele>1215.69</ele>
        <time>2021-05-26T08:01:49Z</time>
      </trkpt>
      <trkpt lat="44.16352" lon="3.54865">
        <ele>1212.04</ele>
        <time>2021-05-26T08:01:52Z</time>
      </trkpt>
      <trkpt lat="44.1639" lon="3.54861">
        <ele>1206.89</ele>
        <time>2021-05-26T08:01:55Z</time>
      </trkpt>
      <trkpt lat="44.16416" lon="3.54898">
        <ele>1203.11</ele>
        <time>2021-05-26T08:01:58Z</time>
      </trkpt>
      <trkpt lat="44.16423" lon="3.54914">
        <ele>1203.16</ele>
        <time>2021-05-26T08:01:59Z</time>
      </trkpt>
      <trkpt lat="44.1644" lon="3.54959">
        <ele>1199.59</ele>
        <time>2021-05-26T08:02:02Z</time>
      </trkpt>
      <trkpt lat="44.1641" lon="3.55069">
        <ele>1196.29</ele>
        <time>2021-05-26T08:02:10Z</time>
      </trkpt>
      <trkpt lat="44.16367" lon="3.55276">
        <ele>1190.54</ele>
        <time>2021-05-26T08:02:22Z</time>
      </trkpt>
      <trkpt lat="44.16359" lon="3.55289">
        <ele>1190.53</ele>
        <time>2021-05-26T08:02:23Z</time>
      </trkpt>
      <trkpt lat="44.16349" lon="3.55303">
        <ele>1190.6</ele>
        <time>2021-05-26T08:02:24Z</time>
      </trkpt>
      <trkpt lat="44.16303" lon="3.55447">
        <ele>1187.19</ele>
        <time>2021-05-26T08:02:31Z</time>
      </trkpt>
      <trkpt lat="44.16294" lon="3.55466">
        <ele>1187.2</ele>
        <time>2021-05-26T08:02:32Z</time>
      </trkpt>
      <trkpt lat="44.16275" lon="3.55502">
        <ele>1185.49</ele>
        <time>2021-05-26T08:02:34Z</time>
      </trkpt>
      <trkpt lat="44.16268" lon="3.55522">
        <ele>1185.4</ele>
        <time>2021-05-26T08:02:35Z</time>
      </trkpt>
      <trkpt lat="44.16215" lon="3.5567">
        <ele>1181.11</ele>
        <time>2021-05-26T08:02:42Z</time>
      </trkpt>
      <trkpt lat="44.16206" lon="3.55687">
        <ele>1181.08</ele>
        <time>2021-05-26T08:02:43Z</time>
      </trkpt>
      <trkpt lat="44.16177" lon="3.55734">
        <ele>1179.67</ele>
        <time>2021-05-26T08:02:46Z</time>
      </trkpt>
      <trkpt lat="44.16134" lon="3.55804">
        <ele>1175.91</ele>
        <time>2021-05-26T08:02:52Z</time>
      </trkpt>
      <trkpt lat="44.16132" lon="3.55813">
        <ele>1175.95</ele>
        <time>2021-05-26T08:02:53Z</time>
      </trkpt>
      <trkpt lat="44.16188" lon="3.56109">
        <ele>1170.66</ele>
        <time>2021-05-26T08:03:13Z</time>
      </trkpt>
      <trkpt lat="44.16189" lon="3.56131">
        <ele>1170.67</ele>
        <time>2021-05-26T08:03:14Z</time>
      </trkpt>
      <trkpt lat="44.16233" lon="3.56359">
        <ele>1166.02</ele>
        <time>2021-05-26T08:03:25Z</time>
      </trkpt>
      <trkpt lat="44.1613" lon="3.56537">
        <ele>1161.49</ele>
        <time>2021-05-26T08:03:38Z</time>
      </trkpt>
      <trkpt lat="44.16028" lon="3.5672">
        <ele>1155.39</ele>
        <time>2021-05-26T08:03:48Z</time>
      </trkpt>
      <trkpt lat="44.15961" lon="3.56926">
        <ele>1150.36</ele>
        <time>2021-05-26T08:04:04Z</time>
      </trkpt>
      <trkpt lat="44.15907" lon="3.57244">
        <ele>1143.11</ele>
        <time>2021-05-26T08:04:25Z</time>
      </trkpt>
      <trkpt lat="44.158" lon="3.57234">
        <ele>1139.86</ele>
        <time>2021-05-26T08:04:34Z</time>
      </trkpt>
      <trkpt lat="44.15624" lon="3.57414">
        <ele>1132.68</ele>
        <time>2021-05-26T08:04:54Z</time>
      </trkpt>
      <trkpt lat="44.15616" lon="3.5742">
        <ele>1132.41</ele>
        <time>2021-05-26T08:04:55Z</time>
      </trkpt>
      <trkpt lat="44.15481" lon="3.57366">
        <ele>1127.95</ele>
        <time>2021-05-26T08:05:12Z</time>
      </trkpt>
      <trkpt lat="44.15474" lon="3.57362">
        <ele>1127.97</ele>
        <time>2021-05-26T08:05:13Z</time>
      </trkpt>
      <trkpt lat="44.1537" lon="3.57331">
        <ele>1124.23</ele>
        <time>2021-05-26T08:05:25Z</time>
      </trkpt>
      <trkpt lat="44.15381" lon="3.57383">
        <ele>1124.3</ele>
        <time>2021-05-26T08:05:31Z</time>
      </trkpt>
      <trkpt lat="44.15434" lon="3.57618">
        <ele>1119.76</ele>
        <time>2021-05-26T08:05:45Z</time>
      </trkpt>
      <trkpt lat="44.15436" lon="3.57681">
        <ele>1116.89</ele>
        <time>2021-05-26T08:05:48Z</time>
      </trkpt>
      <trkpt lat="44.15437" lon="3.57757">
        <ele>1114.08</ele>
        <time>2021-05-26T08:05:52Z</time>
      </trkpt>
      <trkpt lat="44.15552" lon="3.57758">
        <ele>1116.3</ele>
        <time>2021-05-26T08:06:05Z</time>
      </trkpt>
      <trkpt lat="44.15973" lon="3.58004">
        <ele>1119.41</ele>
        <time>2021-05-26T08:06:43Z</time>
      </trkpt>
      <trkpt lat="44.15994" lon="3.58031">
        <ele>1119.42</ele>
        <time>2021-05-26T08:06:46Z</time>
      </trkpt>
      <trkpt lat="44.16074" lon="3.58201">
        <ele>1113.84</ele>
        <time>2021-05-26T08:06:57Z</time>
      </trkpt>
      <trkpt lat="44.16083" lon="3.58244">
        <ele>1110.15</ele>
        <time>2021-05-26T08:06:59Z</time>
      </trkpt>
      <trkpt lat="44.161" lon="3.58308">
        <ele>1106.84</ele>
        <time>2021-05-26T08:07:02Z</time>
      </trkpt>
      <trkpt lat="44.16114" lon="3.58372">
        <ele>1103.53</ele>
        <time>2021-05-26T08:07:05Z</time>
      </trkpt>
      <trkpt lat="44.16121" lon="3.58459">
        <ele>1097.34</ele>
        <time>2021-05-26T08:07:09Z</time>
      </trkpt>
      <trkpt lat="44.16124" lon="3.58503">
        <ele>1093.86</ele>
        <time>2021-05-26T08:07:11Z</time>
      </trkpt>
      <trkpt lat="44.16123" lon="3.58564">
        <ele>1088.68</ele>
        <time>2021-05-26T08:07:14Z</time>
      </trkpt>
      <trkpt lat="44.16135" lon="3.58607">
        <ele>1085.09</ele>
        <time>2021-05-26T08:07:17Z</time>
      </trkpt>
      <trkpt lat="44.16103" lon="3.58556">
        <ele>1080.03</ele>
        <time>2021-05-26T08:07:28Z</time>
      </trkpt>
      <trkpt lat="44.16102" lon="3.58642">
        <ele>1074.05</ele>
        <time>2021-05-26T08:07:36Z</time>
      </trkpt>
      <trkpt lat="44.16104" lon="3.58656">
        <ele>1074.08</ele>
        <time>2021-05-26T08:07:37Z</time>
      </trkpt>
      <trkpt lat="44.16125" lon="3.58766">
        <ele>1067.59</ele>
        <time>2021-05-26T08:07:43Z</time>
      </trkpt>
      <trkpt lat="44.16131" lon="3.58807">
        <ele>1064.45</ele>
        <time>2021-05-26T08:07:45Z</time>
      </trkpt>
      <trkpt lat="44.16137" lon="3.5884">
        <ele>1059.9</ele>
        <time>2021-05-26T08:07:47Z</time>
      </trkpt>
      <trkpt lat="44.16143" lon="3.58876">
        <ele>1056.21</ele>
        <time>2021-05-26T08:07:50Z</time>
      </trkpt>
      <trkpt lat="44.16138" lon="3.58887">
        <ele>1056.22</ele>
        <time>2021-05-26T08:07:51Z</time>
      </trkpt>
      <trkpt lat="44.16134" lon="3.58899">
        <ele>1054.65</ele>
        <time>2021-05-26T08:07:52Z</time>
      </trkpt>
      <trkpt lat="44.1614" lon="3.58983">
        <ele>1050.74</ele>
        <time>2021-05-26T08:07:57Z</time>
      </trkpt>
      <trkpt lat="44.16152" lon="3.5904">
        <ele>1046.12</ele>
        <time>2021-05-26T08:08:00Z</time>
      </trkpt>
      <trkpt lat="44.16158" lon="3.59081">
        <ele>1042.93</ele>
        <time>2021-05-26T08:08:02Z</time>
      </trkpt>
      <trkpt lat="44.16161" lon="3.59123">
        <ele>1039.82</ele>
        <time>2021-05-26T08:08:04Z</time>
      </trkpt>
      <trkpt lat="44.16164" lon="3.59166">
        <ele>1036.29</ele>
        <time>2021-05-26T08:08:06Z</time>
      </trkpt>
      <trkpt lat="44.16164" lon="3.59186">
        <ele>1036.41</ele>
        <time>2021-05-26T08:08:07Z</time>
      </trkpt>
      <trkpt lat="44.16163" lon="3.59229">
        <ele>1032.71</ele>
        <time>2021-05-26T08:08:09Z</time>
      </trkpt>
      <trkpt lat="44.16171" lon="3.59318">
        <ele>1027</ele>
        <time>2021-05-26T08:08:13Z</time>
      </trkpt>
      <trkpt lat="44.16176" lon="3.59363">
        <ele>1022.44</ele>
        <time>2021-05-26T08:08:15Z</time>
      </trkpt>
      <trkpt lat="44.16182" lon="3.59407">
        <ele>1018.76</ele>
        <time>2021-05-26T08:08:17Z</time>
      </trkpt>
      <trkpt lat="44.16186" lon="3.59449">
        <ele>1015.97</ele>
        <time>2021-05-26T08:08:19Z</time>
      </trkpt>
      <trkpt lat="44.16182" lon="3.59487">
        <ele>1011.46</ele>
        <time>2021-05-26T08:08:21Z</time>
      </trkpt>
      <trkpt lat="44.16159" lon="3.59555">
        <ele>1007.56</ele>
        <time>2021-05-26T08:08:25Z</time>
      </trkpt>
      <trkpt lat="44.16151" lon="3.59619">
        <ele>1003.03</ele>
        <time>2021-05-26T08:08:28Z</time>
      </trkpt>
      <trkpt lat="44.16146" lon="3.59662">
        <ele>998.56</ele>
        <time>2021-05-26T08:08:30Z</time>
      </trkpt>
      <trkpt lat="44.16151" lon="3.59769">
        <ele>992.65</ele>
        <time>2021-05-26T08:08:35Z</time>
      </trkpt>
      <trkpt lat="44.16151" lon="3.59792">
        <ele>992.65</ele>
        <time>2021-05-26T08:08:36Z</time>
      </trkpt>
      <trkpt lat="44.1615" lon="3.59832">
        <ele>988.17</ele>
        <time>2021-05-26T08:08:38Z</time>
      </trkpt>
      <trkpt lat="44.16157" lon="3.59858">
        <ele>983.75</ele>
        <time>2021-05-26T08:08:40Z</time>
      </trkpt>
      <trkpt lat="44.16201" lon="3.59938">
        <ele>979.04</ele>
        <time>2021-05-26T08:08:46Z</time>
      </trkpt>
      <trkpt lat="44.16208" lon="3.59975">
        <ele>975.57</ele>
        <time>2021-05-26T08:08:48Z</time>
      </trkpt>
      <trkpt lat="44.16212" lon="3.60011">
        <ele>972.22</ele>
        <time>2021-05-26T08:08:50Z</time>
      </trkpt>
      <trkpt lat="44.16216" lon="3.60023">
        <ele>970.06</ele>
        <time>2021-05-26T08:08:51Z</time>
      </trkpt>
      <trkpt lat="44.16219" lon="3.60034">
        <ele>968.14</ele>
        <time>2021-05-26T08:08:52Z</time>
      </trkpt>
      <trkpt lat="44.1622" lon="3.60045">
        <ele>968.18</ele>
        <time>2021-05-26T08:08:53Z</time>
      </trkpt>
      <trkpt lat="44.1621" lon="3.60137">
        <ele>963.2</ele>
        <time>2021-05-26T08:09:00Z</time>
      </trkpt>
      <trkpt lat="44.16215" lon="3.60156">
        <ele>961.64</ele>
        <time>2021-05-26T08:09:01Z</time>
      </trkpt>
      <trkpt lat="44.16219" lon="3.60174">
        <ele>961.63</ele>
        <time>2021-05-26T08:09:02Z</time>
      </trkpt>
      <trkpt lat="44.16221" lon="3.60212">
        <ele>958.09</ele>
        <time>2021-05-26T08:09:04Z</time>
      </trkpt>
      <trkpt lat="44.162" lon="3.60259">
        <ele>954.26</ele>
        <time>2021-05-26T08:09:07Z</time>
      </trkpt>
      <trkpt lat="44.16177" lon="3.60307">
        <ele>951</ele>
        <time>2021-05-26T08:09:10Z</time>
      </trkpt>
      <trkpt lat="44.16167" lon="3.60342">
        <ele>947.4</ele>
        <time>2021-05-26T08:09:12Z</time>
      </trkpt>
      <trkpt lat="44.16154" lon="3.60396">
        <ele>943.98</ele>
        <time>2021-05-26T08:09:15Z</time>
      </trkpt>
      <trkpt lat="44.16147" lon="3.60453">
        <ele>939.73</ele>
        <time>2021-05-26T08:09:18Z</time>
      </trkpt>
      <trkpt lat="44.16137" lon="3.60511">
        <ele>936.72</ele>
        <time>2021-05-26T08:09:21Z</time>
      </trkpt>
      <trkpt lat="44.16125" lon="3.60547">
        <ele>932.66</ele>
        <time>2021-05-26T08:09:23Z</time>
      </trkpt>
      <trkpt lat="44.16112" lon="3.60582">
        <ele>929.25</ele>
        <time>2021-05-26T08:09:25Z</time>
      </trkpt>
      <trkpt lat="44.16103" lon="3.60659">
        <ele>924.59</ele>
        <time>2021-05-26T08:09:29Z</time>
      </trkpt>
      <trkpt lat="44.16098" lon="3.60678">
        <ele>924.47</ele>
        <time>2021-05-26T08:09:30Z</time>
      </trkpt>
      <trkpt lat="44.16092" lon="3.60695">
        <ele>922.04</ele>
        <time>2021-05-26T08:09:31Z</time>
      </trkpt>
      <trkpt lat="44.1607" lon="3.60745">
        <ele>918.17</ele>
        <time>2021-05-26T08:09:34Z</time>
      </trkpt>
      <trkpt lat="44.16049" lon="3.60796">
        <ele>913.62</ele>
        <time>2021-05-26T08:09:37Z</time>
      </trkpt>
      <trkpt lat="44.1603" lon="3.60847">
        <ele>909.18</ele>
        <time>2021-05-26T08:09:40Z</time>
      </trkpt>
      <trkpt lat="44.16019" lon="3.60903">
        <ele>904.54</ele>
        <time>2021-05-26T08:09:43Z</time>
      </trkpt>
      <trkpt lat="44.16021" lon="3.60939">
        <ele>900.75</ele>
        <time>2021-05-26T08:09:45Z</time>
      </trkpt>
      <trkpt lat="44.16024" lon="3.60957">
        <ele>899.77</ele>
        <time>2021-05-26T08:09:46Z</time>
      </trkpt>
      <trkpt lat="44.16027" lon="3.60974">
        <ele>899.84</ele>
        <time>2021-05-26T08:09:47Z</time>
      </trkpt>
      <trkpt lat="44.16019" lon="3.61021">
        <ele>895.55</ele>
        <time>2021-05-26T08:09:50Z</time>
      </trkpt>
      <trkpt lat="44.15897" lon="3.61095">
        <ele>897.06</ele>
        <time>2021-05-26T08:10:06Z</time>
      </trkpt>
      <trkpt lat="44.15867" lon="3.61101">
        <ele>900.91</ele>
        <time>2021-05-26T08:10:09Z</time>
      </trkpt>
      <trkpt lat="44.15856" lon="3.61101">
        <ele>901.07</ele>
        <time>2021-05-26T08:10:10Z</time>
      </trkpt>
      <trkpt lat="44.15823" lon="3.61105">
        <ele>905.03</ele>
        <time>2021-05-26T08:10:13Z</time>
      </trkpt>
      <trkpt lat="44.15789" lon="3.61118">
        <ele>909.34</ele>
        <time>2021-05-26T08:10:16Z</time>
      </trkpt>
      <trkpt lat="44.15779" lon="3.61121">
        <ele>909.64</ele>
        <time>2021-05-26T08:10:17Z</time>
      </trkpt>
      <trkpt lat="44.15764" lon="3.61149">
        <ele>912.98</ele>
        <time>2021-05-26T08:10:28Z</time>
      </trkpt>
      <trkpt lat="44.15803" lon="3.61129">
        <ele>917.31</ele>
        <time>2021-05-26T08:10:33Z</time>
      </trkpt>
      <trkpt lat="44.15826" lon="3.61129">
        <ele>920.53</ele>
        <time>2021-05-26T08:10:35Z</time>
      </trkpt>
      <trkpt lat="44.15875" lon="3.61136">
        <ele>926.46</ele>
        <time>2021-05-26T08:10:39Z</time>
      </trkpt>
      <trkpt lat="44.15887" lon="3.61139">
        <ele>926.53</ele>
        <time>2021-05-26T08:10:40Z</time>
      </trkpt>
      <trkpt lat="44.15931" lon="3.61178">
        <ele>929.96</ele>
        <time>2021-05-26T08:10:45Z</time>
      </trkpt>
      <trkpt lat="44.15968" lon="3.61232">
        <ele>936.2</ele>
        <time>2021-05-26T08:10:49Z</time>
      </trkpt>
      <trkpt lat="44.15988" lon="3.61261">
        <ele>939.93</ele>
        <time>2021-05-26T08:10:51Z</time>
      </trkpt>
      <trkpt lat="44.16006" lon="3.61288">
        <ele>941.03</ele>
        <time>2021-05-26T08:10:53Z</time>
      </trkpt>
      <trkpt lat="44.16012" lon="3.61301">
        <ele>940.96</ele>
        <time>2021-05-26T08:10:54Z</time>
      </trkpt>
      <trkpt lat="44.16024" lon="3.61323">
        <ele>941.98</ele>
        <time>2021-05-26T08:10:56Z</time>
      </trkpt>
      <trkpt lat="44.16058" lon="3.61328">
        <ele>945.21</ele>
        <time>2021-05-26T08:11:00Z</time>
      </trkpt>
      <trkpt lat="44.16066" lon="3.61324">
        <ele>945.02</ele>
        <time>2021-05-26T08:11:01Z</time>
      </trkpt>
      <trkpt lat="44.1609" lon="3.61329">
        <ele>948.03</ele>
        <time>2021-05-26T08:11:04Z</time>
      </trkpt>
      <trkpt lat="44.16101" lon="3.61334">
        <ele>949.88</ele>
        <time>2021-05-26T08:11:05Z</time>
      </trkpt>
      <trkpt lat="44.16124" lon="3.61348">
        <ele>953.64</ele>
        <time>2021-05-26T08:11:07Z</time>
      </trkpt>
      <trkpt lat="44.16159" lon="3.6137">
        <ele>957</ele>
        <time>2021-05-26T08:11:10Z</time>
      </trkpt>
      <trkpt lat="44.16208" lon="3.61448">
        <ele>964.07</ele>
        <time>2021-05-26T08:11:16Z</time>
      </trkpt>
      <trkpt lat="44.1623" lon="3.61496">
        <ele>967.31</ele>
        <time>2021-05-26T08:11:19Z</time>
      </trkpt>
      <trkpt lat="44.16281" lon="3.61529">
        <ele>973.04</ele>
        <time>2021-05-26T08:11:25Z</time>
      </trkpt>
      <trkpt lat="44.1629" lon="3.61521">
        <ele>974.61</ele>
        <time>2021-05-26T08:11:26Z</time>
      </trkpt>
      <trkpt lat="44.16326" lon="3.61485">
        <ele>977.76</ele>
        <time>2021-05-26T08:11:30Z</time>
      </trkpt>
      <trkpt lat="44.16334" lon="3.61478">
        <ele>978.63</ele>
        <time>2021-05-26T08:11:31Z</time>
      </trkpt>
      <trkpt lat="44.16341" lon="3.61474">
        <ele>978.72</ele>
        <time>2021-05-26T08:11:32Z</time>
      </trkpt>
      <trkpt lat="44.16363" lon="3.61476">
        <ele>982.57</ele>
        <time>2021-05-26T08:11:35Z</time>
      </trkpt>
      <trkpt lat="44.16433" lon="3.61505">
        <ele>988.48</ele>
        <time>2021-05-26T08:11:42Z</time>
      </trkpt>
      <trkpt lat="44.16442" lon="3.61507">
        <ele>988.56</ele>
        <time>2021-05-26T08:11:43Z</time>
      </trkpt>
      <trkpt lat="44.16431" lon="3.61526">
        <ele>992.51</ele>
        <time>2021-05-26T08:11:51Z</time>
      </trkpt>
      <trkpt lat="44.1639" lon="3.6151">
        <ele>995.9</ele>
        <time>2021-05-26T08:11:55Z</time>
      </trkpt>
      <trkpt lat="44.16381" lon="3.61508">
        <ele>995.93</ele>
        <time>2021-05-26T08:11:56Z</time>
      </trkpt>
      <trkpt lat="44.16355" lon="3.6153">
        <ele>999.1</ele>
        <time>2021-05-26T08:12:00Z</time>
      </trkpt>
      <trkpt lat="44.1635" lon="3.6154">
        <ele>1000.21</ele>
        <time>2021-05-26T08:12:01Z</time>
      </trkpt>
      <trkpt lat="44.1633" lon="3.6159">
        <ele>1003.61</ele>
        <time>2021-05-26T08:12:05Z</time>
      </trkpt>
      <trkpt lat="44.16314" lon="3.61637">
        <ele>1007.49</ele>
        <time>2021-05-26T08:12:08Z</time>
      </trkpt>
      <trkpt lat="44.16277" lon="3.61703">
        <ele>1011.18</ele>
        <time>2021-05-26T08:12:13Z</time>
      </trkpt>
      <trkpt lat="44.16268" lon="3.61747">
        <ele>1011.84</ele>
        <time>2021-05-26T08:13:25Z</time>
      </trkpt>
      <trkpt lat="44.16269" lon="3.61748">
        <ele>1013.96</ele>
        <time>2021-05-26T08:17:31Z</time>
      </trkpt>
      <trkpt lat="44.16368" lon="3.61756">
        <ele>1009.59</ele>
        <time>2021-05-26T08:17:45Z</time>
      </trkpt>
      <trkpt lat="44.16444" lon="3.61737">
        <ele>1002.02</ele>
        <time>2021-05-26T08:17:53Z</time>
      </trkpt>
      <trkpt lat="44.16471" lon="3.61744">
        <ele>998.55</ele>
        <time>2021-05-26T08:17:56Z</time>
      </trkpt>
      <trkpt lat="44.16527" lon="3.6178">
        <ele>994.22</ele>
        <time>2021-05-26T08:18:03Z</time>
      </trkpt>
      <trkpt lat="44.16541" lon="3.61793">
        <ele>992.81</ele>
        <time>2021-05-26T08:18:05Z</time>
      </trkpt>
      <trkpt lat="44.16553" lon="3.61805">
        <ele>991.51</ele>
        <time>2021-05-26T08:18:07Z</time>
      </trkpt>
      <trkpt lat="44.16624" lon="3.61821">
        <ele>987.48</ele>
        <time>2021-05-26T08:18:14Z</time>
      </trkpt>
      <trkpt lat="44.16638" lon="3.61816">
        <ele>987.48</ele>
        <time>2021-05-26T08:18:15Z</time>
      </trkpt>
      <trkpt lat="44.16678" lon="3.61799">
        <ele>984.25</ele>
        <time>2021-05-26T08:18:18Z</time>
      </trkpt>
      <trkpt lat="44.16715" lon="3.6178">
        <ele>980.4</ele>
        <time>2021-05-26T08:18:21Z</time>
      </trkpt>
      <trkpt lat="44.16748" lon="3.61757">
        <ele>976.8</ele>
        <time>2021-05-26T08:18:24Z</time>
      </trkpt>
      <trkpt lat="44.16801" lon="3.61729">
        <ele>973.45</ele>
        <time>2021-05-26T08:18:29Z</time>
      </trkpt>
      <trkpt lat="44.16887" lon="3.61688">
        <ele>969.78</ele>
        <time>2021-05-26T08:18:35Z</time>
      </trkpt>
      <trkpt lat="44.1692" lon="3.61676">
        <ele>966.27</ele>
        <time>2021-05-26T08:18:37Z</time>
      </trkpt>
      <trkpt lat="44.16968" lon="3.61665">
        <ele>962.56</ele>
        <time>2021-05-26T08:18:40Z</time>
      </trkpt>
      <trkpt lat="44.17027" lon="3.61632">
        <ele>956.88</ele>
        <time>2021-05-26T08:18:44Z</time>
      </trkpt>
      <trkpt lat="44.17037" lon="3.61621">
        <ele>955.06</ele>
        <time>2021-05-26T08:18:45Z</time>
      </trkpt>
      <trkpt lat="44.17047" lon="3.6161">
        <ele>953.46</ele>
        <time>2021-05-26T08:18:46Z</time>
      </trkpt>
      <trkpt lat="44.17141" lon="3.61621">
        <ele>945.2</ele>
        <time>2021-05-26T08:18:53Z</time>
      </trkpt>
      <trkpt lat="44.1716" lon="3.61624">
        <ele>941.77</ele>
        <time>2021-05-26T08:18:55Z</time>
      </trkpt>
      <trkpt lat="44.17167" lon="3.61618">
        <ele>941.63</ele>
        <time>2021-05-26T08:18:56Z</time>
      </trkpt>
      <trkpt lat="44.17204" lon="3.61556">
        <ele>937.68</ele>
        <time>2021-05-26T08:19:02Z</time>
      </trkpt>
      <trkpt lat="44.17277" lon="3.61536">
        <ele>933.6</ele>
        <time>2021-05-26T08:19:07Z</time>
      </trkpt>
      <trkpt lat="44.173" lon="3.61524">
        <ele>929.46</ele>
        <time>2021-05-26T08:19:09Z</time>
      </trkpt>
      <trkpt lat="44.17336" lon="3.61459">
        <ele>924.57</ele>
        <time>2021-05-26T08:19:14Z</time>
      </trkpt>
      <trkpt lat="44.17376" lon="3.61447">
        <ele>920.98</ele>
        <time>2021-05-26T08:19:18Z</time>
      </trkpt>
      <trkpt lat="44.17442" lon="3.6145">
        <ele>916.58</ele>
        <time>2021-05-26T08:19:23Z</time>
      </trkpt>
      <trkpt lat="44.17495" lon="3.61473">
        <ele>910.21</ele>
        <time>2021-05-26T08:19:28Z</time>
      </trkpt>
      <trkpt lat="44.17572" lon="3.61552">
        <ele>902.65</ele>
        <time>2021-05-26T08:19:39Z</time>
      </trkpt>
      <trkpt lat="44.17594" lon="3.61579">
        <ele>899.2</ele>
        <time>2021-05-26T08:19:44Z</time>
      </trkpt>
      <trkpt lat="44.17579" lon="3.61571">
        <ele>899.05</ele>
        <time>2021-05-26T08:19:48Z</time>
      </trkpt>
      <trkpt lat="44.17484" lon="3.61512">
        <ele>895.75</ele>
        <time>2021-05-26T08:19:57Z</time>
      </trkpt>
      <trkpt lat="44.17471" lon="3.61508">
        <ele>895.8</ele>
        <time>2021-05-26T08:19:58Z</time>
      </trkpt>
      <trkpt lat="44.17442" lon="3.61497">
        <ele>895.83</ele>
        <time>2021-05-26T08:20:00Z</time>
      </trkpt>
      <trkpt lat="44.17403" lon="3.61492">
        <ele>891.38</ele>
        <time>2021-05-26T08:20:03Z</time>
      </trkpt>
      <trkpt lat="44.17366" lon="3.61594">
        <ele>887.17</ele>
        <time>2021-05-26T08:20:11Z</time>
      </trkpt>
      <trkpt lat="44.17346" lon="3.61608">
        <ele>885.52</ele>
        <time>2021-05-26T08:20:13Z</time>
      </trkpt>
      <trkpt lat="44.17307" lon="3.61634">
        <ele>882.17</ele>
        <time>2021-05-26T08:20:17Z</time>
      </trkpt>
      <trkpt lat="44.17305" lon="3.61646">
        <ele>882.13</ele>
        <time>2021-05-26T08:20:18Z</time>
      </trkpt>
      <trkpt lat="44.17302" lon="3.61836">
        <ele>876.49</ele>
        <time>2021-05-26T08:20:28Z</time>
      </trkpt>
      <trkpt lat="44.17281" lon="3.61901">
        <ele>873.29</ele>
        <time>2021-05-26T08:20:32Z</time>
      </trkpt>
      <trkpt lat="44.17236" lon="3.61925">
        <ele>870.29</ele>
        <time>2021-05-26T08:20:36Z</time>
      </trkpt>
      <trkpt lat="44.17139" lon="3.61861">
        <ele>864.01</ele>
        <time>2021-05-26T08:20:45Z</time>
      </trkpt>
      <trkpt lat="44.17128" lon="3.6185">
        <ele>863.93</ele>
        <time>2021-05-26T08:20:46Z</time>
      </trkpt>
      <trkpt lat="44.171" lon="3.61823">
        <ele>861.53</ele>
        <time>2021-05-26T08:20:49Z</time>
      </trkpt>
      <trkpt lat="44.1702" lon="3.61911">
        <ele>856.07</ele>
        <time>2021-05-26T08:20:58Z</time>
      </trkpt>
      <trkpt lat="44.16968" lon="3.62016">
        <ele>850.21</ele>
        <time>2021-05-26T08:21:05Z</time>
      </trkpt>
      <trkpt lat="44.1693" lon="3.62076">
        <ele>846.86</ele>
        <time>2021-05-26T08:21:10Z</time>
      </trkpt>
      <trkpt lat="44.16882" lon="3.62248">
        <ele>840.74</ele>
        <time>2021-05-26T08:21:20Z</time>
      </trkpt>
      <trkpt lat="44.16868" lon="3.62293">
        <ele>837.07</ele>
        <time>2021-05-26T08:21:23Z</time>
      </trkpt>
      <trkpt lat="44.16795" lon="3.62264">
        <ele>832.85</ele>
        <time>2021-05-26T08:21:31Z</time>
      </trkpt>
      <trkpt lat="44.16694" lon="3.62309">
        <ele>826.51</ele>
        <time>2021-05-26T08:21:43Z</time>
      </trkpt>
      <trkpt lat="44.16617" lon="3.62476">
        <ele>820.14</ele>
        <time>2021-05-26T08:21:55Z</time>
      </trkpt>
      <trkpt lat="44.16607" lon="3.6249">
        <ele>820.08</ele>
        <time>2021-05-26T08:21:56Z</time>
      </trkpt>
      <trkpt lat="44.16559" lon="3.6253">
        <ele>816.58</ele>
        <time>2021-05-26T08:22:00Z</time>
      </trkpt>
      <trkpt lat="44.16525" lon="3.62551">
        <ele>813.55</ele>
        <time>2021-05-26T08:22:03Z</time>
      </trkpt>
      <trkpt lat="44.16495" lon="3.62571">
        <ele>810.07</ele>
        <time>2021-05-26T08:22:06Z</time>
      </trkpt>
      <trkpt lat="44.16476" lon="3.62578">
        <ele>806.95</ele>
        <time>2021-05-26T08:22:09Z</time>
      </trkpt>
      <trkpt lat="44.16469" lon="3.6258">
        <ele>806.23</ele>
        <time>2021-05-26T08:22:11Z</time>
      </trkpt>
      <trkpt lat="44.16537" lon="3.62568">
        <ele>803.06</ele>
        <time>2021-05-26T08:22:24Z</time>
      </trkpt>
      <trkpt lat="44.16557" lon="3.6256">
        <ele>802.05</ele>
        <time>2021-05-26T08:22:26Z</time>
      </trkpt>
      <trkpt lat="44.16601" lon="3.62541">
        <ele>797.79</ele>
        <time>2021-05-26T08:22:30Z</time>
      </trkpt>
      <trkpt lat="44.16613" lon="3.62534">
        <ele>796.41</ele>
        <time>2021-05-26T08:22:31Z</time>
      </trkpt>
      <trkpt lat="44.16666" lon="3.62479">
        <ele>791.14</ele>
        <time>2021-05-26T08:22:36Z</time>
      </trkpt>
      <trkpt lat="44.16686" lon="3.62456">
        <ele>787.95</ele>
        <time>2021-05-26T08:22:38Z</time>
      </trkpt>
      <trkpt lat="44.16702" lon="3.6243">
        <ele>784.8</ele>
        <time>2021-05-26T08:22:40Z</time>
      </trkpt>
      <trkpt lat="44.16731" lon="3.62387">
        <ele>779.39</ele>
        <time>2021-05-26T08:22:45Z</time>
      </trkpt>
      <trkpt lat="44.16755" lon="3.62373">
        <ele>776.38</ele>
        <time>2021-05-26T08:22:49Z</time>
      </trkpt>
      <trkpt lat="44.16796" lon="3.62432">
        <ele>772.96</ele>
        <time>2021-05-26T08:22:56Z</time>
      </trkpt>
      <trkpt lat="44.16813" lon="3.62479">
        <ele>768.8</ele>
        <time>2021-05-26T08:22:59Z</time>
      </trkpt>
      <trkpt lat="44.16899" lon="3.62539">
        <ele>760.79</ele>
        <time>2021-05-26T08:23:09Z</time>
      </trkpt>
      <trkpt lat="44.16932" lon="3.62569">
        <ele>757.61</ele>
        <time>2021-05-26T08:23:12Z</time>
      </trkpt>
      <trkpt lat="44.16964" lon="3.62597">
        <ele>753.73</ele>
        <time>2021-05-26T08:23:15Z</time>
      </trkpt>
      <trkpt lat="44.16996" lon="3.62614">
        <ele>750.01</ele>
        <time>2021-05-26T08:23:18Z</time>
      </trkpt>
      <trkpt lat="44.17017" lon="3.62619">
        <ele>747.97</ele>
        <time>2021-05-26T08:23:20Z</time>
      </trkpt>
      <trkpt lat="44.17036" lon="3.62622">
        <ele>745.99</ele>
        <time>2021-05-26T08:23:22Z</time>
      </trkpt>
      <trkpt lat="44.171" lon="3.62596">
        <ele>740.2</ele>
        <time>2021-05-26T08:23:28Z</time>
      </trkpt>
      <trkpt lat="44.17135" lon="3.62495">
        <ele>731</ele>
        <time>2021-05-26T08:23:37Z</time>
      </trkpt>
      <trkpt lat="44.17123" lon="3.62457">
        <ele>727.33</ele>
        <time>2021-05-26T08:23:40Z</time>
      </trkpt>
      <trkpt lat="44.17153" lon="3.62538">
        <ele>720.7</ele>
        <time>2021-05-26T08:23:53Z</time>
      </trkpt>
      <trkpt lat="44.17151" lon="3.62599">
        <ele>717.11</ele>
        <time>2021-05-26T08:23:57Z</time>
      </trkpt>
      <trkpt lat="44.17146" lon="3.62615">
        <ele>717.14</ele>
        <time>2021-05-26T08:23:58Z</time>
      </trkpt>
      <trkpt lat="44.17123" lon="3.62655">
        <ele>713.53</ele>
        <time>2021-05-26T08:24:01Z</time>
      </trkpt>
      <trkpt lat="44.17115" lon="3.62666">
        <ele>713.58</ele>
        <time>2021-05-26T08:24:02Z</time>
      </trkpt>
      <trkpt lat="44.17098" lon="3.62684">
        <ele>710.24</ele>
        <time>2021-05-26T08:24:04Z</time>
      </trkpt>
      <trkpt lat="44.1709" lon="3.6269">
        <ele>710.17</ele>
        <time>2021-05-26T08:24:05Z</time>
      </trkpt>
      <trkpt lat="44.17065" lon="3.62702">
        <ele>707.12</ele>
        <time>2021-05-26T08:24:08Z</time>
      </trkpt>
      <trkpt lat="44.17163" lon="3.6268">
        <ele>697.06</ele>
        <time>2021-05-26T08:24:24Z</time>
      </trkpt>
      <trkpt lat="44.17219" lon="3.62636">
        <ele>691.57</ele>
        <time>2021-05-26T08:24:29Z</time>
      </trkpt>
      <trkpt lat="44.17245" lon="3.626">
        <ele>687.42</ele>
        <time>2021-05-26T08:24:32Z</time>
      </trkpt>
      <trkpt lat="44.17249" lon="3.62556">
        <ele>684.42</ele>
        <time>2021-05-26T08:24:35Z</time>
      </trkpt>
      <trkpt lat="44.17248" lon="3.62539">
        <ele>683.32</ele>
        <time>2021-05-26T08:24:36Z</time>
      </trkpt>
      <trkpt lat="44.17241" lon="3.62495">
        <ele>678.8</ele>
        <time>2021-05-26T08:24:39Z</time>
      </trkpt>
      <trkpt lat="44.1722" lon="3.62454">
        <ele>675.16</ele>
        <time>2021-05-26T08:24:43Z</time>
      </trkpt>
      <trkpt lat="44.17213" lon="3.62422">
        <ele>672.07</ele>
        <time>2021-05-26T08:24:46Z</time>
      </trkpt>
      <trkpt lat="44.17274" lon="3.62403">
        <ele>668.76</ele>
        <time>2021-05-26T08:24:54Z</time>
      </trkpt>
      <trkpt lat="44.17324" lon="3.62406">
        <ele>663.11</ele>
        <time>2021-05-26T08:24:58Z</time>
      </trkpt>
      <trkpt lat="44.17335" lon="3.62414">
        <ele>662.12</ele>
        <time>2021-05-26T08:24:59Z</time>
      </trkpt>
      <trkpt lat="44.17395" lon="3.62459">
        <ele>657.63</ele>
        <time>2021-05-26T08:25:04Z</time>
      </trkpt>
      <trkpt lat="44.17428" lon="3.62492">
        <ele>653.52</ele>
        <time>2021-05-26T08:25:07Z</time>
      </trkpt>
      <trkpt lat="44.17437" lon="3.62504">
        <ele>652.08</ele>
        <time>2021-05-26T08:25:08Z</time>
      </trkpt>
      <trkpt lat="44.17464" lon="3.6254">
        <ele>647.72</ele>
        <time>2021-05-26T08:25:11Z</time>
      </trkpt>
      <trkpt lat="44.17524" lon="3.62557">
        <ele>640.69</ele>
        <time>2021-05-26T08:25:17Z</time>
      </trkpt>
      <trkpt lat="44.17549" lon="3.62497">
        <ele>635.02</ele>
        <time>2021-05-26T08:25:23Z</time>
      </trkpt>
      <trkpt lat="44.17587" lon="3.62477">
        <ele>630.23</ele>
        <time>2021-05-26T08:25:29Z</time>
      </trkpt>
      <trkpt lat="44.17592" lon="3.62482">
        <ele>630.24</ele>
        <time>2021-05-26T08:25:30Z</time>
      </trkpt>
      <trkpt lat="44.17595" lon="3.62585">
        <ele>625.58</ele>
        <time>2021-05-26T08:25:38Z</time>
      </trkpt>
      <trkpt lat="44.17607" lon="3.6262">
        <ele>622.35</ele>
        <time>2021-05-26T08:25:41Z</time>
      </trkpt>
      <trkpt lat="44.17658" lon="3.62619">
        <ele>617.84</ele>
        <time>2021-05-26T08:25:47Z</time>
      </trkpt>
      <trkpt lat="44.17665" lon="3.62613">
        <ele>617.9</ele>
        <time>2021-05-26T08:25:48Z</time>
      </trkpt>
      <trkpt lat="44.17684" lon="3.62606">
        <ele>613.94</ele>
        <time>2021-05-26T08:25:51Z</time>
      </trkpt>
      <trkpt lat="44.17688" lon="3.62606">
        <ele>613.97</ele>
        <time>2021-05-26T08:25:52Z</time>
      </trkpt>
      <trkpt lat="44.17666" lon="3.62653">
        <ele>610.44</ele>
        <time>2021-05-26T08:26:02Z</time>
      </trkpt>
      <trkpt lat="44.17484" lon="3.62715">
        <ele>602.99</ele>
        <time>2021-05-26T08:26:24Z</time>
      </trkpt>
      <trkpt lat="44.17425" lon="3.62824">
        <ele>596.51</ele>
        <time>2021-05-26T08:26:41Z</time>
      </trkpt>
      <trkpt lat="44.1743" lon="3.62843">
        <ele>596.6</ele>
        <time>2021-05-26T08:26:47Z</time>
      </trkpt>
      <trkpt lat="44.17265" lon="3.63045">
        <ele>594.95</ele>
        <time>2021-05-26T08:27:09Z</time>
      </trkpt>
      <trkpt lat="44.17258" lon="3.63055">
        <ele>594.95</ele>
        <time>2021-05-26T08:27:10Z</time>
      </trkpt>
      <trkpt lat="44.17171" lon="3.63264">
        <ele>590.62</ele>
        <time>2021-05-26T08:27:33Z</time>
      </trkpt>
      <trkpt lat="44.17164" lon="3.63265">
        <ele>590.58</ele>
        <time>2021-05-26T08:27:34Z</time>
      </trkpt>
      <trkpt lat="44.17142" lon="3.63326">
        <ele>588.29</ele>
        <time>2021-05-26T08:27:40Z</time>
      </trkpt>
      <trkpt lat="44.17119" lon="3.63397">
        <ele>584.54</ele>
        <time>2021-05-26T08:27:46Z</time>
      </trkpt>
      <trkpt lat="44.17143" lon="3.63473">
        <ele>580.76</ele>
        <time>2021-05-26T08:27:52Z</time>
      </trkpt>
      <trkpt lat="44.17168" lon="3.63511">
        <ele>576.97</ele>
        <time>2021-05-26T08:27:58Z</time>
      </trkpt>
      <trkpt lat="44.17157" lon="3.63524">
        <ele>576.35</ele>
        <time>2021-05-26T08:28:00Z</time>
      </trkpt>
      <trkpt lat="44.1715" lon="3.63532">
        <ele>576.35</ele>
        <time>2021-05-26T08:28:01Z</time>
      </trkpt>
      <trkpt lat="44.17112" lon="3.63599">
        <ele>572.98</ele>
        <time>2021-05-26T08:28:07Z</time>
      </trkpt>
      <trkpt lat="44.17104" lon="3.63605">
        <ele>572.89</ele>
        <time>2021-05-26T08:28:08Z</time>
      </trkpt>
      <trkpt lat="44.17096" lon="3.63611">
        <ele>571.65</ele>
        <time>2021-05-26T08:28:09Z</time>
      </trkpt>
      <trkpt lat="44.17089" lon="3.63618">
        <ele>571.68</ele>
        <time>2021-05-26T08:28:10Z</time>
      </trkpt>
      <trkpt lat="44.17081" lon="3.63658">
        <ele>568.63</ele>
        <time>2021-05-26T08:28:14Z</time>
      </trkpt>
      <trkpt lat="44.17086" lon="3.63685">
        <ele>568.66</ele>
        <time>2021-05-26T08:28:16Z</time>
      </trkpt>
      <trkpt lat="44.17088" lon="3.63766">
        <ele>564.9</ele>
        <time>2021-05-26T08:28:21Z</time>
      </trkpt>
      <trkpt lat="44.1709" lon="3.63801">
        <ele>561.67</ele>
        <time>2021-05-26T08:28:24Z</time>
      </trkpt>
      <trkpt lat="44.17086" lon="3.63813">
        <ele>561.68</ele>
        <time>2021-05-26T08:28:25Z</time>
      </trkpt>
      <trkpt lat="44.17081" lon="3.63823">
        <ele>561.67</ele>
        <time>2021-05-26T08:28:26Z</time>
      </trkpt>
      <trkpt lat="44.17029" lon="3.63925">
        <ele>555.93</ele>
        <time>2021-05-26T08:28:34Z</time>
      </trkpt>
      <trkpt lat="44.17006" lon="3.63962">
        <ele>552.79</ele>
        <time>2021-05-26T08:28:38Z</time>
      </trkpt>
      <trkpt lat="44.16989" lon="3.64029">
        <ele>548.34</ele>
        <time>2021-05-26T08:28:44Z</time>
      </trkpt>
      <trkpt lat="44.16987" lon="3.64041">
        <ele>548.42</ele>
        <time>2021-05-26T08:28:45Z</time>
      </trkpt>
      <trkpt lat="44.16988" lon="3.64172">
        <ele>542.77</ele>
        <time>2021-05-26T08:28:54Z</time>
      </trkpt>
      <trkpt lat="44.16991" lon="3.64258">
        <ele>538.25</ele>
        <time>2021-05-26T08:29:01Z</time>
      </trkpt>
      <trkpt lat="44.16991" lon="3.64272">
        <ele>538.24</ele>
        <time>2021-05-26T08:29:02Z</time>
      </trkpt>
      <trkpt lat="44.16948" lon="3.64414">
        <ele>531.49</ele>
        <time>2021-05-26T08:29:13Z</time>
      </trkpt>
      <trkpt lat="44.16936" lon="3.64493">
        <ele>526.99</ele>
        <time>2021-05-26T08:29:18Z</time>
      </trkpt>
      <trkpt lat="44.16929" lon="3.64528">
        <ele>525.38</ele>
        <time>2021-05-26T08:29:21Z</time>
      </trkpt>
      <trkpt lat="44.16954" lon="3.64565">
        <ele>521.58</ele>
        <time>2021-05-26T08:29:26Z</time>
      </trkpt>
      <trkpt lat="44.16962" lon="3.64569">
        <ele>521.59</ele>
        <time>2021-05-26T08:29:27Z</time>
      </trkpt>
      <trkpt lat="44.17056" lon="3.64632">
        <ele>526.91</ele>
        <time>2021-05-26T08:29:40Z</time>
      </trkpt>
      <trkpt lat="44.17113" lon="3.64619">
        <ele>529.91</ele>
        <time>2021-05-26T08:29:45Z</time>
      </trkpt>
      <trkpt lat="44.17172" lon="3.64582">
        <ele>533.77</ele>
        <time>2021-05-26T08:29:51Z</time>
      </trkpt>
      <trkpt lat="44.17219" lon="3.64554">
        <ele>537.86</ele>
        <time>2021-05-26T08:29:55Z</time>
      </trkpt>
      <trkpt lat="44.17278" lon="3.64534">
        <ele>541.44</ele>
        <time>2021-05-26T08:29:59Z</time>
      </trkpt>
      <trkpt lat="44.17328" lon="3.64517">
        <ele>542.82</ele>
        <time>2021-05-26T08:30:03Z</time>
      </trkpt>
      <trkpt lat="44.17348" lon="3.64578">
        <ele>547.46</ele>
        <time>2021-05-26T08:30:14Z</time>
      </trkpt>
      <trkpt lat="44.1731" lon="3.64595">
        <ele>550.97</ele>
        <time>2021-05-26T08:30:17Z</time>
      </trkpt>
      <trkpt lat="44.17298" lon="3.64601">
        <ele>550.99</ele>
        <time>2021-05-26T08:30:18Z</time>
      </trkpt>
      <trkpt lat="44.17273" lon="3.64614">
        <ele>552.56</ele>
        <time>2021-05-26T08:30:20Z</time>
      </trkpt>
      <trkpt lat="44.17192" lon="3.647">
        <ele>553.95</ele>
        <time>2021-05-26T08:30:59Z</time>
      </trkpt>
      <trkpt lat="44.17119" lon="3.64746">
        <ele>559.1</ele>
        <time>2021-05-26T08:31:07Z</time>
      </trkpt>
      <trkpt lat="44.1708" lon="3.64794">
        <ele>563.15</ele>
        <time>2021-05-26T08:31:11Z</time>
      </trkpt>
      <trkpt lat="44.17074" lon="3.64806">
        <ele>563.23</ele>
        <time>2021-05-26T08:31:12Z</time>
      </trkpt>
      <trkpt lat="44.17065" lon="3.64873">
        <ele>566.7</ele>
        <time>2021-05-26T08:31:17Z</time>
      </trkpt>
      <trkpt lat="44.17068" lon="3.64891">
        <ele>566.66</ele>
        <time>2021-05-26T08:31:18Z</time>
      </trkpt>
      <trkpt lat="44.17073" lon="3.6491">
        <ele>568.82</ele>
        <time>2021-05-26T08:31:19Z</time>
      </trkpt>
      <trkpt lat="44.17084" lon="3.64946">
        <ele>570.78</ele>
        <time>2021-05-26T08:31:21Z</time>
      </trkpt>
      <trkpt lat="44.17087" lon="3.64964">
        <ele>570.84</ele>
        <time>2021-05-26T08:31:22Z</time>
      </trkpt>
      <trkpt lat="44.1709" lon="3.65021">
        <ele>574.01</ele>
        <time>2021-05-26T08:31:25Z</time>
      </trkpt>
      <trkpt lat="44.17103" lon="3.65105">
        <ele>579.66</ele>
        <time>2021-05-26T08:31:29Z</time>
      </trkpt>
      <trkpt lat="44.17104" lon="3.65129">
        <ele>581.71</ele>
        <time>2021-05-26T08:31:30Z</time>
      </trkpt>
      <trkpt lat="44.17105" lon="3.65175">
        <ele>582.66</ele>
        <time>2021-05-26T08:31:32Z</time>
      </trkpt>
      <trkpt lat="44.17102" lon="3.65219">
        <ele>586.36</ele>
        <time>2021-05-26T08:31:34Z</time>
      </trkpt>
      <trkpt lat="44.17092" lon="3.65291">
        <ele>590.26</ele>
        <time>2021-05-26T08:31:37Z</time>
      </trkpt>
      <trkpt lat="44.17082" lon="3.65422">
        <ele>594.3</ele>
        <time>2021-05-26T08:31:48Z</time>
      </trkpt>
      <trkpt lat="44.17094" lon="3.6542">
        <ele>595.79</ele>
        <time>2021-05-26T08:31:49Z</time>
      </trkpt>
      <trkpt lat="44.17137" lon="3.65412">
        <ele>599.43</ele>
        <time>2021-05-26T08:31:52Z</time>
      </trkpt>
      <trkpt lat="44.17215" lon="3.65437">
        <ele>606.22</ele>
        <time>2021-05-26T08:31:57Z</time>
      </trkpt>
      <trkpt lat="44.1723" lon="3.65444">
        <ele>606.25</ele>
        <time>2021-05-26T08:31:58Z</time>
      </trkpt>
      <trkpt lat="44.1731" lon="3.65498">
        <ele>612.48</ele>
        <time>2021-05-26T08:32:06Z</time>
      </trkpt>
      <trkpt lat="44.17366" lon="3.6554">
        <ele>617.74</ele>
        <time>2021-05-26T08:32:11Z</time>
      </trkpt>
      <trkpt lat="44.17456" lon="3.65529">
        <ele>622.56</ele>
        <time>2021-05-26T08:32:17Z</time>
      </trkpt>
      <trkpt lat="44.17515" lon="3.65493">
        <ele>626.65</ele>
        <time>2021-05-26T08:32:21Z</time>
      </trkpt>
      <trkpt lat="44.17601" lon="3.65474">
        <ele>632.91</ele>
        <time>2021-05-26T08:32:30Z</time>
      </trkpt>
      <trkpt lat="44.17641" lon="3.65516">
        <ele>637.11</ele>
        <time>2021-05-26T08:32:34Z</time>
      </trkpt>
      <trkpt lat="44.17697" lon="3.65545">
        <ele>641.94</ele>
        <time>2021-05-26T08:32:38Z</time>
      </trkpt>
      <trkpt lat="44.17755" lon="3.65556">
        <ele>645.67</ele>
        <time>2021-05-26T08:32:43Z</time>
      </trkpt>
      <trkpt lat="44.17764" lon="3.65562">
        <ele>645.84</ele>
        <time>2021-05-26T08:32:44Z</time>
      </trkpt>
      <trkpt lat="44.17788" lon="3.65596">
        <ele>649.69</ele>
        <time>2021-05-26T08:32:47Z</time>
      </trkpt>
      <trkpt lat="44.17798" lon="3.65604">
        <ele>649.93</ele>
        <time>2021-05-26T08:32:48Z</time>
      </trkpt>
      <trkpt lat="44.17868" lon="3.65602">
        <ele>655.95</ele>
        <time>2021-05-26T08:32:54Z</time>
      </trkpt>
      <trkpt lat="44.17925" lon="3.65623">
        <ele>660.8</ele>
        <time>2021-05-26T08:33:00Z</time>
      </trkpt>
      <trkpt lat="44.17963" lon="3.65669">
        <ele>666.02</ele>
        <time>2021-05-26T08:33:04Z</time>
      </trkpt>
      <trkpt lat="44.18014" lon="3.65682">
        <ele>669.51</ele>
        <time>2021-05-26T08:33:08Z</time>
      </trkpt>
      <trkpt lat="44.18027" lon="3.65678">
        <ele>670.78</ele>
        <time>2021-05-26T08:33:09Z</time>
      </trkpt>
      <trkpt lat="44.1804" lon="3.65675">
        <ele>671.68</ele>
        <time>2021-05-26T08:33:10Z</time>
      </trkpt>
      <trkpt lat="44.18152" lon="3.65666">
        <ele>679.01</ele>
        <time>2021-05-26T08:33:20Z</time>
      </trkpt>
      <trkpt lat="44.18306" lon="3.65697">
        <ele>687.02</ele>
        <time>2021-05-26T08:33:33Z</time>
      </trkpt>
      <trkpt lat="44.18317" lon="3.65689">
        <ele>687.01</ele>
        <time>2021-05-26T08:33:34Z</time>
      </trkpt>
      <trkpt lat="44.18372" lon="3.65695">
        <ele>690.92</ele>
        <time>2021-05-26T08:33:39Z</time>
      </trkpt>
      <trkpt lat="44.1842" lon="3.65679">
        <ele>694.43</ele>
        <time>2021-05-26T08:33:43Z</time>
      </trkpt>
      <trkpt lat="44.18473" lon="3.65666">
        <ele>698.67</ele>
        <time>2021-05-26T08:33:47Z</time>
      </trkpt>
      <trkpt lat="44.18488" lon="3.65671">
        <ele>699.93</ele>
        <time>2021-05-26T08:33:48Z</time>
      </trkpt>
      <trkpt lat="44.18503" lon="3.65676">
        <ele>701.14</ele>
        <time>2021-05-26T08:33:49Z</time>
      </trkpt>
      <trkpt lat="44.18564" lon="3.65672">
        <ele>705.23</ele>
        <time>2021-05-26T08:33:53Z</time>
      </trkpt>
      <trkpt lat="44.18654" lon="3.65594">
        <ele>711.28</ele>
        <time>2021-05-26T08:34:05Z</time>
      </trkpt>
      <trkpt lat="44.18717" lon="3.65562">
        <ele>716.26</ele>
        <time>2021-05-26T08:34:12Z</time>
      </trkpt>
      <trkpt lat="44.18806" lon="3.65527">
        <ele>723.26</ele>
        <time>2021-05-26T08:34:20Z</time>
      </trkpt>
      <trkpt lat="44.18854" lon="3.65438">
        <ele>727.99</ele>
        <time>2021-05-26T08:34:31Z</time>
      </trkpt>
      <trkpt lat="44.18862" lon="3.65443">
        <ele>727.98</ele>
        <time>2021-05-26T08:34:32Z</time>
      </trkpt>
      <trkpt lat="44.18901" lon="3.65443">
        <ele>731.88</ele>
        <time>2021-05-26T08:34:36Z</time>
      </trkpt>
      <trkpt lat="44.18909" lon="3.65445">
        <ele>731.86</ele>
        <time>2021-05-26T08:34:37Z</time>
      </trkpt>
      <trkpt lat="44.18912" lon="3.65544">
        <ele>737.08</ele>
        <time>2021-05-26T08:34:46Z</time>
      </trkpt>
      <trkpt lat="44.18914" lon="3.65552">
        <ele>737.07</ele>
        <time>2021-05-26T08:34:47Z</time>
      </trkpt>
      <trkpt lat="44.18968" lon="3.65519">
        <ele>742.71</ele>
        <time>2021-05-26T08:34:56Z</time>
      </trkpt>
      <trkpt lat="44.19031" lon="3.65478">
        <ele>749.03</ele>
        <time>2021-05-26T08:35:01Z</time>
      </trkpt>
      <trkpt lat="44.19072" lon="3.65447">
        <ele>752.36</ele>
        <time>2021-05-26T08:35:04Z</time>
      </trkpt>
      <trkpt lat="44.19135" lon="3.65348">
        <ele>759.02</ele>
        <time>2021-05-26T08:35:10Z</time>
      </trkpt>
      <trkpt lat="44.19171" lon="3.65267">
        <ele>762.89</ele>
        <time>2021-05-26T08:35:15Z</time>
      </trkpt>
      <trkpt lat="44.19178" lon="3.65253">
        <ele>762.88</ele>
        <time>2021-05-26T08:35:16Z</time>
      </trkpt>
      <trkpt lat="44.19234" lon="3.65325">
        <ele>769.99</ele>
        <time>2021-05-26T08:35:29Z</time>
      </trkpt>
      <trkpt lat="44.19305" lon="3.65315">
        <ele>775.6</ele>
        <time>2021-05-26T08:35:36Z</time>
      </trkpt>
      <trkpt lat="44.19355" lon="3.6518">
        <ele>779.88</ele>
        <time>2021-05-26T08:35:44Z</time>
      </trkpt>
      <trkpt lat="44.19366" lon="3.65117">
        <ele>776.87</ele>
        <time>2021-05-26T08:35:48Z</time>
      </trkpt>
      <trkpt lat="44.19441" lon="3.65187">
        <ele>778.39</ele>
        <time>2021-05-26T08:36:00Z</time>
      </trkpt>
      <trkpt lat="44.1951" lon="3.65615">
        <ele>773.7</ele>
        <time>2021-05-26T08:36:41Z</time>
      </trkpt>
      <trkpt lat="44.19503" lon="3.65671">
        <ele>773.78</ele>
        <time>2021-05-26T08:36:45Z</time>
      </trkpt>
      <trkpt lat="44.19505" lon="3.65659">
        <ele>776.69</ele>
        <time>2021-05-26T08:36:58Z</time>
      </trkpt>
      <trkpt lat="44.19516" lon="3.65572">
        <ele>772.1</ele>
        <time>2021-05-26T08:37:09Z</time>
      </trkpt>
      <trkpt lat="44.19514" lon="3.65572">
        <ele>772.1</ele>
        <time>2021-05-26T08:37:10Z</time>
      </trkpt>
      <trkpt lat="44.19504" lon="3.65637">
        <ele>775.3</ele>
        <time>2021-05-26T08:37:17Z</time>
      </trkpt>
      <trkpt lat="44.19499" lon="3.65702">
        <ele>779.67</ele>
        <time>2021-05-26T08:37:20Z</time>
      </trkpt>
      <trkpt lat="44.19497" lon="3.65725">
        <ele>779.68</ele>
        <time>2021-05-26T08:37:21Z</time>
      </trkpt>
      <trkpt lat="44.19468" lon="3.65855">
        <ele>783.27</ele>
        <time>2021-05-26T08:37:28Z</time>
      </trkpt>
      <trkpt lat="44.194" lon="3.66">
        <ele>789.64</ele>
        <time>2021-05-26T08:37:35Z</time>
      </trkpt>
      <trkpt lat="44.1939" lon="3.66022">
        <ele>789.66</ele>
        <time>2021-05-26T08:37:36Z</time>
      </trkpt>
      <trkpt lat="44.19381" lon="3.66043">
        <ele>791</ele>
        <time>2021-05-26T08:37:37Z</time>
      </trkpt>
      <trkpt lat="44.19375" lon="3.66065">
        <ele>790.98</ele>
        <time>2021-05-26T08:37:38Z</time>
      </trkpt>
      <trkpt lat="44.19366" lon="3.66112">
        <ele>792.27</ele>
        <time>2021-05-26T08:37:40Z</time>
      </trkpt>
      <trkpt lat="44.19348" lon="3.66232">
        <ele>797.7</ele>
        <time>2021-05-26T08:37:45Z</time>
      </trkpt>
      <trkpt lat="44.19341" lon="3.6631">
        <ele>800.01</ele>
        <time>2021-05-26T08:37:48Z</time>
      </trkpt>
      <trkpt lat="44.19346" lon="3.66434">
        <ele>804.88</ele>
        <time>2021-05-26T08:37:53Z</time>
      </trkpt>
      <trkpt lat="44.19345" lon="3.6646">
        <ele>804.99</ele>
        <time>2021-05-26T08:37:54Z</time>
      </trkpt>
      <trkpt lat="44.1934" lon="3.66533">
        <ele>808.1</ele>
        <time>2021-05-26T08:37:57Z</time>
      </trkpt>
      <trkpt lat="44.19338" lon="3.66557">
        <ele>808.11</ele>
        <time>2021-05-26T08:37:58Z</time>
      </trkpt>
      <trkpt lat="44.19332" lon="3.66603">
        <ele>809.52</ele>
        <time>2021-05-26T08:38:00Z</time>
      </trkpt>
      <trkpt lat="44.19299" lon="3.66689">
        <ele>813.43</ele>
        <time>2021-05-26T08:38:04Z</time>
      </trkpt>
      <trkpt lat="44.19287" lon="3.66708">
        <ele>813.36</ele>
        <time>2021-05-26T08:38:05Z</time>
      </trkpt>
      <trkpt lat="44.19186" lon="3.66805">
        <ele>817.15</ele>
        <time>2021-05-26T08:38:12Z</time>
      </trkpt>
      <trkpt lat="44.19097" lon="3.66854">
        <ele>821.18</ele>
        <time>2021-05-26T08:38:17Z</time>
      </trkpt>
      <trkpt lat="44.18978" lon="3.66894">
        <ele>823.45</ele>
        <time>2021-05-26T08:38:23Z</time>
      </trkpt>
      <trkpt lat="44.18885" lon="3.66926">
        <ele>826.62</ele>
        <time>2021-05-26T08:38:28Z</time>
      </trkpt>
      <trkpt lat="44.18867" lon="3.6693">
        <ele>826.63</ele>
        <time>2021-05-26T08:38:29Z</time>
      </trkpt>
      <trkpt lat="44.18753" lon="3.6692">
        <ele>830.34</ele>
        <time>2021-05-26T08:38:36Z</time>
      </trkpt>
      <trkpt lat="44.18696" lon="3.66948">
        <ele>833.52</ele>
        <time>2021-05-26T08:38:40Z</time>
      </trkpt>
      <trkpt lat="44.18683" lon="3.66961">
        <ele>833.52</ele>
        <time>2021-05-26T08:38:41Z</time>
      </trkpt>
      <trkpt lat="44.18558" lon="3.67264">
        <ele>830.26</ele>
        <time>2021-05-26T08:38:57Z</time>
      </trkpt>
      <trkpt lat="44.18527" lon="3.67354">
        <ele>827.18</ele>
        <time>2021-05-26T08:39:02Z</time>
      </trkpt>
      <trkpt lat="44.18514" lon="3.67392">
        <ele>824.02</ele>
        <time>2021-05-26T08:39:04Z</time>
      </trkpt>
      <trkpt lat="44.18494" lon="3.67446">
        <ele>820.02</ele>
        <time>2021-05-26T08:39:07Z</time>
      </trkpt>
      <trkpt lat="44.18473" lon="3.675">
        <ele>816.51</ele>
        <time>2021-05-26T08:39:10Z</time>
      </trkpt>
      <trkpt lat="44.18466" lon="3.67518">
        <ele>816.46</ele>
        <time>2021-05-26T08:39:11Z</time>
      </trkpt>
      <trkpt lat="44.1841" lon="3.67661">
        <ele>814.72</ele>
        <time>2021-05-26T08:39:20Z</time>
      </trkpt>
      <trkpt lat="44.18408" lon="3.67675">
        <ele>814.75</ele>
        <time>2021-05-26T08:39:21Z</time>
      </trkpt>
      <trkpt lat="44.18437" lon="3.67938">
        <ele>809.29</ele>
        <time>2021-05-26T08:39:35Z</time>
      </trkpt>
      <trkpt lat="44.18407" lon="3.68094">
        <ele>805.02</ele>
        <time>2021-05-26T08:39:45Z</time>
      </trkpt>
      <trkpt lat="44.18407" lon="3.6811">
        <ele>804.95</ele>
        <time>2021-05-26T08:39:46Z</time>
      </trkpt>
      <trkpt lat="44.18448" lon="3.68316">
        <ele>802.14</ele>
        <time>2021-05-26T08:39:58Z</time>
      </trkpt>
      <trkpt lat="44.18468" lon="3.68421">
        <ele>800.47</ele>
        <time>2021-05-26T08:40:11Z</time>
      </trkpt>
      <trkpt lat="44.18451" lon="3.685">
        <ele>796.52</ele>
        <time>2021-05-26T08:40:19Z</time>
      </trkpt>
      <trkpt lat="44.18446" lon="3.68562">
        <ele>793.15</ele>
        <time>2021-05-26T08:40:24Z</time>
      </trkpt>
      <trkpt lat="44.18447" lon="3.68574">
        <ele>793.08</ele>
        <time>2021-05-26T08:40:25Z</time>
      </trkpt>
      <trkpt lat="44.18455" lon="3.68615">
        <ele>790.87</ele>
        <time>2021-05-26T08:40:48Z</time>
      </trkpt>
      <trkpt lat="44.18454" lon="3.68607">
        <ele>790.89</ele>
        <time>2021-05-26T08:40:50Z</time>
      </trkpt>
      <trkpt lat="44.1845" lon="3.68542">
        <ele>790.94</ele>
        <time>2021-05-26T08:40:56Z</time>
      </trkpt>
      <trkpt lat="44.18453" lon="3.68514">
        <ele>794.77</ele>
        <time>2021-05-26T08:40:58Z</time>
      </trkpt>
      <trkpt lat="44.1847" lon="3.68427">
        <ele>799.65</ele>
        <time>2021-05-26T08:41:05Z</time>
      </trkpt>
      <trkpt lat="44.18442" lon="3.68281">
        <ele>801.47</ele>
        <time>2021-05-26T08:41:17Z</time>
      </trkpt>
      <trkpt lat="44.18436" lon="3.68249">
        <ele>801.3</ele>
        <time>2021-05-26T08:41:22Z</time>
      </trkpt>
      <trkpt lat="44.18449" lon="3.68257">
        <ele>798.34</ele>
        <time>2021-05-26T08:43:05Z</time>
      </trkpt>
      <trkpt lat="44.18493" lon="3.68288">
        <ele>793.61</ele>
        <time>2021-05-26T08:43:16Z</time>
      </trkpt>
      <trkpt lat="44.18501" lon="3.683">
        <ele>792.7</ele>
        <time>2021-05-26T08:43:18Z</time>
      </trkpt>
      <trkpt lat="44.18518" lon="3.68329">
        <ele>789.76</ele>
        <time>2021-05-26T08:43:22Z</time>
      </trkpt>
      <trkpt lat="44.18548" lon="3.68365">
        <ele>785.67</ele>
        <time>2021-05-26T08:43:28Z</time>
      </trkpt>
      <trkpt lat="44.18573" lon="3.68399">
        <ele>781.6</ele>
        <time>2021-05-26T08:43:34Z</time>
      </trkpt>
      <trkpt lat="44.18572" lon="3.68438">
        <ele>778.33</ele>
        <time>2021-05-26T08:43:39Z</time>
      </trkpt>
      <trkpt lat="44.18556" lon="3.68473">
        <ele>774.7</ele>
        <time>2021-05-26T08:43:44Z</time>
      </trkpt>
      <trkpt lat="44.18551" lon="3.68478">
        <ele>774.71</ele>
        <time>2021-05-26T08:43:45Z</time>
      </trkpt>
      <trkpt lat="44.18523" lon="3.6852">
        <ele>771</ele>
        <time>2021-05-26T08:43:52Z</time>
      </trkpt>
      <trkpt lat="44.18522" lon="3.68525">
        <ele>770.94</ele>
        <time>2021-05-26T08:43:53Z</time>
      </trkpt>
      <trkpt lat="44.18542" lon="3.68512">
        <ele>767.11</ele>
        <time>2021-05-26T08:44:03Z</time>
      </trkpt>
      <trkpt lat="44.18567" lon="3.68494">
        <ele>763.96</ele>
        <time>2021-05-26T08:44:09Z</time>
      </trkpt>
      <trkpt lat="44.18601" lon="3.68468">
        <ele>760.48</ele>
        <time>2021-05-26T08:44:16Z</time>
      </trkpt>
      <trkpt lat="44.18659" lon="3.68385">
        <ele>753</ele>
        <time>2021-05-26T08:44:28Z</time>
      </trkpt>
      <trkpt lat="44.18667" lon="3.68354">
        <ele>749.89</ele>
        <time>2021-05-26T08:44:32Z</time>
      </trkpt>
      <trkpt lat="44.18665" lon="3.6832">
        <ele>746.66</ele>
        <time>2021-05-26T08:44:36Z</time>
      </trkpt>
      <trkpt lat="44.1866" lon="3.68269">
        <ele>743.29</ele>
        <time>2021-05-26T08:44:41Z</time>
      </trkpt>
      <trkpt lat="44.18659" lon="3.6826">
        <ele>743.25</ele>
        <time>2021-05-26T08:44:42Z</time>
      </trkpt>
      <trkpt lat="44.18654" lon="3.68221">
        <ele>739.93</ele>
        <time>2021-05-26T08:44:46Z</time>
      </trkpt>
      <trkpt lat="44.18652" lon="3.68212">
        <ele>739.93</ele>
        <time>2021-05-26T08:44:47Z</time>
      </trkpt>
      <trkpt lat="44.18653" lon="3.68189">
        <ele>735.9</ele>
        <time>2021-05-26T08:44:55Z</time>
      </trkpt>
      <trkpt lat="44.18655" lon="3.68195">
        <ele>735.94</ele>
        <time>2021-05-26T08:44:56Z</time>
      </trkpt>
      <trkpt lat="44.1867" lon="3.68223">
        <ele>732.35</ele>
        <time>2021-05-26T08:45:01Z</time>
      </trkpt>
      <trkpt lat="44.18673" lon="3.68228">
        <ele>732.31</ele>
        <time>2021-05-26T08:45:02Z</time>
      </trkpt>
      <trkpt lat="44.18715" lon="3.68288">
        <ele>726.78</ele>
        <time>2021-05-26T08:45:13Z</time>
      </trkpt>
      <trkpt lat="44.18719" lon="3.68294">
        <ele>726.77</ele>
        <time>2021-05-26T08:45:14Z</time>
      </trkpt>
      <trkpt lat="44.18723" lon="3.683">
        <ele>725.29</ele>
        <time>2021-05-26T08:45:15Z</time>
      </trkpt>
      <trkpt lat="44.18727" lon="3.68306">
        <ele>725.3</ele>
        <time>2021-05-26T08:45:16Z</time>
      </trkpt>
      <trkpt lat="44.1874" lon="3.68322">
        <ele>722.79</ele>
        <time>2021-05-26T08:45:19Z</time>
      </trkpt>
      <trkpt lat="44.18776" lon="3.68356">
        <ele>719.14</ele>
        <time>2021-05-26T08:45:27Z</time>
      </trkpt>
      <trkpt lat="44.18779" lon="3.68361">
        <ele>719.19</ele>
        <time>2021-05-26T08:45:28Z</time>
      </trkpt>
      <trkpt lat="44.18775" lon="3.68412">
        <ele>714.58</ele>
        <time>2021-05-26T08:45:36Z</time>
      </trkpt>
      <trkpt lat="44.18767" lon="3.68422">
        <ele>713.14</ele>
        <time>2021-05-26T08:45:38Z</time>
      </trkpt>
      <trkpt lat="44.18755" lon="3.68439">
        <ele>710.93</ele>
        <time>2021-05-26T08:45:41Z</time>
      </trkpt>
      <trkpt lat="44.18731" lon="3.68478">
        <ele>707.04</ele>
        <time>2021-05-26T08:45:48Z</time>
      </trkpt>
      <trkpt lat="44.18772" lon="3.68447">
        <ele>700.2</ele>
        <time>2021-05-26T08:46:04Z</time>
      </trkpt>
      <trkpt lat="44.18777" lon="3.68443">
        <ele>700.19</ele>
        <time>2021-05-26T08:46:05Z</time>
      </trkpt>
      <trkpt lat="44.18837" lon="3.68402">
        <ele>692.97</ele>
        <time>2021-05-26T08:46:17Z</time>
      </trkpt>
      <trkpt lat="44.18841" lon="3.68398">
        <ele>692.96</ele>
        <time>2021-05-26T08:46:18Z</time>
      </trkpt>
      <trkpt lat="44.18858" lon="3.68367">
        <ele>689.91</ele>
        <time>2021-05-26T08:46:24Z</time>
      </trkpt>
      <trkpt lat="44.18857" lon="3.68309">
        <ele>685.56</ele>
        <time>2021-05-26T08:46:32Z</time>
      </trkpt>
      <trkpt lat="44.18856" lon="3.68301">
        <ele>685.49</ele>
        <time>2021-05-26T08:46:33Z</time>
      </trkpt>
      <trkpt lat="44.18855" lon="3.68293">
        <ele>684.46</ele>
        <time>2021-05-26T08:46:34Z</time>
      </trkpt>
      <trkpt lat="44.18857" lon="3.68232">
        <ele>679.84</ele>
        <time>2021-05-26T08:46:42Z</time>
      </trkpt>
      <trkpt lat="44.18874" lon="3.68195">
        <ele>675.94</ele>
        <time>2021-05-26T08:46:52Z</time>
      </trkpt>
      <trkpt lat="44.18882" lon="3.68244">
        <ele>669.73</ele>
        <time>2021-05-26T08:47:04Z</time>
      </trkpt>
      <trkpt lat="44.18898" lon="3.68274">
        <ele>666.57</ele>
        <time>2021-05-26T08:47:11Z</time>
      </trkpt>
      <trkpt lat="44.18904" lon="3.68285">
        <ele>665.44</ele>
        <time>2021-05-26T08:47:13Z</time>
      </trkpt>
      <trkpt lat="44.18926" lon="3.68316">
        <ele>662.33</ele>
        <time>2021-05-26T08:47:18Z</time>
      </trkpt>
      <trkpt lat="44.18938" lon="3.68334">
        <ele>660.2</ele>
        <time>2021-05-26T08:47:21Z</time>
      </trkpt>
      <trkpt lat="44.18941" lon="3.6834">
        <ele>660.21</ele>
        <time>2021-05-26T08:47:22Z</time>
      </trkpt>
      <trkpt lat="44.18933" lon="3.68422">
        <ele>652.75</ele>
        <time>2021-05-26T08:47:34Z</time>
      </trkpt>
      <trkpt lat="44.18931" lon="3.68428">
        <ele>652.74</ele>
        <time>2021-05-26T08:47:35Z</time>
      </trkpt>
      <trkpt lat="44.18902" lon="3.68471">
        <ele>647.01</ele>
        <time>2021-05-26T08:47:47Z</time>
      </trkpt>
      <trkpt lat="44.18901" lon="3.68478">
        <ele>647.04</ele>
        <time>2021-05-26T08:47:48Z</time>
      </trkpt>
      <trkpt lat="44.18895" lon="3.68513">
        <ele>644.04</ele>
        <time>2021-05-26T08:47:54Z</time>
      </trkpt>
      <trkpt lat="44.1891" lon="3.68592">
        <ele>640.73</ele>
        <time>2021-05-26T08:48:10Z</time>
      </trkpt>
      <trkpt lat="44.18928" lon="3.68634">
        <ele>637.17</ele>
        <time>2021-05-26T08:48:16Z</time>
      </trkpt>
      <trkpt lat="44.18948" lon="3.6866">
        <ele>634.04</ele>
        <time>2021-05-26T08:48:25Z</time>
      </trkpt>
      <trkpt lat="44.18964" lon="3.68679">
        <ele>633.5</ele>
        <time>2021-05-26T08:48:49Z</time>
      </trkpt>
      <trkpt lat="44.18997" lon="3.68706">
        <ele>630.39</ele>
        <time>2021-05-26T08:48:56Z</time>
      </trkpt>
      <trkpt lat="44.19002" lon="3.6871">
        <ele>630.36</ele>
        <time>2021-05-26T08:48:57Z</time>
      </trkpt>
      <trkpt lat="44.19017" lon="3.68762">
        <ele>625.7</ele>
        <time>2021-05-26T08:49:09Z</time>
      </trkpt>
      <trkpt lat="44.19088" lon="3.68774">
        <ele>620.34</ele>
        <time>2021-05-26T08:49:26Z</time>
      </trkpt>
      <trkpt lat="44.19094" lon="3.68774">
        <ele>620.3</ele>
        <time>2021-05-26T08:49:27Z</time>
      </trkpt>
      <trkpt lat="44.19177" lon="3.68767">
        <ele>613.78</ele>
        <time>2021-05-26T08:49:42Z</time>
      </trkpt>
      <trkpt lat="44.19185" lon="3.68767">
        <ele>613.72</ele>
        <time>2021-05-26T08:49:43Z</time>
      </trkpt>
      <trkpt lat="44.1922" lon="3.68762">
        <ele>610.01</ele>
        <time>2021-05-26T08:49:48Z</time>
      </trkpt>
      <trkpt lat="44.19275" lon="3.68729">
        <ele>604.77</ele>
        <time>2021-05-26T08:49:57Z</time>
      </trkpt>
      <trkpt lat="44.19339" lon="3.6869">
        <ele>599.07</ele>
        <time>2021-05-26T08:50:07Z</time>
      </trkpt>
      <trkpt lat="44.19376" lon="3.68676">
        <ele>594.94</ele>
        <time>2021-05-26T08:50:13Z</time>
      </trkpt>
      <trkpt lat="44.19432" lon="3.68681">
        <ele>589.76</ele>
        <time>2021-05-26T08:50:24Z</time>
      </trkpt>
      <trkpt lat="44.19468" lon="3.68724">
        <ele>584.39</ele>
        <time>2021-05-26T08:50:33Z</time>
      </trkpt>
      <trkpt lat="44.19472" lon="3.6873">
        <ele>584.34</ele>
        <time>2021-05-26T08:50:34Z</time>
      </trkpt>
      <trkpt lat="44.19501" lon="3.68762">
        <ele>580.64</ele>
        <time>2021-05-26T08:50:40Z</time>
      </trkpt>
      <trkpt lat="44.19521" lon="3.68766">
        <ele>578.17</ele>
        <time>2021-05-26T08:50:43Z</time>
      </trkpt>
      <trkpt lat="44.19527" lon="3.68767">
        <ele>577.12</ele>
        <time>2021-05-26T08:50:44Z</time>
      </trkpt>
      <trkpt lat="44.19562" lon="3.68788">
        <ele>574.06</ele>
        <time>2021-05-26T08:50:51Z</time>
      </trkpt>
      <trkpt lat="44.19567" lon="3.68792">
        <ele>574.06</ele>
        <time>2021-05-26T08:50:52Z</time>
      </trkpt>
      <trkpt lat="44.19597" lon="3.68814">
        <ele>570.62</ele>
        <time>2021-05-26T08:50:57Z</time>
      </trkpt>
      <trkpt lat="44.19619" lon="3.68842">
        <ele>566.71</ele>
        <time>2021-05-26T08:51:02Z</time>
      </trkpt>
      <trkpt lat="44.19657" lon="3.68866">
        <ele>562.7</ele>
        <time>2021-05-26T08:51:09Z</time>
      </trkpt>
      <trkpt lat="44.19738" lon="3.68895">
        <ele>556.76</ele>
        <time>2021-05-26T08:51:20Z</time>
      </trkpt>
      <trkpt lat="44.19763" lon="3.68916">
        <ele>553.05</ele>
        <time>2021-05-26T08:51:24Z</time>
      </trkpt>
      <trkpt lat="44.19784" lon="3.68941">
        <ele>549.07</ele>
        <time>2021-05-26T08:51:28Z</time>
      </trkpt>
      <trkpt lat="44.19788" lon="3.68948">
        <ele>549.05</ele>
        <time>2021-05-26T08:51:29Z</time>
      </trkpt>
      <trkpt lat="44.19817" lon="3.68997">
        <ele>543.08</ele>
        <time>2021-05-26T08:51:47Z</time>
      </trkpt>
      <trkpt lat="44.19822" lon="3.69002">
        <ele>543.08</ele>
        <time>2021-05-26T08:51:48Z</time>
      </trkpt>
      <trkpt lat="44.19855" lon="3.69074">
        <ele>539.01</ele>
        <time>2021-05-26T08:51:57Z</time>
      </trkpt>
      <trkpt lat="44.19858" lon="3.6908">
        <ele>537.74</ele>
        <time>2021-05-26T08:51:58Z</time>
      </trkpt>
      <trkpt lat="44.19861" lon="3.69086">
        <ele>537.72</ele>
        <time>2021-05-26T08:51:59Z</time>
      </trkpt>
      <trkpt lat="44.19804" lon="3.69255">
        <ele>530.06</ele>
        <time>2021-05-26T08:52:31Z</time>
      </trkpt>
      <trkpt lat="44.19803" lon="3.69263">
        <ele>530.03</ele>
        <time>2021-05-26T08:52:32Z</time>
      </trkpt>
      <trkpt lat="44.1978" lon="3.69364">
        <ele>526.32</ele>
        <time>2021-05-26T08:52:44Z</time>
      </trkpt>
      <trkpt lat="44.19777" lon="3.69383">
        <ele>523.11</ele>
        <time>2021-05-26T08:52:47Z</time>
      </trkpt>
      <trkpt lat="44.19763" lon="3.69395">
        <ele>520.1</ele>
        <time>2021-05-26T08:52:51Z</time>
      </trkpt>
      <trkpt lat="44.19725" lon="3.69429">
        <ele>515.25</ele>
        <time>2021-05-26T08:52:59Z</time>
      </trkpt>
      <trkpt lat="44.19722" lon="3.69462">
        <ele>511.28</ele>
        <time>2021-05-26T08:53:02Z</time>
      </trkpt>
      <trkpt lat="44.19718" lon="3.69493">
        <ele>504.9</ele>
        <time>2021-05-26T08:53:05Z</time>
      </trkpt>
      <trkpt lat="44.19706" lon="3.69542">
        <ele>500.84</ele>
        <time>2021-05-26T08:53:11Z</time>
      </trkpt>
      <trkpt lat="44.19707" lon="3.69599">
        <ele>497.12</ele>
        <time>2021-05-26T08:53:18Z</time>
      </trkpt>
      <trkpt lat="44.19707" lon="3.69605">
        <ele>497.14</ele>
        <time>2021-05-26T08:53:19Z</time>
      </trkpt>
      <trkpt lat="44.19691" lon="3.6967">
        <ele>490.36</ele>
        <time>2021-05-26T08:53:30Z</time>
      </trkpt>
      <trkpt lat="44.19685" lon="3.69684">
        <ele>488.85</ele>
        <time>2021-05-26T08:53:32Z</time>
      </trkpt>
      <trkpt lat="44.19678" lon="3.69699">
        <ele>485.14</ele>
        <time>2021-05-26T08:53:34Z</time>
      </trkpt>
      <trkpt lat="44.1966" lon="3.69858">
        <ele>482.14</ele>
        <time>2021-05-26T08:53:56Z</time>
      </trkpt>
      <trkpt lat="44.1963" lon="3.69951">
        <ele>477.7</ele>
        <time>2021-05-26T08:54:07Z</time>
      </trkpt>
      <trkpt lat="44.19592" lon="3.70002">
        <ele>474.01</ele>
        <time>2021-05-26T08:54:13Z</time>
      </trkpt>
      <trkpt lat="44.19573" lon="3.70066">
        <ele>470.23</ele>
        <time>2021-05-26T08:54:18Z</time>
      </trkpt>
      <trkpt lat="44.1957" lon="3.70099">
        <ele>467.67</ele>
        <time>2021-05-26T08:54:20Z</time>
      </trkpt>
      <trkpt lat="44.19568" lon="3.70149">
        <ele>463.73</ele>
        <time>2021-05-26T08:54:23Z</time>
      </trkpt>
      <trkpt lat="44.19567" lon="3.70164">
        <ele>462.67</ele>
        <time>2021-05-26T08:54:24Z</time>
      </trkpt>
      <trkpt lat="44.19552" lon="3.70211">
        <ele>459.03</ele>
        <time>2021-05-26T08:54:28Z</time>
      </trkpt>
      <trkpt lat="44.19515" lon="3.70298">
        <ele>455.36</ele>
        <time>2021-05-26T08:54:35Z</time>
      </trkpt>
      <trkpt lat="44.19512" lon="3.70311">
        <ele>455.28</ele>
        <time>2021-05-26T08:54:36Z</time>
      </trkpt>
      <trkpt lat="44.19502" lon="3.70352">
        <ele>451.15</ele>
        <time>2021-05-26T08:54:40Z</time>
      </trkpt>
      <trkpt lat="44.19524" lon="3.7034">
        <ele>446.94</ele>
        <time>2021-05-26T08:54:47Z</time>
      </trkpt>
      <trkpt lat="44.19527" lon="3.70334">
        <ele>446.89</ele>
        <time>2021-05-26T08:54:48Z</time>
      </trkpt>
      <trkpt lat="44.19542" lon="3.70306">
        <ele>443.47</ele>
        <time>2021-05-26T08:54:52Z</time>
      </trkpt>
      <trkpt lat="44.19545" lon="3.70298">
        <ele>443.47</ele>
        <time>2021-05-26T08:54:53Z</time>
      </trkpt>
      <trkpt lat="44.19601" lon="3.70236">
        <ele>437.68</ele>
        <time>2021-05-26T08:55:03Z</time>
      </trkpt>
      <trkpt lat="44.19621" lon="3.7021">
        <ele>434.23</ele>
        <time>2021-05-26T08:55:06Z</time>
      </trkpt>
      <trkpt lat="44.19639" lon="3.70152">
        <ele>429.12</ele>
        <time>2021-05-26T08:55:11Z</time>
      </trkpt>
      <trkpt lat="44.19649" lon="3.70113">
        <ele>423.34</ele>
        <time>2021-05-26T08:55:16Z</time>
      </trkpt>
      <trkpt lat="44.19651" lon="3.70113">
        <ele>423.25</ele>
        <time>2021-05-26T08:55:17Z</time>
      </trkpt>
      <trkpt lat="44.19634" lon="3.70216">
        <ele>419.59</ele>
        <time>2021-05-26T08:55:31Z</time>
      </trkpt>
      <trkpt lat="44.19607" lon="3.70296">
        <ele>415.18</ele>
        <time>2021-05-26T08:55:37Z</time>
      </trkpt>
      <trkpt lat="44.19594" lon="3.70333">
        <ele>410.97</ele>
        <time>2021-05-26T08:55:41Z</time>
      </trkpt>
      <trkpt lat="44.19651" lon="3.70253">
        <ele>404.97</ele>
        <time>2021-05-26T08:55:53Z</time>
      </trkpt>
      <trkpt lat="44.19669" lon="3.702">
        <ele>401.47</ele>
        <time>2021-05-26T08:55:58Z</time>
      </trkpt>
      <trkpt lat="44.19698" lon="3.70133">
        <ele>394.72</ele>
        <time>2021-05-26T08:56:07Z</time>
      </trkpt>
      <trkpt lat="44.19739" lon="3.70228">
        <ele>398.42</ele>
        <time>2021-05-26T08:56:53Z</time>
      </trkpt>
      <trkpt lat="44.196" lon="3.70587">
        <ele>394.72</ele>
        <time>2021-05-26T08:57:16Z</time>
      </trkpt>
      <trkpt lat="44.19592" lon="3.70597">
        <ele>393.98</ele>
        <time>2021-05-26T08:57:17Z</time>
      </trkpt>
      <trkpt lat="44.19535" lon="3.7067">
        <ele>392.24</ele>
        <time>2021-05-26T08:57:24Z</time>
      </trkpt>
      <trkpt lat="44.1958" lon="3.7088">
        <ele>386.34</ele>
        <time>2021-05-26T08:57:51Z</time>
      </trkpt>
      <trkpt lat="44.19585" lon="3.7089">
        <ele>386.35</ele>
        <time>2021-05-26T08:57:52Z</time>
      </trkpt>
      <trkpt lat="44.19408" lon="3.71144">
        <ele>384.77</ele>
        <time>2021-05-26T08:58:12Z</time>
      </trkpt>
      <trkpt lat="44.19394" lon="3.71145">
        <ele>384.77</ele>
        <time>2021-05-26T08:58:13Z</time>
      </trkpt>
      <trkpt lat="44.19367" lon="3.71146">
        <ele>382.65</ele>
        <time>2021-05-26T08:58:15Z</time>
      </trkpt>
      <trkpt lat="44.19355" lon="3.71152">
        <ele>382.69</ele>
        <time>2021-05-26T08:58:16Z</time>
      </trkpt>
      <trkpt lat="44.19268" lon="3.71453">
        <ele>377.45</ele>
        <time>2021-05-26T08:58:37Z</time>
      </trkpt>
      <trkpt lat="44.19224" lon="3.71533">
        <ele>374.11</ele>
        <time>2021-05-26T08:58:44Z</time>
      </trkpt>
      <trkpt lat="44.19175" lon="3.71594">
        <ele>369.09</ele>
        <time>2021-05-26T08:58:50Z</time>
      </trkpt>
      <trkpt lat="44.19167" lon="3.71604">
        <ele>369.02</ele>
        <time>2021-05-26T08:58:51Z</time>
      </trkpt>
      <trkpt lat="44.19123" lon="3.71869">
        <ele>362.05</ele>
        <time>2021-05-26T08:59:11Z</time>
      </trkpt>
      <trkpt lat="44.19082" lon="3.71892">
        <ele>360.38</ele>
        <time>2021-05-26T08:59:18Z</time>
      </trkpt>
      <trkpt lat="44.19055" lon="3.71907">
        <ele>360.37</ele>
        <time>2021-05-26T08:59:22Z</time>
      </trkpt>
      <trkpt lat="44.19009" lon="3.7195">
        <ele>358.92</ele>
        <time>2021-05-26T09:00:04Z</time>
      </trkpt>
      <trkpt lat="44.18942" lon="3.72105">
        <ele>363.31</ele>
        <time>2021-05-26T09:00:17Z</time>
      </trkpt>
      <trkpt lat="44.18904" lon="3.72247">
        <ele>363.22</ele>
        <time>2021-05-26T09:00:25Z</time>
      </trkpt>
      <trkpt lat="44.18696" lon="3.72654">
        <ele>357.17</ele>
        <time>2021-05-26T09:00:51Z</time>
      </trkpt>
      <trkpt lat="44.18695" lon="3.72689">
        <ele>355.86</ele>
        <time>2021-05-26T09:00:53Z</time>
      </trkpt>
      <trkpt lat="44.18694" lon="3.7281">
        <ele>352.46</ele>
        <time>2021-05-26T09:00:59Z</time>
      </trkpt>
      <trkpt lat="44.18706" lon="3.72883">
        <ele>348.69</ele>
        <time>2021-05-26T09:01:03Z</time>
      </trkpt>
      <trkpt lat="44.18708" lon="3.729">
        <ele>348.63</ele>
        <time>2021-05-26T09:01:04Z</time>
      </trkpt>
      <trkpt lat="44.18612" lon="3.73315">
        <ele>348.06</ele>
        <time>2021-05-26T09:01:27Z</time>
      </trkpt>
      <trkpt lat="44.18572" lon="3.73451">
        <ele>348.05</ele>
        <time>2021-05-26T09:01:33Z</time>
      </trkpt>
      <trkpt lat="44.18505" lon="3.73614">
        <ele>345.05</ele>
        <time>2021-05-26T09:01:41Z</time>
      </trkpt>
      <trkpt lat="44.18478" lon="3.73686">
        <ele>344.18</ele>
        <time>2021-05-26T09:01:45Z</time>
      </trkpt>
      <trkpt lat="44.18468" lon="3.73703">
        <ele>344.18</ele>
        <time>2021-05-26T09:01:46Z</time>
      </trkpt>
      <trkpt lat="44.18288" lon="3.73951">
        <ele>357.92</ele>
        <time>2021-05-26T09:53:55Z</time>
      </trkpt>
      <trkpt lat="44.18285" lon="3.73955">
        <ele>357.97</ele>
        <time>2021-05-26T09:53:56Z</time>
      </trkpt>
      <trkpt lat="44.18282" lon="3.73959">
        <ele>357.77</ele>
        <time>2021-05-26T09:53:57Z</time>
      </trkpt>
      <trkpt lat="44.18275" lon="3.73983">
        <ele>361.05</ele>
        <time>2021-05-26T09:54:00Z</time>
      </trkpt>
      <trkpt lat="44.18282" lon="3.7402">
        <ele>365.15</ele>
        <time>2021-05-26T09:54:04Z</time>
      </trkpt>
      <trkpt lat="44.18294" lon="3.74041">
        <ele>368.2</ele>
        <time>2021-05-26T09:54:06Z</time>
      </trkpt>
      <trkpt lat="44.18311" lon="3.74067">
        <ele>371.4</ele>
        <time>2021-05-26T09:54:08Z</time>
      </trkpt>
      <trkpt lat="44.18324" lon="3.74091">
        <ele>372.43</ele>
        <time>2021-05-26T09:54:10Z</time>
      </trkpt>
      <trkpt lat="44.1833" lon="3.741">
        <ele>372.42</ele>
        <time>2021-05-26T09:54:11Z</time>
      </trkpt>
      <trkpt lat="44.18355" lon="3.74109">
        <ele>376.42</ele>
        <time>2021-05-26T09:54:14Z</time>
      </trkpt>
      <trkpt lat="44.18397" lon="3.74102">
        <ele>381.34</ele>
        <time>2021-05-26T09:54:19Z</time>
      </trkpt>
      <trkpt lat="44.18389" lon="3.74037">
        <ele>390.66</ele>
        <time>2021-05-26T09:54:27Z</time>
      </trkpt>
      <trkpt lat="44.18419" lon="3.73948">
        <ele>398.48</ele>
        <time>2021-05-26T09:54:36Z</time>
      </trkpt>
      <trkpt lat="44.18442" lon="3.73927">
        <ele>401.99</ele>
        <time>2021-05-26T09:54:38Z</time>
      </trkpt>
      <trkpt lat="44.18466" lon="3.73903">
        <ele>406.89</ele>
        <time>2021-05-26T09:54:40Z</time>
      </trkpt>
      <trkpt lat="44.18487" lon="3.73881">
        <ele>410.65</ele>
        <time>2021-05-26T09:54:42Z</time>
      </trkpt>
      <trkpt lat="44.18503" lon="3.73866">
        <ele>411.29</ele>
        <time>2021-05-26T09:54:44Z</time>
      </trkpt>
      <trkpt lat="44.18534" lon="3.73865">
        <ele>414.86</ele>
        <time>2021-05-26T09:54:49Z</time>
      </trkpt>
      <trkpt lat="44.18521" lon="3.73883">
        <ele>418.06</ele>
        <time>2021-05-26T09:54:55Z</time>
      </trkpt>
      <trkpt lat="44.18513" lon="3.739">
        <ele>421.67</ele>
        <time>2021-05-26T09:54:57Z</time>
      </trkpt>
      <trkpt lat="44.18509" lon="3.73939">
        <ele>425.68</ele>
        <time>2021-05-26T09:55:00Z</time>
      </trkpt>
      <trkpt lat="44.18509" lon="3.73994">
        <ele>431.15</ele>
        <time>2021-05-26T09:55:04Z</time>
      </trkpt>
      <trkpt lat="44.18524" lon="3.73985">
        <ele>435.37</ele>
        <time>2021-05-26T09:55:09Z</time>
      </trkpt>
      <trkpt lat="44.18535" lon="3.73953">
        <ele>438.43</ele>
        <time>2021-05-26T09:55:12Z</time>
      </trkpt>
      <trkpt lat="44.18541" lon="3.73945">
        <ele>438.47</ele>
        <time>2021-05-26T09:55:13Z</time>
      </trkpt>
      <trkpt lat="44.18543" lon="3.73967">
        <ele>442.32</ele>
        <time>2021-05-26T09:55:20Z</time>
      </trkpt>
      <trkpt lat="44.18544" lon="3.74017">
        <ele>447.33</ele>
        <time>2021-05-26T09:55:28Z</time>
      </trkpt>
      <trkpt lat="44.18589" lon="3.73998">
        <ele>453.51</ele>
        <time>2021-05-26T09:55:34Z</time>
      </trkpt>
      <trkpt lat="44.18601" lon="3.74005">
        <ele>455.54</ele>
        <time>2021-05-26T09:55:35Z</time>
      </trkpt>
      <trkpt lat="44.18642" lon="3.74028">
        <ele>460.15</ele>
        <time>2021-05-26T09:55:38Z</time>
      </trkpt>
      <trkpt lat="44.18681" lon="3.74053">
        <ele>463.35</ele>
        <time>2021-05-26T09:55:41Z</time>
      </trkpt>
      <trkpt lat="44.18717" lon="3.74072">
        <ele>465.59</ele>
        <time>2021-05-26T09:55:46Z</time>
      </trkpt>
      <trkpt lat="44.18701" lon="3.74076">
        <ele>469.61</ele>
        <time>2021-05-26T09:55:50Z</time>
      </trkpt>
      <trkpt lat="44.18679" lon="3.74071">
        <ele>472.81</ele>
        <time>2021-05-26T09:55:52Z</time>
      </trkpt>
      <trkpt lat="44.18665" lon="3.74071">
        <ele>473.81</ele>
        <time>2021-05-26T09:55:53Z</time>
      </trkpt>
      <trkpt lat="44.18653" lon="3.74071">
        <ele>473.78</ele>
        <time>2021-05-26T09:55:54Z</time>
      </trkpt>
      <trkpt lat="44.18635" lon="3.74071">
        <ele>473.86</ele>
        <time>2021-05-26T09:55:56Z</time>
      </trkpt>
      <trkpt lat="44.18644" lon="3.7409">
        <ele>477.03</ele>
        <time>2021-05-26T09:56:01Z</time>
      </trkpt>
      <trkpt lat="44.18679" lon="3.74096">
        <ele>482.41</ele>
        <time>2021-05-26T09:56:04Z</time>
      </trkpt>
      <trkpt lat="44.18724" lon="3.7411">
        <ele>487.21</ele>
        <time>2021-05-26T09:56:07Z</time>
      </trkpt>
      <trkpt lat="44.18755" lon="3.74122">
        <ele>490.38</ele>
        <time>2021-05-26T09:56:09Z</time>
      </trkpt>
      <trkpt lat="44.18787" lon="3.74131">
        <ele>494.11</ele>
        <time>2021-05-26T09:56:11Z</time>
      </trkpt>
      <trkpt lat="44.18816" lon="3.74138">
        <ele>495.38</ele>
        <time>2021-05-26T09:56:13Z</time>
      </trkpt>
      <trkpt lat="44.18861" lon="3.74185">
        <ele>500.67</ele>
        <time>2021-05-26T09:56:18Z</time>
      </trkpt>
      <trkpt lat="44.18867" lon="3.74199">
        <ele>500.91</ele>
        <time>2021-05-26T09:56:19Z</time>
      </trkpt>
      <trkpt lat="44.18885" lon="3.74234">
        <ele>504.17</ele>
        <time>2021-05-26T09:56:22Z</time>
      </trkpt>
      <trkpt lat="44.18888" lon="3.74241">
        <ele>504.16</ele>
        <time>2021-05-26T09:56:23Z</time>
      </trkpt>
      <trkpt lat="44.18871" lon="3.74238">
        <ele>507.8</ele>
        <time>2021-05-26T09:56:27Z</time>
      </trkpt>
      <trkpt lat="44.18864" lon="3.74228">
        <ele>509.27</ele>
        <time>2021-05-26T09:56:28Z</time>
      </trkpt>
      <trkpt lat="44.18848" lon="3.74207">
        <ele>512.28</ele>
        <time>2021-05-26T09:56:30Z</time>
      </trkpt>
      <trkpt lat="44.1884" lon="3.74198">
        <ele>512.29</ele>
        <time>2021-05-26T09:56:31Z</time>
      </trkpt>
      <trkpt lat="44.18836" lon="3.74213">
        <ele>515.38</ele>
        <time>2021-05-26T09:56:36Z</time>
      </trkpt>
      <trkpt lat="44.18848" lon="3.74234">
        <ele>518.39</ele>
        <time>2021-05-26T09:56:38Z</time>
      </trkpt>
      <trkpt lat="44.18861" lon="3.74266">
        <ele>522.18</ele>
        <time>2021-05-26T09:56:40Z</time>
      </trkpt>
      <trkpt lat="44.18898" lon="3.74325">
        <ele>528.07</ele>
        <time>2021-05-26T09:56:46Z</time>
      </trkpt>
      <trkpt lat="44.18917" lon="3.74339">
        <ele>531.14</ele>
        <time>2021-05-26T09:56:48Z</time>
      </trkpt>
      <trkpt lat="44.18936" lon="3.74365">
        <ele>534.91</ele>
        <time>2021-05-26T09:56:50Z</time>
      </trkpt>
      <trkpt lat="44.18952" lon="3.74393">
        <ele>537.93</ele>
        <time>2021-05-26T09:56:52Z</time>
      </trkpt>
      <trkpt lat="44.18978" lon="3.74432">
        <ele>542</ele>
        <time>2021-05-26T09:56:55Z</time>
      </trkpt>
      <trkpt lat="44.19013" lon="3.74455">
        <ele>546.08</ele>
        <time>2021-05-26T09:56:58Z</time>
      </trkpt>
      <trkpt lat="44.19073" lon="3.7449">
        <ele>553.27</ele>
        <time>2021-05-26T09:57:03Z</time>
      </trkpt>
      <trkpt lat="44.19084" lon="3.74502">
        <ele>554.95</ele>
        <time>2021-05-26T09:57:04Z</time>
      </trkpt>
      <trkpt lat="44.19122" lon="3.74543">
        <ele>561.19</ele>
        <time>2021-05-26T09:57:07Z</time>
      </trkpt>
      <trkpt lat="44.19147" lon="3.74571">
        <ele>565.08</ele>
        <time>2021-05-26T09:57:09Z</time>
      </trkpt>
      <trkpt lat="44.19195" lon="3.74592">
        <ele>568.18</ele>
        <time>2021-05-26T09:57:14Z</time>
      </trkpt>
      <trkpt lat="44.19188" lon="3.74605">
        <ele>572.32</ele>
        <time>2021-05-26T09:57:18Z</time>
      </trkpt>
      <trkpt lat="44.19164" lon="3.74604">
        <ele>576.1</ele>
        <time>2021-05-26T09:57:20Z</time>
      </trkpt>
      <trkpt lat="44.19153" lon="3.74602">
        <ele>576.09</ele>
        <time>2021-05-26T09:57:21Z</time>
      </trkpt>
      <trkpt lat="44.19158" lon="3.74623">
        <ele>580.5</ele>
        <time>2021-05-26T09:57:28Z</time>
      </trkpt>
      <trkpt lat="44.19194" lon="3.74632">
        <ele>585.46</ele>
        <time>2021-05-26T09:57:31Z</time>
      </trkpt>
      <trkpt lat="44.19221" lon="3.74633">
        <ele>589.9</ele>
        <time>2021-05-26T09:57:33Z</time>
      </trkpt>
      <trkpt lat="44.19247" lon="3.74638">
        <ele>593.66</ele>
        <time>2021-05-26T09:57:35Z</time>
      </trkpt>
      <trkpt lat="44.1926" lon="3.74643">
        <ele>595.59</ele>
        <time>2021-05-26T09:57:36Z</time>
      </trkpt>
      <trkpt lat="44.19272" lon="3.74649">
        <ele>597.01</ele>
        <time>2021-05-26T09:57:37Z</time>
      </trkpt>
      <trkpt lat="44.19283" lon="3.74656">
        <ele>596.82</ele>
        <time>2021-05-26T09:57:38Z</time>
      </trkpt>
      <trkpt lat="44.19351" lon="3.74734">
        <ele>601.96</ele>
        <time>2021-05-26T09:57:46Z</time>
      </trkpt>
      <trkpt lat="44.19406" lon="3.74797">
        <ele>603.51</ele>
        <time>2021-05-26T09:57:51Z</time>
      </trkpt>
      <trkpt lat="44.19501" lon="3.74864">
        <ele>610.34</ele>
        <time>2021-05-26T09:58:04Z</time>
      </trkpt>
      <trkpt lat="44.19513" lon="3.74853">
        <ele>610.36</ele>
        <time>2021-05-26T09:58:05Z</time>
      </trkpt>
      <trkpt lat="44.19539" lon="3.74832">
        <ele>610.23</ele>
        <time>2021-05-26T09:58:07Z</time>
      </trkpt>
      <trkpt lat="44.19709" lon="3.74836">
        <ele>613.43</ele>
        <time>2021-05-26T09:58:19Z</time>
      </trkpt>
      <trkpt lat="44.19768" lon="3.74831">
        <ele>619.33</ele>
        <time>2021-05-26T09:58:26Z</time>
      </trkpt>
      <trkpt lat="44.19827" lon="3.74731">
        <ele>627.73</ele>
        <time>2021-05-26T09:58:35Z</time>
      </trkpt>
      <trkpt lat="44.19989" lon="3.74731">
        <ele>627.21</ele>
        <time>2021-05-26T09:58:51Z</time>
      </trkpt>
      <trkpt lat="44.20001" lon="3.74735">
        <ele>627.16</ele>
        <time>2021-05-26T09:58:52Z</time>
      </trkpt>
      <trkpt lat="44.20073" lon="3.74763">
        <ele>625.87</ele>
        <time>2021-05-26T09:58:58Z</time>
      </trkpt>
      <trkpt lat="44.20109" lon="3.74764">
        <ele>625.85</ele>
        <time>2021-05-26T09:59:01Z</time>
      </trkpt>
      <trkpt lat="44.20127" lon="3.74757">
        <ele>622.62</ele>
        <time>2021-05-26T09:59:05Z</time>
      </trkpt>
      <trkpt lat="44.20137" lon="3.74758">
        <ele>622.5</ele>
        <time>2021-05-26T09:59:23Z</time>
      </trkpt>
      <trkpt lat="44.20162" lon="3.74808">
        <ele>629.08</ele>
        <time>2021-05-26T09:59:32Z</time>
      </trkpt>
      <trkpt lat="44.20158" lon="3.74847">
        <ele>632.24</ele>
        <time>2021-05-26T09:59:34Z</time>
      </trkpt>
      <trkpt lat="44.20153" lon="3.74882">
        <ele>633.52</ele>
        <time>2021-05-26T09:59:36Z</time>
      </trkpt>
      <trkpt lat="44.2015" lon="3.74915">
        <ele>635.86</ele>
        <time>2021-05-26T09:59:38Z</time>
      </trkpt>
      <trkpt lat="44.20151" lon="3.74972">
        <ele>638.98</ele>
        <time>2021-05-26T09:59:42Z</time>
      </trkpt>
      <trkpt lat="44.20152" lon="3.74979">
        <ele>639.06</ele>
        <time>2021-05-26T09:59:43Z</time>
      </trkpt>
      <trkpt lat="44.20161" lon="3.74943">
        <ele>642.36</ele>
        <time>2021-05-26T09:59:50Z</time>
      </trkpt>
      <trkpt lat="44.20167" lon="3.74963">
        <ele>646.12</ele>
        <time>2021-05-26T09:59:54Z</time>
      </trkpt>
      <trkpt lat="44.20168" lon="3.74974">
        <ele>646.1</ele>
        <time>2021-05-26T09:59:55Z</time>
      </trkpt>
      <trkpt lat="44.20192" lon="3.74988">
        <ele>650.09</ele>
        <time>2021-05-26T09:59:59Z</time>
      </trkpt>
      <trkpt lat="44.20228" lon="3.74982">
        <ele>654.23</ele>
        <time>2021-05-26T10:00:02Z</time>
      </trkpt>
      <trkpt lat="44.2027" lon="3.74995">
        <ele>658.78</ele>
        <time>2021-05-26T10:00:05Z</time>
      </trkpt>
      <trkpt lat="44.20319" lon="3.75022">
        <ele>663.97</ele>
        <time>2021-05-26T10:00:09Z</time>
      </trkpt>
      <trkpt lat="44.20336" lon="3.75044">
        <ele>667.97</ele>
        <time>2021-05-26T10:00:11Z</time>
      </trkpt>
      <trkpt lat="44.20345" lon="3.75069">
        <ele>671.27</ele>
        <time>2021-05-26T10:00:13Z</time>
      </trkpt>
      <trkpt lat="44.20346" lon="3.75095">
        <ele>674.69</ele>
        <time>2021-05-26T10:00:15Z</time>
      </trkpt>
      <trkpt lat="44.20347" lon="3.75105">
        <ele>674.9</ele>
        <time>2021-05-26T10:00:16Z</time>
      </trkpt>
      <trkpt lat="44.20382" lon="3.75119">
        <ele>678.48</ele>
        <time>2021-05-26T10:00:21Z</time>
      </trkpt>
      <trkpt lat="44.20408" lon="3.75107">
        <ele>681.29</ele>
        <time>2021-05-26T10:00:23Z</time>
      </trkpt>
      <trkpt lat="44.20512" lon="3.75052">
        <ele>682.82</ele>
        <time>2021-05-26T10:00:31Z</time>
      </trkpt>
      <trkpt lat="44.20559" lon="3.75114">
        <ele>686.07</ele>
        <time>2021-05-26T10:00:37Z</time>
      </trkpt>
      <trkpt lat="44.20609" lon="3.75155">
        <ele>691.8</ele>
        <time>2021-05-26T10:00:41Z</time>
      </trkpt>
      <trkpt lat="44.20687" lon="3.75192">
        <ele>694.43</ele>
        <time>2021-05-26T10:02:46Z</time>
      </trkpt>
      <trkpt lat="44.20692" lon="3.75163">
        <ele>697.43</ele>
        <time>2021-05-26T10:02:52Z</time>
      </trkpt>
      <trkpt lat="44.207" lon="3.75149">
        <ele>700.69</ele>
        <time>2021-05-26T10:02:54Z</time>
      </trkpt>
      <trkpt lat="44.20723" lon="3.75114">
        <ele>704.57</ele>
        <time>2021-05-26T10:02:58Z</time>
      </trkpt>
      <trkpt lat="44.20733" lon="3.75097">
        <ele>708.05</ele>
        <time>2021-05-26T10:03:00Z</time>
      </trkpt>
      <trkpt lat="44.20737" lon="3.7509">
        <ele>708.02</ele>
        <time>2021-05-26T10:03:01Z</time>
      </trkpt>
      <trkpt lat="44.20771" lon="3.75092">
        <ele>711.34</ele>
        <time>2021-05-26T10:03:09Z</time>
      </trkpt>
      <trkpt lat="44.20811" lon="3.75125">
        <ele>718.43</ele>
        <time>2021-05-26T10:03:17Z</time>
      </trkpt>
      <trkpt lat="44.20823" lon="3.75153">
        <ele>722.31</ele>
        <time>2021-05-26T10:03:20Z</time>
      </trkpt>
      <trkpt lat="44.20836" lon="3.75243">
        <ele>728.71</ele>
        <time>2021-05-26T10:03:28Z</time>
      </trkpt>
      <trkpt lat="44.20832" lon="3.75299">
        <ele>732.06</ele>
        <time>2021-05-26T10:03:32Z</time>
      </trkpt>
      <trkpt lat="44.20801" lon="3.7544">
        <ele>732.29</ele>
        <time>2021-05-26T10:03:54Z</time>
      </trkpt>
      <trkpt lat="44.20791" lon="3.75469">
        <ele>728.81</ele>
        <time>2021-05-26T10:03:59Z</time>
      </trkpt>
      <trkpt lat="44.20801" lon="3.75478">
        <ele>728.8</ele>
        <time>2021-05-26T10:04:00Z</time>
      </trkpt>
      <trkpt lat="44.20833" lon="3.75468">
        <ele>725.66</ele>
        <time>2021-05-26T10:04:07Z</time>
      </trkpt>
      <trkpt lat="44.2084" lon="3.75475">
        <ele>724.01</ele>
        <time>2021-05-26T10:04:54Z</time>
      </trkpt>
      <trkpt lat="44.2085" lon="3.75471">
        <ele>723.98</ele>
        <time>2021-05-26T10:04:55Z</time>
      </trkpt>
      <trkpt lat="44.20862" lon="3.75469">
        <ele>723.98</ele>
        <time>2021-05-26T10:04:57Z</time>
      </trkpt>
      <trkpt lat="44.20875" lon="3.75464">
        <ele>720.47</ele>
        <time>2021-05-26T10:04:59Z</time>
      </trkpt>
      <trkpt lat="44.20904" lon="3.75445">
        <ele>716.56</ele>
        <time>2021-05-26T10:05:03Z</time>
      </trkpt>
      <trkpt lat="44.20912" lon="3.75439">
        <ele>716.42</ele>
        <time>2021-05-26T10:05:04Z</time>
      </trkpt>
      <trkpt lat="44.20933" lon="3.7542">
        <ele>712.06</ele>
        <time>2021-05-26T10:05:07Z</time>
      </trkpt>
      <trkpt lat="44.20945" lon="3.75409">
        <ele>711.21</ele>
        <time>2021-05-26T10:05:09Z</time>
      </trkpt>
      <trkpt lat="44.20957" lon="3.75387">
        <ele>707.84</ele>
        <time>2021-05-26T10:05:12Z</time>
      </trkpt>
      <trkpt lat="44.20967" lon="3.75402">
        <ele>703.87</ele>
        <time>2021-05-26T10:05:18Z</time>
      </trkpt>
      <trkpt lat="44.20948" lon="3.75462">
        <ele>699.46</ele>
        <time>2021-05-26T10:05:23Z</time>
      </trkpt>
      <trkpt lat="44.20939" lon="3.75482">
        <ele>695.93</ele>
        <time>2021-05-26T10:05:26Z</time>
      </trkpt>
      <trkpt lat="44.20939" lon="3.75487">
        <ele>695.92</ele>
        <time>2021-05-26T10:05:27Z</time>
      </trkpt>
      <trkpt lat="44.20971" lon="3.75467">
        <ele>692.06</ele>
        <time>2021-05-26T10:05:34Z</time>
      </trkpt>
      <trkpt lat="44.21012" lon="3.75448">
        <ele>686.87</ele>
        <time>2021-05-26T10:05:39Z</time>
      </trkpt>
      <trkpt lat="44.21041" lon="3.75428">
        <ele>681.7</ele>
        <time>2021-05-26T10:05:45Z</time>
      </trkpt>
      <trkpt lat="44.21043" lon="3.75426">
        <ele>681.69</ele>
        <time>2021-05-26T10:05:46Z</time>
      </trkpt>
      <trkpt lat="44.21047" lon="3.75449">
        <ele>678.45</ele>
        <time>2021-05-26T10:05:52Z</time>
      </trkpt>
      <trkpt lat="44.2107" lon="3.75426">
        <ele>673.69</ele>
        <time>2021-05-26T10:06:02Z</time>
      </trkpt>
      <trkpt lat="44.21083" lon="3.75418">
        <ele>670.36</ele>
        <time>2021-05-26T10:06:08Z</time>
      </trkpt>
      <trkpt lat="44.21088" lon="3.75425">
        <ele>670.37</ele>
        <time>2021-05-26T10:06:09Z</time>
      </trkpt>
      <trkpt lat="44.21111" lon="3.7545">
        <ele>666.42</ele>
        <time>2021-05-26T10:06:14Z</time>
      </trkpt>
      <trkpt lat="44.21095" lon="3.75498">
        <ele>662.05</ele>
        <time>2021-05-26T10:06:23Z</time>
      </trkpt>
      <trkpt lat="44.21142" lon="3.75497">
        <ele>657.37</ele>
        <time>2021-05-26T10:06:38Z</time>
      </trkpt>
      <trkpt lat="44.21187" lon="3.75483">
        <ele>652.33</ele>
        <time>2021-05-26T10:06:44Z</time>
      </trkpt>
      <trkpt lat="44.21207" lon="3.75467">
        <ele>648.31</ele>
        <time>2021-05-26T10:06:50Z</time>
      </trkpt>
      <trkpt lat="44.2121" lon="3.75468">
        <ele>648.2</ele>
        <time>2021-05-26T10:06:51Z</time>
      </trkpt>
      <trkpt lat="44.21225" lon="3.75493">
        <ele>643.17</ele>
        <time>2021-05-26T10:07:03Z</time>
      </trkpt>
      <trkpt lat="44.21239" lon="3.75454">
        <ele>639.14</ele>
        <time>2021-05-26T10:07:09Z</time>
      </trkpt>
      <trkpt lat="44.21238" lon="3.75446">
        <ele>639.16</ele>
        <time>2021-05-26T10:07:10Z</time>
      </trkpt>
      <trkpt lat="44.21228" lon="3.75425">
        <ele>635.69</ele>
        <time>2021-05-26T10:07:13Z</time>
      </trkpt>
      <trkpt lat="44.21217" lon="3.75403">
        <ele>632.52</ele>
        <time>2021-05-26T10:07:19Z</time>
      </trkpt>
      <trkpt lat="44.21266" lon="3.75447">
        <ele>628.78</ele>
        <time>2021-05-26T10:07:29Z</time>
      </trkpt>
      <trkpt lat="44.21294" lon="3.75494">
        <ele>625.42</ele>
        <time>2021-05-26T10:07:34Z</time>
      </trkpt>
      <trkpt lat="44.21299" lon="3.75503">
        <ele>625.38</ele>
        <time>2021-05-26T10:07:35Z</time>
      </trkpt>
      <trkpt lat="44.21303" lon="3.75511">
        <ele>623.79</ele>
        <time>2021-05-26T10:07:36Z</time>
      </trkpt>
      <trkpt lat="44.21294" lon="3.75544">
        <ele>620.3</ele>
        <time>2021-05-26T10:07:42Z</time>
      </trkpt>
      <trkpt lat="44.213" lon="3.75557">
        <ele>617.01</ele>
        <time>2021-05-26T10:07:49Z</time>
      </trkpt>
      <trkpt lat="44.21304" lon="3.75556">
        <ele>616.99</ele>
        <time>2021-05-26T10:07:50Z</time>
      </trkpt>
      <trkpt lat="44.2134" lon="3.75551">
        <ele>612.31</ele>
        <time>2021-05-26T10:07:56Z</time>
      </trkpt>
      <trkpt lat="44.21344" lon="3.75548">
        <ele>612.31</ele>
        <time>2021-05-26T10:07:57Z</time>
      </trkpt>
      <trkpt lat="44.21346" lon="3.75505">
        <ele>607.79</ele>
        <time>2021-05-26T10:08:04Z</time>
      </trkpt>
      <trkpt lat="44.21313" lon="3.75396">
        <ele>600.44</ele>
        <time>2021-05-26T10:08:12Z</time>
      </trkpt>
      <trkpt lat="44.21307" lon="3.75333">
        <ele>594.53</ele>
        <time>2021-05-26T10:08:16Z</time>
      </trkpt>
      <trkpt lat="44.21336" lon="3.75306">
        <ele>590.51</ele>
        <time>2021-05-26T10:08:21Z</time>
      </trkpt>
      <trkpt lat="44.21379" lon="3.75337">
        <ele>585.62</ele>
        <time>2021-05-26T10:08:26Z</time>
      </trkpt>
      <trkpt lat="44.21428" lon="3.7532">
        <ele>581.52</ele>
        <time>2021-05-26T10:08:31Z</time>
      </trkpt>
      <trkpt lat="44.21474" lon="3.75294">
        <ele>575.5</ele>
        <time>2021-05-26T10:08:36Z</time>
      </trkpt>
      <trkpt lat="44.215" lon="3.75244">
        <ele>571.86</ele>
        <time>2021-05-26T10:08:43Z</time>
      </trkpt>
      <trkpt lat="44.21572" lon="3.75306">
        <ele>565.86</ele>
        <time>2021-05-26T10:08:53Z</time>
      </trkpt>
      <trkpt lat="44.21669" lon="3.75329">
        <ele>560.54</ele>
        <time>2021-05-26T10:09:14Z</time>
      </trkpt>
      <trkpt lat="44.21704" lon="3.7526">
        <ele>556.67</ele>
        <time>2021-05-26T10:09:25Z</time>
      </trkpt>
      <trkpt lat="44.21708" lon="3.75223">
        <ele>553.65</ele>
        <time>2021-05-26T10:09:30Z</time>
      </trkpt>
      <trkpt lat="44.21702" lon="3.7507">
        <ele>546.1171875</ele>
      </trkpt>
      <trkpt lat="44.21693" lon="3.74894">
        <ele>549.69921875</ele>
      </trkpt>
      <trkpt lat="44.21708" lon="3.74878">
        <ele>552.703125</ele>
      </trkpt>
      <trkpt lat="44.21783" lon="3.74938">
        <ele>555.45703125</ele>
      </trkpt>
      <trkpt lat="44.21842" lon="3.75047">
        <ele>556.671875</ele>
      </trkpt>
      <trkpt lat="44.21901" lon="3.75065">
        <ele>565.73046875</ele>
      </trkpt>
      <trkpt lat="44.22018" lon="3.74766">
        <ele>594.4296875</ele>
      </trkpt>
      <trkpt lat="44.22029" lon="3.74653">
        <ele>596.40234375</ele>
      </trkpt>
      <trkpt lat="44.21995" lon="3.74486">
        <ele>609.85546875</ele>
      </trkpt>
      <trkpt lat="44.22005" lon="3.74419">
        <ele>608.58203125</ele>
      </trkpt>
      <trkpt lat="44.21995" lon="3.74351">
        <ele>606.796875</ele>
      </trkpt>
      <trkpt lat="44.21919" lon="3.74252">
        <ele>612.046875</ele>
      </trkpt>
      <trkpt lat="44.21842" lon="3.74205">
        <ele>630.28125</ele>
      </trkpt>
      <trkpt lat="44.21863" lon="3.74079">
        <ele>621.875</ele>
      </trkpt>
      <trkpt lat="44.21817" lon="3.73918">
        <ele>645.87109375</ele>
      </trkpt>
      <trkpt lat="44.21834" lon="3.73834">
        <ele>644.95703125</ele>
      </trkpt>
      <trkpt lat="44.21912" lon="3.73828">
        <ele>641.33203125</ele>
      </trkpt>
      <trkpt lat="44.21966" lon="3.73894">
        <ele>632.4375</ele>
      </trkpt>
      <trkpt lat="44.22029" lon="3.7383">
        <ele>645.37109375</ele>
      </trkpt>
      <trkpt lat="44.22076" lon="3.73733">
        <ele>657.0234375</ele>
      </trkpt>
      <trkpt lat="44.22189" lon="3.73809">
        <ele>664.203125</ele>
      </trkpt>
      <trkpt lat="44.22201" lon="3.73855">
        <ele>656.203125</ele>
      </trkpt>
      <trkpt lat="44.22218" lon="3.73866">
        <ele>658.875</ele>
      </trkpt>
      <trkpt lat="44.22316" lon="3.73827">
        <ele>673.6640625</ele>
      </trkpt>
      <trkpt lat="44.22367" lon="3.73885">
        <ele>669.5703125</ele>
      </trkpt>
      <trkpt lat="44.22397" lon="3.73862">
        <ele>675.6953125</ele>
      </trkpt>
      <trkpt lat="44.22437" lon="3.73795">
        <ele>680.8828125</ele>
      </trkpt>
      <trkpt lat="44.22472" lon="3.73781">
        <ele>676.40234375</ele>
      </trkpt>
      <trkpt lat="44.22561" lon="3.73684">
        <ele>672.25</ele>
      </trkpt>
      <trkpt lat="44.22524" lon="3.73594">
        <ele>686.70703125</ele>
      </trkpt>
      <trkpt lat="44.22513" lon="3.73567">
        <ele>691.7578125</ele>
      </trkpt>
      <trkpt lat="44.2254" lon="3.73473">
        <ele>696.69140625</ele>
      </trkpt>
      <trkpt lat="44.22626" lon="3.73483">
        <ele>689.09375</ele>
      </trkpt>
      <trkpt lat="44.22718" lon="3.73429">
        <ele>703.94140625</ele>
      </trkpt>
      <trkpt lat="44.22886" lon="3.73395">
        <ele>719.8359375</ele>
      </trkpt>
      <trkpt lat="44.22916" lon="3.73361">
        <ele>725.6875</ele>
      </trkpt>
      <trkpt lat="44.22944" lon="3.73268">
        <ele>739.23828125</ele>
      </trkpt>
      <trkpt lat="44.22987" lon="3.73183">
        <ele>744.1953125</ele>
      </trkpt>
      <trkpt lat="44.23015" lon="3.73043">
        <ele>761.09375</ele>
      </trkpt>
      <trkpt lat="44.23003" lon="3.72854">
        <ele>778.12109375</ele>
      </trkpt>
      <trkpt lat="44.22994" lon="3.72794">
        <ele>792.02734375</ele>
      </trkpt>
      <trkpt lat="44.23034" lon="3.72723">
        <ele>791.62109375</ele>
      </trkpt>
      <trkpt lat="44.23071" lon="3.72645">
        <ele>804.046875</ele>
      </trkpt>
      <trkpt lat="44.23123" lon="3.72607">
        <ele>806.40625</ele>
      </trkpt>
      <trkpt lat="44.23147" lon="3.72602">
        <ele>808.69921875</ele>
      </trkpt>
      <trkpt lat="44.23139" lon="3.72677">
        <ele>798.06640625</ele>
      </trkpt>
      <trkpt lat="44.23215" lon="3.7275">
        <ele>810.00390625</ele>
      </trkpt>
      <trkpt lat="44.23278" lon="3.72856">
        <ele>817.1015625</ele>
      </trkpt>
      <trkpt lat="44.23317" lon="3.72885">
        <ele>820.546875</ele>
      </trkpt>
      <trkpt lat="44.23468" lon="3.72859">
        <ele>828.12109375</ele>
      </trkpt>
      <trkpt lat="44.23517" lon="3.72786">
        <ele>831.95703125</ele>
      </trkpt>
      <trkpt lat="44.23533" lon="3.72604">
        <ele>846.78125</ele>
      </trkpt>
      <trkpt lat="44.23571" lon="3.72534">
        <ele>851.0546875</ele>
      </trkpt>
      <trkpt lat="44.23666" lon="3.72466">
        <ele>862.31640625</ele>
      </trkpt>
      <trkpt lat="44.23703" lon="3.72487">
        <ele>858.03125</ele>
      </trkpt>
      <trkpt lat="44.23776" lon="3.72439">
        <ele>867.171875</ele>
      </trkpt>
      <trkpt lat="44.23823" lon="3.7245">
        <ele>868.69140625</ele>
      </trkpt>
      <trkpt lat="44.2386" lon="3.72489">
        <ele>864.0546875</ele>
      </trkpt>
      <trkpt lat="44.23915" lon="3.72457">
        <ele>873.328125</ele>
      </trkpt>
      <trkpt lat="44.24059" lon="3.72296">
        <ele>891.65625</ele>
      </trkpt>
      <trkpt lat="44.24087" lon="3.72245">
        <ele>893.57421875</ele>
      </trkpt>
      <trkpt lat="44.24131" lon="3.72111">
        <ele>896.890625</ele>
      </trkpt>
      <trkpt lat="44.24136" lon="3.72023">
        <ele>905.1953125</ele>
      </trkpt>
      <trkpt lat="44.24161" lon="3.7201">
        <ele>909.37109375</ele>
      </trkpt>
      <trkpt lat="44.24201" lon="3.72079">
        <ele>901.0625</ele>
      </trkpt>
      <trkpt lat="44.24258" lon="3.72099">
        <ele>902.390625</ele>
      </trkpt>
      <trkpt lat="44.24295" lon="3.72062">
        <ele>887.23</ele>
        <time>2021-05-26T10:43:55Z</time>
      </trkpt>
      <trkpt lat="44.24339" lon="3.72132">
        <ele>900.19921875</ele>
      </trkpt>
      <trkpt lat="44.24415" lon="3.72166">
        <ele>882.45</ele>
        <time>2021-05-26T10:44:05Z</time>
      </trkpt>
      <trkpt lat="44.24446" lon="3.72178">
        <ele>879.21</ele>
        <time>2021-05-26T10:44:07Z</time>
      </trkpt>
      <trkpt lat="44.24474" lon="3.72191">
        <ele>876.06</ele>
        <time>2021-05-26T10:44:09Z</time>
      </trkpt>
      <trkpt lat="44.24498" lon="3.72203">
        <ele>872.64</ele>
        <time>2021-05-26T10:44:11Z</time>
      </trkpt>
      <trkpt lat="44.24569" lon="3.72193">
        <ele>868.33</ele>
        <time>2021-05-26T10:44:18Z</time>
      </trkpt>
      <trkpt lat="44.24581" lon="3.72196">
        <ele>868.23</ele>
        <time>2021-05-26T10:44:19Z</time>
      </trkpt>
      <trkpt lat="44.24648" lon="3.72198">
        <ele>863.2</ele>
        <time>2021-05-26T10:44:24Z</time>
      </trkpt>
      <trkpt lat="44.24676" lon="3.72215">
        <ele>860.13</ele>
        <time>2021-05-26T10:44:27Z</time>
      </trkpt>
      <trkpt lat="44.24684" lon="3.72221">
        <ele>860.07</ele>
        <time>2021-05-26T10:44:28Z</time>
      </trkpt>
      <trkpt lat="44.24778" lon="3.72165">
        <ele>854.28</ele>
        <time>2021-05-26T10:44:37Z</time>
      </trkpt>
      <trkpt lat="44.24791" lon="3.72154">
        <ele>854.25</ele>
        <time>2021-05-26T10:44:38Z</time>
      </trkpt>
      <trkpt lat="44.24824" lon="3.72124">
        <ele>849.12</ele>
        <time>2021-05-26T10:44:41Z</time>
      </trkpt>
      <trkpt lat="44.24898" lon="3.72074">
        <ele>844.13</ele>
        <time>2021-05-26T10:44:48Z</time>
      </trkpt>
      <trkpt lat="44.24924" lon="3.72055">
        <ele>839.95</ele>
        <time>2021-05-26T10:44:51Z</time>
      </trkpt>
      <trkpt lat="44.24989" lon="3.72145">
        <ele>834.6</ele>
        <time>2021-05-26T10:44:59Z</time>
      </trkpt>
      <trkpt lat="44.25012" lon="3.72165">
        <ele>828.87</ele>
        <time>2021-05-26T10:45:03Z</time>
      </trkpt>
      <trkpt lat="44.25027" lon="3.72147">
        <ele>829.72</ele>
        <time>2021-05-26T10:45:05Z</time>
      </trkpt>
      <trkpt lat="44.25073" lon="3.72074">
        <ele>826.6</ele>
        <time>2021-05-26T10:45:10Z</time>
      </trkpt>
      <trkpt lat="44.2509" lon="3.72059">
        <ele>823.17</ele>
        <time>2021-05-26T10:45:12Z</time>
      </trkpt>
      <trkpt lat="44.25183" lon="3.72099">
        <ele>818.22</ele>
        <time>2021-05-26T10:45:20Z</time>
      </trkpt>
      <trkpt lat="44.25247" lon="3.72114">
        <ele>812.77</ele>
        <time>2021-05-26T10:45:25Z</time>
      </trkpt>
      <trkpt lat="44.2526" lon="3.72112">
        <ele>812.74</ele>
        <time>2021-05-26T10:45:26Z</time>
      </trkpt>
      <trkpt lat="44.25337" lon="3.72114">
        <ele>808.32</ele>
        <time>2021-05-26T10:45:31Z</time>
      </trkpt>
      <trkpt lat="44.25378" lon="3.72123">
        <ele>805.26</ele>
        <time>2021-05-26T10:45:34Z</time>
      </trkpt>
      <trkpt lat="44.2541" lon="3.72137">
        <ele>800.06</ele>
        <time>2021-05-26T10:45:37Z</time>
      </trkpt>
      <trkpt lat="44.25538" lon="3.72092">
        <ele>794.63</ele>
        <time>2021-05-26T10:45:47Z</time>
      </trkpt>
      <trkpt lat="44.25608" lon="3.72058">
        <ele>788.2</ele>
        <time>2021-05-26T10:45:52Z</time>
      </trkpt>
      <trkpt lat="44.25628" lon="3.72045">
        <ele>784.94</ele>
        <time>2021-05-26T10:45:54Z</time>
      </trkpt>
      <trkpt lat="44.25639" lon="3.72045">
        <ele>784.95</ele>
        <time>2021-05-26T10:45:55Z</time>
      </trkpt>
      <trkpt lat="44.25668" lon="3.72067">
        <ele>781.67</ele>
        <time>2021-05-26T10:45:58Z</time>
      </trkpt>
      <trkpt lat="44.25676" lon="3.72079">
        <ele>781.56</ele>
        <time>2021-05-26T10:45:59Z</time>
      </trkpt>
      <trkpt lat="44.25703" lon="3.72141">
        <ele>777.81</ele>
        <time>2021-05-26T10:46:03Z</time>
      </trkpt>
      <trkpt lat="44.25708" lon="3.72168">
        <ele>774.57</ele>
        <time>2021-05-26T10:46:05Z</time>
      </trkpt>
      <trkpt lat="44.25819" lon="3.72205">
        <ele>769.13</ele>
        <time>2021-05-26T10:46:15Z</time>
      </trkpt>
      <trkpt lat="44.25877" lon="3.72201">
        <ele>761.96</ele>
        <time>2021-05-26T10:46:20Z</time>
      </trkpt>
      <trkpt lat="44.25908" lon="3.72262">
        <ele>758.67</ele>
        <time>2021-05-26T10:46:26Z</time>
      </trkpt>
      <trkpt lat="44.26022" lon="3.72392">
        <ele>751.66</ele>
        <time>2021-05-26T10:46:37Z</time>
      </trkpt>
      <trkpt lat="44.26036" lon="3.72399">
        <ele>750.21</ele>
        <time>2021-05-26T10:46:38Z</time>
      </trkpt>
      <trkpt lat="44.26077" lon="3.72419">
        <ele>744.76</ele>
        <time>2021-05-26T10:46:42Z</time>
      </trkpt>
      <trkpt lat="44.26083" lon="3.72429">
        <ele>744.78</ele>
        <time>2021-05-26T10:46:43Z</time>
      </trkpt>
      <trkpt lat="44.26118" lon="3.72469">
        <ele>740.14</ele>
        <time>2021-05-26T10:46:49Z</time>
      </trkpt>
      <trkpt lat="44.26195" lon="3.72415">
        <ele>735.6</ele>
        <time>2021-05-26T10:46:57Z</time>
      </trkpt>
      <trkpt lat="44.26258" lon="3.72432">
        <ele>731.67</ele>
        <time>2021-05-26T10:47:02Z</time>
      </trkpt>
      <trkpt lat="44.26273" lon="3.72434">
        <ele>731.71</ele>
        <time>2021-05-26T10:47:03Z</time>
      </trkpt>
      <trkpt lat="44.26346" lon="3.72432">
        <ele>726.23</ele>
        <time>2021-05-26T10:47:08Z</time>
      </trkpt>
      <trkpt lat="44.26424" lon="3.7244">
        <ele>720.62</ele>
        <time>2021-05-26T10:47:13Z</time>
      </trkpt>
      <trkpt lat="44.26454" lon="3.72447">
        <ele>717.54</ele>
        <time>2021-05-26T10:47:15Z</time>
      </trkpt>
      <trkpt lat="44.26492" lon="3.7245">
        <ele>714.23</ele>
        <time>2021-05-26T10:47:18Z</time>
      </trkpt>
      <trkpt lat="44.26509" lon="3.72448">
        <ele>711.07</ele>
        <time>2021-05-26T10:47:20Z</time>
      </trkpt>
      <trkpt lat="44.26607" lon="3.7239">
        <ele>704.44</ele>
        <time>2021-05-26T10:47:34Z</time>
      </trkpt>
      <trkpt lat="44.26634" lon="3.72453">
        <ele>707.46</ele>
        <time>2021-05-26T10:47:39Z</time>
      </trkpt>
      <trkpt lat="44.26705" lon="3.7259">
        <ele>710.94</ele>
        <time>2021-05-26T10:47:47Z</time>
      </trkpt>
      <trkpt lat="44.26724" lon="3.7269">
        <ele>709.84</ele>
        <time>2021-05-26T10:47:53Z</time>
      </trkpt>
      <trkpt lat="44.26799" lon="3.72955">
        <ele>713.05</ele>
        <time>2021-05-26T10:48:17Z</time>
      </trkpt>
      <trkpt lat="44.26813" lon="3.72967">
        <ele>709.82</ele>
        <time>2021-05-26T10:48:18Z</time>
      </trkpt>
      <trkpt lat="44.26883" lon="3.73037">
        <ele>705.32</ele>
        <time>2021-05-26T10:48:23Z</time>
      </trkpt>
      <trkpt lat="44.26898" lon="3.73049">
        <ele>705.19</ele>
        <time>2021-05-26T10:48:24Z</time>
      </trkpt>
      <trkpt lat="44.26959" lon="3.73083">
        <ele>701.24</ele>
        <time>2021-05-26T10:48:28Z</time>
      </trkpt>
      <trkpt lat="44.27044" lon="3.73039">
        <ele>694.76</ele>
        <time>2021-05-26T10:48:36Z</time>
      </trkpt>
      <trkpt lat="44.2715" lon="3.73065">
        <ele>692.14</ele>
        <time>2021-05-26T10:48:58Z</time>
      </trkpt>
      <trkpt lat="44.27105" lon="3.73127">
        <ele>676.84</ele>
        <time>2021-05-26T12:12:16Z</time>
      </trkpt>
      <trkpt lat="44.27061" lon="3.73272">
        <ele>678.05</ele>
        <time>2021-05-26T12:12:17Z</time>
      </trkpt>
      <trkpt lat="44.27057" lon="3.73415">
        <ele>676.06</ele>
        <time>2021-05-26T12:12:23Z</time>
      </trkpt>
      <trkpt lat="44.27013" lon="3.73765">
        <ele>681.6</ele>
        <time>2021-05-26T12:13:03Z</time>
      </trkpt>
      <trkpt lat="44.26965" lon="3.73859">
        <ele>681.36</ele>
        <time>2021-05-26T12:13:04Z</time>
      </trkpt>
      <trkpt lat="44.2698" lon="3.73878">
        <ele>688.93</ele>
        <time>2021-05-26T12:13:18Z</time>
      </trkpt>
      <trkpt lat="44.27039" lon="3.73764">
        <ele>692.93</ele>
        <time>2021-05-26T12:13:23Z</time>
      </trkpt>
      <trkpt lat="44.2708" lon="3.73652">
        <ele>697.16</ele>
        <time>2021-05-26T12:13:30Z</time>
      </trkpt>
      <trkpt lat="44.27078" lon="3.73621">
        <ele>697.12</ele>
        <time>2021-05-26T12:13:31Z</time>
      </trkpt>
      <trkpt lat="44.27074" lon="3.73604">
        <ele>698.48</ele>
        <time>2021-05-26T12:13:32Z</time>
      </trkpt>
      <trkpt lat="44.27075" lon="3.73588">
        <ele>698.45</ele>
        <time>2021-05-26T12:13:33Z</time>
      </trkpt>
      <trkpt lat="44.27106" lon="3.73485">
        <ele>704.81</ele>
        <time>2021-05-26T12:13:40Z</time>
      </trkpt>
      <trkpt lat="44.27142" lon="3.73352">
        <ele>708.11</ele>
        <time>2021-05-26T12:13:49Z</time>
      </trkpt>
      <trkpt lat="44.27142" lon="3.73342">
        <ele>708.1</ele>
        <time>2021-05-26T12:13:50Z</time>
      </trkpt>
      <trkpt lat="44.27141" lon="3.7333">
        <ele>704.87</ele>
        <time>2021-05-26T12:13:51Z</time>
      </trkpt>
      <trkpt lat="44.2716" lon="3.73328">
        <ele>704.88</ele>
        <time>2021-05-26T12:13:52Z</time>
      </trkpt>
      <trkpt lat="44.27155" lon="3.73346">
        <ele>703.46</ele>
        <time>2021-05-26T12:14:17Z</time>
      </trkpt>
      <trkpt lat="44.27137" lon="3.73437">
        <ele>707.27</ele>
        <time>2021-05-26T12:14:23Z</time>
      </trkpt>
      <trkpt lat="44.27101" lon="3.73548">
        <ele>711.08</ele>
        <time>2021-05-26T12:14:29Z</time>
      </trkpt>
      <trkpt lat="44.27109" lon="3.73693">
        <ele>714.6</ele>
        <time>2021-05-26T12:14:36Z</time>
      </trkpt>
      <trkpt lat="44.27096" lon="3.73737">
        <ele>718.21</ele>
        <time>2021-05-26T12:14:38Z</time>
      </trkpt>
      <trkpt lat="44.27087" lon="3.7376">
        <ele>719.41</ele>
        <time>2021-05-26T12:14:39Z</time>
      </trkpt>
      <trkpt lat="44.27077" lon="3.73782">
        <ele>719.35</ele>
        <time>2021-05-26T12:14:40Z</time>
      </trkpt>
      <trkpt lat="44.27055" lon="3.73844">
        <ele>719.43</ele>
        <time>2021-05-26T12:14:43Z</time>
      </trkpt>
      <trkpt lat="44.27035" lon="3.73954">
        <ele>723.68</ele>
        <time>2021-05-26T12:14:48Z</time>
      </trkpt>
      <trkpt lat="44.26979" lon="3.74043">
        <ele>727.16</ele>
        <time>2021-05-26T12:14:53Z</time>
      </trkpt>
      <trkpt lat="44.26898" lon="3.74112">
        <ele>730.88</ele>
        <time>2021-05-26T12:14:59Z</time>
      </trkpt>
      <trkpt lat="44.26888" lon="3.74126">
        <ele>730.21</ele>
        <time>2021-05-26T12:15:00Z</time>
      </trkpt>
      <trkpt lat="44.26912" lon="3.74309">
        <ele>734.55</ele>
        <time>2021-05-26T12:15:09Z</time>
      </trkpt>
      <trkpt lat="44.26963" lon="3.74494">
        <ele>738.96</ele>
        <time>2021-05-26T12:15:16Z</time>
      </trkpt>
      <trkpt lat="44.2699" lon="3.74631">
        <ele>736.31</ele>
        <time>2021-05-26T12:15:21Z</time>
      </trkpt>
      <trkpt lat="44.26986" lon="3.74741">
        <ele>731.58</ele>
        <time>2021-05-26T12:15:25Z</time>
      </trkpt>
      <trkpt lat="44.2698" lon="3.7479">
        <ele>728.41</ele>
        <time>2021-05-26T12:15:27Z</time>
      </trkpt>
      <trkpt lat="44.26977" lon="3.74841">
        <ele>725.17</ele>
        <time>2021-05-26T12:15:29Z</time>
      </trkpt>
      <trkpt lat="44.26977" lon="3.74867">
        <ele>725.29</ele>
        <time>2021-05-26T12:15:30Z</time>
      </trkpt>
      <trkpt lat="44.27002" lon="3.74994">
        <ele>719.73</ele>
        <time>2021-05-26T12:15:35Z</time>
      </trkpt>
      <trkpt lat="44.27003" lon="3.75019">
        <ele>719.76</ele>
        <time>2021-05-26T12:15:36Z</time>
      </trkpt>
      <trkpt lat="44.26937" lon="3.75133">
        <ele>723.66</ele>
        <time>2021-05-26T12:15:42Z</time>
      </trkpt>
      <trkpt lat="44.26758" lon="3.75536">
        <ele>719.32</ele>
        <time>2021-05-26T12:16:00Z</time>
      </trkpt>
      <trkpt lat="44.2683" lon="3.76096">
        <ele>712.56</ele>
        <time>2021-05-26T12:16:23Z</time>
      </trkpt>
      <trkpt lat="44.26827" lon="3.76124">
        <ele>712.61</ele>
        <time>2021-05-26T12:16:24Z</time>
      </trkpt>
      <trkpt lat="44.26954" lon="3.76574">
        <ele>709.34</ele>
        <time>2021-05-26T12:16:39Z</time>
      </trkpt>
      <trkpt lat="44.26964" lon="3.76932">
        <ele>709.65</ele>
        <time>2021-05-26T12:16:50Z</time>
      </trkpt>
      <trkpt lat="44.26999" lon="3.77122">
        <ele>714</ele>
        <time>2021-05-26T12:16:56Z</time>
      </trkpt>
      <trkpt lat="44.26983" lon="3.77335">
        <ele>711.26</ele>
        <time>2021-05-26T12:17:03Z</time>
      </trkpt>
      <trkpt lat="44.27016" lon="3.77446">
        <ele>716.32</ele>
        <time>2021-05-26T12:17:07Z</time>
      </trkpt>
      <trkpt lat="44.27028" lon="3.77473">
        <ele>716.35</ele>
        <time>2021-05-26T12:17:08Z</time>
      </trkpt>
      <trkpt lat="44.27313" lon="3.77648">
        <ele>723.24</ele>
        <time>2021-05-26T12:17:22Z</time>
      </trkpt>
      <trkpt lat="44.27363" lon="3.77662">
        <ele>719.85</ele>
        <time>2021-05-26T12:17:24Z</time>
      </trkpt>
      <trkpt lat="44.27386" lon="3.77668">
        <ele>727.72</ele>
        <time>2021-05-26T12:17:25Z</time>
      </trkpt>
      <trkpt lat="44.27409" lon="3.77674">
        <ele>727.68</ele>
        <time>2021-05-26T12:17:26Z</time>
      </trkpt>
      <trkpt lat="44.27476" lon="3.77701">
        <ele>731.61</ele>
        <time>2021-05-26T12:17:29Z</time>
      </trkpt>
      <trkpt lat="44.27562" lon="3.77749">
        <ele>735.47</ele>
        <time>2021-05-26T12:17:33Z</time>
      </trkpt>
      <trkpt lat="44.27584" lon="3.7776">
        <ele>735.49</ele>
        <time>2021-05-26T12:17:34Z</time>
      </trkpt>
      <trkpt lat="44.27645" lon="3.77792">
        <ele>738</ele>
        <time>2021-05-26T12:17:37Z</time>
      </trkpt>
      <trkpt lat="44.27715" lon="3.77862">
        <ele>742.7</ele>
        <time>2021-05-26T12:17:41Z</time>
      </trkpt>
      <trkpt lat="44.27767" lon="3.77917">
        <ele>746.15</ele>
        <time>2021-05-26T12:17:44Z</time>
      </trkpt>
      <trkpt lat="44.27807" lon="3.77944">
        <ele>749.72</ele>
        <time>2021-05-26T12:17:46Z</time>
      </trkpt>
      <trkpt lat="44.27873" lon="3.77968">
        <ele>755.37</ele>
        <time>2021-05-26T12:17:49Z</time>
      </trkpt>
      <trkpt lat="44.27895" lon="3.77977">
        <ele>755.39</ele>
        <time>2021-05-26T12:17:50Z</time>
      </trkpt>
      <trkpt lat="44.27966" lon="3.78079">
        <ele>761.02</ele>
        <time>2021-05-26T12:17:55Z</time>
      </trkpt>
      <trkpt lat="44.27975" lon="3.78133">
        <ele>762.78</ele>
        <time>2021-05-26T12:17:57Z</time>
      </trkpt>
      <trkpt lat="44.27991" lon="3.78235">
        <ele>766.23</ele>
        <time>2021-05-26T12:18:01Z</time>
      </trkpt>
      <trkpt lat="44.27997" lon="3.78261">
        <ele>766.07</ele>
        <time>2021-05-26T12:18:02Z</time>
      </trkpt>
      <trkpt lat="44.28011" lon="3.78315">
        <ele>769.36</ele>
        <time>2021-05-26T12:18:04Z</time>
      </trkpt>
      <trkpt lat="44.28019" lon="3.78341">
        <ele>769.3</ele>
        <time>2021-05-26T12:18:05Z</time>
      </trkpt>
      <trkpt lat="44.28055" lon="3.78454">
        <ele>773.02</ele>
        <time>2021-05-26T12:18:10Z</time>
      </trkpt>
      <trkpt lat="44.28062" lon="3.78475">
        <ele>773.74</ele>
        <time>2021-05-26T12:18:11Z</time>
      </trkpt>
      <trkpt lat="44.28067" lon="3.78545">
        <ele>778.23</ele>
        <time>2021-05-26T12:18:14Z</time>
      </trkpt>
      <trkpt lat="44.28063" lon="3.78594">
        <ele>780.54</ele>
        <time>2021-05-26T12:18:16Z</time>
      </trkpt>
      <trkpt lat="44.28054" lon="3.7869">
        <ele>784.12</ele>
        <time>2021-05-26T12:18:20Z</time>
      </trkpt>
      <trkpt lat="44.28051" lon="3.78714">
        <ele>784.27</ele>
        <time>2021-05-26T12:18:21Z</time>
      </trkpt>
      <trkpt lat="44.28063" lon="3.78822">
        <ele>787.68</ele>
        <time>2021-05-26T12:19:15Z</time>
      </trkpt>
      <trkpt lat="44.28079" lon="3.78797">
        <ele>787.86</ele>
        <time>2021-05-26T12:19:20Z</time>
      </trkpt>
      <trkpt lat="44.28177" lon="3.78759">
        <ele>791.95</ele>
        <time>2021-05-26T12:19:32Z</time>
      </trkpt>
      <trkpt lat="44.28184" lon="3.78757">
        <ele>792</ele>
        <time>2021-05-26T12:19:33Z</time>
      </trkpt>
      <trkpt lat="44.28264" lon="3.78837">
        <ele>797.46</ele>
        <time>2021-05-26T12:19:52Z</time>
      </trkpt>
      <trkpt lat="44.28361" lon="3.78908">
        <ele>803.89</ele>
        <time>2021-05-26T12:20:02Z</time>
      </trkpt>
      <trkpt lat="44.28408" lon="3.78942">
        <ele>806.16</ele>
        <time>2021-05-26T12:20:07Z</time>
      </trkpt>
      <trkpt lat="44.28412" lon="3.7895">
        <ele>806.14</ele>
        <time>2021-05-26T12:20:08Z</time>
      </trkpt>
      <trkpt lat="44.28452" lon="3.78999">
        <ele>809.94</ele>
        <time>2021-05-26T12:20:16Z</time>
      </trkpt>
      <trkpt lat="44.28564" lon="3.79122">
        <ele>816.52</ele>
        <time>2021-05-26T12:20:33Z</time>
      </trkpt>
      <trkpt lat="44.28555" lon="3.79317">
        <ele>822.02</ele>
        <time>2021-05-26T12:20:50Z</time>
      </trkpt>
      <trkpt lat="44.28568" lon="3.79368">
        <ele>826.4</ele>
        <time>2021-05-26T12:20:59Z</time>
      </trkpt>
      <trkpt lat="44.28646" lon="3.79381">
        <ele>829.48</ele>
        <time>2021-05-26T12:21:06Z</time>
      </trkpt>
      <trkpt lat="44.28655" lon="3.79385">
        <ele>829.49</ele>
        <time>2021-05-26T12:21:07Z</time>
      </trkpt>
      <trkpt lat="44.28804" lon="3.79649">
        <ele>838.06</ele>
        <time>2021-05-26T12:21:36Z</time>
      </trkpt>
      <trkpt lat="44.28812" lon="3.79663">
        <ele>838.11</ele>
        <time>2021-05-26T12:21:37Z</time>
      </trkpt>
      <trkpt lat="44.28861" lon="3.79794">
        <ele>841.99</ele>
        <time>2021-05-26T12:21:48Z</time>
      </trkpt>
      <trkpt lat="44.28863" lon="3.79801">
        <ele>841.77</ele>
        <time>2021-05-26T12:21:53Z</time>
      </trkpt>
      <trkpt lat="44.28866" lon="3.7984">
        <ele>844.71</ele>
        <time>2021-05-26T12:23:43Z</time>
      </trkpt>
      <trkpt lat="44.28871" lon="3.79909">
        <ele>847.68</ele>
        <time>2021-05-26T12:23:51Z</time>
      </trkpt>
      <trkpt lat="44.28884" lon="3.80081">
        <ele>852.83</ele>
        <time>2021-05-26T12:24:04Z</time>
      </trkpt>
      <trkpt lat="44.28881" lon="3.80238">
        <ele>856.78</ele>
        <time>2021-05-26T12:24:15Z</time>
      </trkpt>
      <trkpt lat="44.28931" lon="3.80344">
        <ele>861.84</ele>
        <time>2021-05-26T12:24:28Z</time>
      </trkpt>
      <trkpt lat="44.28956" lon="3.80309">
        <ele>865.58</ele>
        <time>2021-05-26T12:24:33Z</time>
      </trkpt>
      <trkpt lat="44.28989" lon="3.80242">
        <ele>871.58</ele>
        <time>2021-05-26T12:24:39Z</time>
      </trkpt>
      <trkpt lat="44.29006" lon="3.80204">
        <ele>874.76</ele>
        <time>2021-05-26T12:24:42Z</time>
      </trkpt>
      <trkpt lat="44.29012" lon="3.80191">
        <ele>874.86</ele>
        <time>2021-05-26T12:24:43Z</time>
      </trkpt>
      <trkpt lat="44.2903" lon="3.80153">
        <ele>878.47</ele>
        <time>2021-05-26T12:24:46Z</time>
      </trkpt>
      <trkpt lat="44.29062" lon="3.80098">
        <ele>881.87</ele>
        <time>2021-05-26T12:24:51Z</time>
      </trkpt>
      <trkpt lat="44.2912" lon="3.8009">
        <ele>887.11</ele>
        <time>2021-05-26T12:24:57Z</time>
      </trkpt>
      <trkpt lat="44.2918" lon="3.80099">
        <ele>891.57</ele>
        <time>2021-05-26T12:25:02Z</time>
      </trkpt>
      <trkpt lat="44.29245" lon="3.80116">
        <ele>896.57</ele>
        <time>2021-05-26T12:25:07Z</time>
      </trkpt>
      <trkpt lat="44.29282" lon="3.80135">
        <ele>899.68</ele>
        <time>2021-05-26T12:25:10Z</time>
      </trkpt>
      <trkpt lat="44.29339" lon="3.80152">
        <ele>902.91</ele>
        <time>2021-05-26T12:25:15Z</time>
      </trkpt>
      <trkpt lat="44.29378" lon="3.80149">
        <ele>906.29</ele>
        <time>2021-05-26T12:25:19Z</time>
      </trkpt>
      <trkpt lat="44.29398" lon="3.80138">
        <ele>908.54</ele>
        <time>2021-05-26T12:25:21Z</time>
      </trkpt>
      <trkpt lat="44.29416" lon="3.80127">
        <ele>909.24</ele>
        <time>2021-05-26T12:25:23Z</time>
      </trkpt>
      <trkpt lat="44.29475" lon="3.80114">
        <ele>914.54</ele>
        <time>2021-05-26T12:25:28Z</time>
      </trkpt>
      <trkpt lat="44.29486" lon="3.80114">
        <ele>914.53</ele>
        <time>2021-05-26T12:25:29Z</time>
      </trkpt>
      <trkpt lat="44.29499" lon="3.80115">
        <ele>914.94</ele>
        <time>2021-05-26T12:25:30Z</time>
      </trkpt>
      <trkpt lat="44.29591" lon="3.80173">
        <ele>923.24</ele>
        <time>2021-05-26T12:25:38Z</time>
      </trkpt>
      <trkpt lat="44.29603" lon="3.80184">
        <ele>923.33</ele>
        <time>2021-05-26T12:25:39Z</time>
      </trkpt>
      <trkpt lat="44.29624" lon="3.80204">
        <ele>925.58</ele>
        <time>2021-05-26T12:25:41Z</time>
      </trkpt>
      <trkpt lat="44.29667" lon="3.80233">
        <ele>928.8</ele>
        <time>2021-05-26T12:25:45Z</time>
      </trkpt>
      <trkpt lat="44.29676" lon="3.80241">
        <ele>928.73</ele>
        <time>2021-05-26T12:25:46Z</time>
      </trkpt>
      <trkpt lat="44.29685" lon="3.80248">
        <ele>929.7</ele>
        <time>2021-05-26T12:25:47Z</time>
      </trkpt>
      <trkpt lat="44.29724" lon="3.80323">
        <ele>935.65</ele>
        <time>2021-05-26T12:25:53Z</time>
      </trkpt>
      <trkpt lat="44.29736" lon="3.80391">
        <ele>939.43</ele>
        <time>2021-05-26T12:25:57Z</time>
      </trkpt>
      <trkpt lat="44.29737" lon="3.80409">
        <ele>939.53</ele>
        <time>2021-05-26T12:25:58Z</time>
      </trkpt>
      <trkpt lat="44.29738" lon="3.80455">
        <ele>941.16</ele>
        <time>2021-05-26T12:26:01Z</time>
      </trkpt>
      <trkpt lat="44.29762" lon="3.80514">
        <ele>945.49</ele>
        <time>2021-05-26T12:26:06Z</time>
      </trkpt>
      <trkpt lat="44.29827" lon="3.80587">
        <ele>951.98</ele>
        <time>2021-05-26T12:26:17Z</time>
      </trkpt>
      <trkpt lat="44.29835" lon="3.8058">
        <ele>952.02</ele>
        <time>2021-05-26T12:26:18Z</time>
      </trkpt>
      <trkpt lat="44.29888" lon="3.80553">
        <ele>958.08</ele>
        <time>2021-05-26T12:26:23Z</time>
      </trkpt>
      <trkpt lat="44.29957" lon="3.80518">
        <ele>963.53</ele>
        <time>2021-05-26T12:26:28Z</time>
      </trkpt>
      <trkpt lat="44.29969" lon="3.8051">
        <ele>963.63</ele>
        <time>2021-05-26T12:26:29Z</time>
      </trkpt>
      <trkpt lat="44.29991" lon="3.80496">
        <ele>965.04</ele>
        <time>2021-05-26T12:26:31Z</time>
      </trkpt>
      <trkpt lat="44.30039" lon="3.80513">
        <ele>969.31</ele>
        <time>2021-05-26T12:26:38Z</time>
      </trkpt>
      <trkpt lat="44.30043" lon="3.80522">
        <ele>969.32</ele>
        <time>2021-05-26T12:26:39Z</time>
      </trkpt>
      <trkpt lat="44.30067" lon="3.80578">
        <ele>973.15</ele>
        <time>2021-05-26T12:26:46Z</time>
      </trkpt>
      <trkpt lat="44.30086" lon="3.80614">
        <ele>976.49</ele>
        <time>2021-05-26T12:26:49Z</time>
      </trkpt>
      <trkpt lat="44.30094" lon="3.80626">
        <ele>976.54</ele>
        <time>2021-05-26T12:26:50Z</time>
      </trkpt>
      <trkpt lat="44.30147" lon="3.80708">
        <ele>982.62</ele>
        <time>2021-05-26T12:26:57Z</time>
      </trkpt>
      <trkpt lat="44.30155" lon="3.8072">
        <ele>982.62</ele>
        <time>2021-05-26T12:26:58Z</time>
      </trkpt>
      <trkpt lat="44.30185" lon="3.80766">
        <ele>986</ele>
        <time>2021-05-26T12:27:02Z</time>
      </trkpt>
      <trkpt lat="44.30213" lon="3.80822">
        <ele>990.7</ele>
        <time>2021-05-26T12:27:07Z</time>
      </trkpt>
      <trkpt lat="44.3022" lon="3.80834">
        <ele>990.77</ele>
        <time>2021-05-26T12:27:08Z</time>
      </trkpt>
      <trkpt lat="44.30244" lon="3.80875">
        <ele>994.08</ele>
        <time>2021-05-26T12:27:12Z</time>
      </trkpt>
      <trkpt lat="44.3026" lon="3.80904">
        <ele>996.13</ele>
        <time>2021-05-26T12:27:15Z</time>
      </trkpt>
      <trkpt lat="44.30305" lon="3.80937">
        <ele>1000.3</ele>
        <time>2021-05-26T12:27:21Z</time>
      </trkpt>
      <trkpt lat="44.30347" lon="3.80895">
        <ele>1005.44</ele>
        <time>2021-05-26T12:27:29Z</time>
      </trkpt>
      <trkpt lat="44.3039" lon="3.80767">
        <ele>1011.62</ele>
        <time>2021-05-26T12:27:40Z</time>
      </trkpt>
      <trkpt lat="44.30407" lon="3.80737">
        <ele>1015.05</ele>
        <time>2021-05-26T12:27:43Z</time>
      </trkpt>
      <trkpt lat="44.30412" lon="3.80726">
        <ele>1014.95</ele>
        <time>2021-05-26T12:27:44Z</time>
      </trkpt>
      <trkpt lat="44.30428" lon="3.80657">
        <ele>1019.77</ele>
        <time>2021-05-26T12:27:50Z</time>
      </trkpt>
      <trkpt lat="44.30432" lon="3.80646">
        <ele>1019.86</ele>
        <time>2021-05-26T12:27:51Z</time>
      </trkpt>
      <trkpt lat="44.30464" lon="3.80596">
        <ele>1024.66</ele>
        <time>2021-05-26T12:27:56Z</time>
      </trkpt>
      <trkpt lat="44.3052" lon="3.8048">
        <ele>1032.18</ele>
        <time>2021-05-26T12:28:07Z</time>
      </trkpt>
      <trkpt lat="44.30534" lon="3.8044">
        <ele>1035.27</ele>
        <time>2021-05-26T12:28:10Z</time>
      </trkpt>
      <trkpt lat="44.30577" lon="3.80394">
        <ele>1038.35</ele>
        <time>2021-05-26T12:28:15Z</time>
      </trkpt>
      <trkpt lat="44.30644" lon="3.80388">
        <ele>1042.86</ele>
        <time>2021-05-26T12:28:23Z</time>
      </trkpt>
      <trkpt lat="44.30695" lon="3.80499">
        <ele>1048.53</ele>
        <time>2021-05-26T12:28:33Z</time>
      </trkpt>
      <trkpt lat="44.30713" lon="3.80619">
        <ele>1053.53</ele>
        <time>2021-05-26T12:28:42Z</time>
      </trkpt>
      <trkpt lat="44.30715" lon="3.80633">
        <ele>1053.56</ele>
        <time>2021-05-26T12:28:43Z</time>
      </trkpt>
      <trkpt lat="44.30719" lon="3.80645">
        <ele>1054.48</ele>
        <time>2021-05-26T12:28:44Z</time>
      </trkpt>
      <trkpt lat="44.3074" lon="3.80711">
        <ele>1056.78</ele>
        <time>2021-05-26T12:28:50Z</time>
      </trkpt>
      <trkpt lat="44.30741" lon="3.80723">
        <ele>1056.78</ele>
        <time>2021-05-26T12:28:51Z</time>
      </trkpt>
      <trkpt lat="44.30775" lon="3.80842">
        <ele>1059.84</ele>
        <time>2021-05-26T12:29:01Z</time>
      </trkpt>
      <trkpt lat="44.30782" lon="3.8085">
        <ele>1059.85</ele>
        <time>2021-05-26T12:29:02Z</time>
      </trkpt>
      <trkpt lat="44.30811" lon="3.80924">
        <ele>1064.54</ele>
        <time>2021-05-26T12:29:15Z</time>
      </trkpt>
      <trkpt lat="44.30819" lon="3.80921">
        <ele>1064.54</ele>
        <time>2021-05-26T12:29:17Z</time>
      </trkpt>
      <trkpt lat="44.30829" lon="3.80916">
        <ele>1065.78</ele>
        <time>2021-05-26T12:29:19Z</time>
      </trkpt>
      <trkpt lat="44.30961" lon="3.80914">
        <ele>1073.89</ele>
        <time>2021-05-26T12:29:36Z</time>
      </trkpt>
      <trkpt lat="44.30965" lon="3.8091">
        <ele>1073.87</ele>
        <time>2021-05-26T12:29:37Z</time>
      </trkpt>
      <trkpt lat="44.30972" lon="3.80904">
        <ele>1074.87</ele>
        <time>2021-05-26T12:29:38Z</time>
      </trkpt>
      <trkpt lat="44.31076" lon="3.80826">
        <ele>1081.09</ele>
        <time>2021-05-26T12:29:52Z</time>
      </trkpt>
      <trkpt lat="44.31227" lon="3.80759">
        <ele>1084.7</ele>
        <time>2021-05-26T12:30:05Z</time>
      </trkpt>
      <trkpt lat="44.31278" lon="3.80749">
        <ele>1088.4</ele>
        <time>2021-05-26T12:30:11Z</time>
      </trkpt>
      <trkpt lat="44.31302" lon="3.8071">
        <ele>1091.63</ele>
        <time>2021-05-26T12:30:15Z</time>
      </trkpt>
      <trkpt lat="44.31325" lon="3.80664">
        <ele>1095.65</ele>
        <time>2021-05-26T12:30:18Z</time>
      </trkpt>
      <trkpt lat="44.31347" lon="3.80623">
        <ele>1098.84</ele>
        <time>2021-05-26T12:30:21Z</time>
      </trkpt>
      <trkpt lat="44.31354" lon="3.8061">
        <ele>1098.86</ele>
        <time>2021-05-26T12:30:22Z</time>
      </trkpt>
      <trkpt lat="44.31402" lon="3.80529">
        <ele>1104.36</ele>
        <time>2021-05-26T12:30:29Z</time>
      </trkpt>
      <trkpt lat="44.31419" lon="3.80502">
        <ele>1105.95</ele>
        <time>2021-05-26T12:30:33Z</time>
      </trkpt>
      <trkpt lat="44.31412" lon="3.80454">
        <ele>1110.06</ele>
        <time>2021-05-26T12:30:38Z</time>
      </trkpt>
      <trkpt lat="44.31421" lon="3.80385">
        <ele>1113.82</ele>
        <time>2021-05-26T12:30:43Z</time>
      </trkpt>
      <trkpt lat="44.31427" lon="3.80368">
        <ele>1113.9</ele>
        <time>2021-05-26T12:30:44Z</time>
      </trkpt>
      <trkpt lat="44.31431" lon="3.80322">
        <ele>1117.57</ele>
        <time>2021-05-26T12:30:47Z</time>
      </trkpt>
      <trkpt lat="44.31408" lon="3.80246">
        <ele>1121.7</ele>
        <time>2021-05-26T12:30:53Z</time>
      </trkpt>
      <trkpt lat="44.31441" lon="3.80183">
        <ele>1125.83</ele>
        <time>2021-05-26T12:31:29Z</time>
      </trkpt>
      <trkpt lat="44.31469" lon="3.80131">
        <ele>1129.7</ele>
        <time>2021-05-26T12:31:39Z</time>
      </trkpt>
      <trkpt lat="44.31479" lon="3.80115">
        <ele>1130.93</ele>
        <time>2021-05-26T12:31:41Z</time>
      </trkpt>
      <trkpt lat="44.31597" lon="3.80024">
        <ele>1135.56</ele>
        <time>2021-05-26T12:31:55Z</time>
      </trkpt>
      <trkpt lat="44.31603" lon="3.80018">
        <ele>1135.6</ele>
        <time>2021-05-26T12:31:56Z</time>
      </trkpt>
      <trkpt lat="44.31613" lon="3.79857">
        <ele>1143.58</ele>
        <time>2021-05-26T12:32:08Z</time>
      </trkpt>
      <trkpt lat="44.31615" lon="3.7984">
        <ele>1143.66</ele>
        <time>2021-05-26T12:32:09Z</time>
      </trkpt>
      <trkpt lat="44.31621" lon="3.79808">
        <ele>1146.92</ele>
        <time>2021-05-26T12:32:11Z</time>
      </trkpt>
      <trkpt lat="44.31632" lon="3.79758">
        <ele>1150.49</ele>
        <time>2021-05-26T12:32:14Z</time>
      </trkpt>
      <trkpt lat="44.31636" lon="3.79741">
        <ele>1150.51</ele>
        <time>2021-05-26T12:32:15Z</time>
      </trkpt>
      <trkpt lat="44.31644" lon="3.79705">
        <ele>1153.95</ele>
        <time>2021-05-26T12:32:17Z</time>
      </trkpt>
      <trkpt lat="44.31648" lon="3.79687">
        <ele>1153.97</ele>
        <time>2021-05-26T12:32:18Z</time>
      </trkpt>
      <trkpt lat="44.31671" lon="3.79588">
        <ele>1159.51</ele>
        <time>2021-05-26T12:32:37Z</time>
      </trkpt>
      <trkpt lat="44.31674" lon="3.79577">
        <ele>1159.55</ele>
        <time>2021-05-26T12:32:38Z</time>
      </trkpt>
      <trkpt lat="44.3169" lon="3.79512">
        <ele>1163.97</ele>
        <time>2021-05-26T12:32:43Z</time>
      </trkpt>
      <trkpt lat="44.31682" lon="3.79414">
        <ele>1169.72</ele>
        <time>2021-05-26T12:32:49Z</time>
      </trkpt>
      <trkpt lat="44.31677" lon="3.79396">
        <ele>1169.74</ele>
        <time>2021-05-26T12:32:50Z</time>
      </trkpt>
      <trkpt lat="44.31671" lon="3.79379">
        <ele>1170.97</ele>
        <time>2021-05-26T12:32:51Z</time>
      </trkpt>
      <trkpt lat="44.31651" lon="3.7932">
        <ele>1174.82</ele>
        <time>2021-05-26T12:32:54Z</time>
      </trkpt>
      <trkpt lat="44.31629" lon="3.79262">
        <ele>1178.53</ele>
        <time>2021-05-26T12:32:57Z</time>
      </trkpt>
      <trkpt lat="44.31614" lon="3.7923">
        <ele>1179.53</ele>
        <time>2021-05-26T12:32:59Z</time>
      </trkpt>
      <trkpt lat="44.31579" lon="3.7909">
        <ele>1185.86</ele>
        <time>2021-05-26T12:33:08Z</time>
      </trkpt>
      <trkpt lat="44.31578" lon="3.78997">
        <ele>1190.62</ele>
        <time>2021-05-26T12:33:13Z</time>
      </trkpt>
      <trkpt lat="44.31579" lon="3.78979">
        <ele>1190.56</ele>
        <time>2021-05-26T12:33:14Z</time>
      </trkpt>
      <trkpt lat="44.31591" lon="3.78892">
        <ele>1193.82</ele>
        <time>2021-05-26T12:33:19Z</time>
      </trkpt>
      <trkpt lat="44.31593" lon="3.78874">
        <ele>1193.79</ele>
        <time>2021-05-26T12:33:20Z</time>
      </trkpt>
      <trkpt lat="44.31609" lon="3.787">
        <ele>1199.83</ele>
        <time>2021-05-26T12:33:38Z</time>
      </trkpt>
      <trkpt lat="44.31601" lon="3.78691">
        <ele>1199.94</ele>
        <time>2021-05-26T12:33:39Z</time>
      </trkpt>
      <trkpt lat="44.31491" lon="3.78509">
        <ele>1208.03</ele>
        <time>2021-05-26T12:33:58Z</time>
      </trkpt>
      <trkpt lat="44.31493" lon="3.78498">
        <ele>1207.94</ele>
        <time>2021-05-26T12:33:59Z</time>
      </trkpt>
      <trkpt lat="44.3143" lon="3.78409">
        <ele>1213.52</ele>
        <time>2021-05-26T12:34:10Z</time>
      </trkpt>
      <trkpt lat="44.31424" lon="3.78392">
        <ele>1213.47</ele>
        <time>2021-05-26T12:34:11Z</time>
      </trkpt>
      <trkpt lat="44.31406" lon="3.7829">
        <ele>1217.9</ele>
        <time>2021-05-26T12:34:17Z</time>
      </trkpt>
      <trkpt lat="44.31391" lon="3.7824">
        <ele>1218.06</ele>
        <time>2021-05-26T12:34:21Z</time>
      </trkpt>
      <trkpt lat="44.31303" lon="3.78122">
        <ele>1222.52</ele>
        <time>2021-05-26T12:34:31Z</time>
      </trkpt>
      <trkpt lat="44.31402" lon="3.78015">
        <ele>1227.73</ele>
        <time>2021-05-26T12:34:45Z</time>
      </trkpt>
      <trkpt lat="44.31412" lon="3.78006">
        <ele>1227.75</ele>
        <time>2021-05-26T12:34:46Z</time>
      </trkpt>
      <trkpt lat="44.31421" lon="3.77995">
        <ele>1227.77</ele>
        <time>2021-05-26T12:34:47Z</time>
      </trkpt>
      <trkpt lat="44.31464" lon="3.7794">
        <ele>1230.03</ele>
        <time>2021-05-26T12:34:52Z</time>
      </trkpt>
      <trkpt lat="44.3147" lon="3.77928">
        <ele>1230.1</ele>
        <time>2021-05-26T12:34:53Z</time>
      </trkpt>
      <trkpt lat="44.31493" lon="3.77831">
        <ele>1231.48</ele>
        <time>2021-05-26T12:34:59Z</time>
      </trkpt>
      <trkpt lat="44.31497" lon="3.77812">
        <ele>1231.46</ele>
        <time>2021-05-26T12:35:00Z</time>
      </trkpt>
      <trkpt lat="44.3165" lon="3.77283">
        <ele>1236.39</ele>
        <time>2021-05-26T12:35:33Z</time>
      </trkpt>
      <trkpt lat="44.31664" lon="3.77276">
        <ele>1236.44</ele>
        <time>2021-05-26T12:35:34Z</time>
      </trkpt>
      <trkpt lat="44.3172" lon="3.77202">
        <ele>1241.05</ele>
        <time>2021-05-26T12:35:40Z</time>
      </trkpt>
      <trkpt lat="44.31733" lon="3.77165">
        <ele>1242.15</ele>
        <time>2021-05-26T12:35:42Z</time>
      </trkpt>
      <trkpt lat="44.31761" lon="3.77091">
        <ele>1246.86</ele>
        <time>2021-05-26T12:35:46Z</time>
      </trkpt>
      <trkpt lat="44.31797" lon="3.77003">
        <ele>1250.01</ele>
        <time>2021-05-26T12:35:51Z</time>
      </trkpt>
      <trkpt lat="44.3181" lon="3.76968">
        <ele>1251.2</ele>
        <time>2021-05-26T12:35:53Z</time>
      </trkpt>
      <trkpt lat="44.31836" lon="3.76848">
        <ele>1256.7</ele>
        <time>2021-05-26T12:35:59Z</time>
      </trkpt>
      <trkpt lat="44.31849" lon="3.76807">
        <ele>1260.26</ele>
        <time>2021-05-26T12:36:01Z</time>
      </trkpt>
      <trkpt lat="44.31856" lon="3.76788">
        <ele>1260.37</ele>
        <time>2021-05-26T12:36:02Z</time>
      </trkpt>
      <trkpt lat="44.31887" lon="3.76698">
        <ele>1261.37</ele>
        <time>2021-05-26T12:36:18Z</time>
      </trkpt>
      <trkpt lat="44.31899" lon="3.76613">
        <ele>1265.54</ele>
        <time>2021-05-26T12:36:29Z</time>
      </trkpt>
      <trkpt lat="44.31904" lon="3.76582">
        <ele>1266.61</ele>
        <time>2021-05-26T12:36:31Z</time>
      </trkpt>
      <trkpt lat="44.31908" lon="3.76485">
        <ele>1271.27</ele>
        <time>2021-05-26T12:36:37Z</time>
      </trkpt>
      <trkpt lat="44.31915" lon="3.7645">
        <ele>1271.36</ele>
        <time>2021-05-26T12:36:40Z</time>
      </trkpt>
      <trkpt lat="44.31928" lon="3.76402">
        <ele>1272.22</ele>
        <time>2021-05-26T12:36:46Z</time>
      </trkpt>
      <trkpt lat="44.3195" lon="3.76317">
        <ele>1269.61</ele>
        <time>2021-05-26T12:37:06Z</time>
      </trkpt>
      <trkpt lat="44.32026" lon="3.76189">
        <ele>1263.36</ele>
        <time>2021-05-26T12:37:29Z</time>
      </trkpt>
      <trkpt lat="44.32085" lon="3.76143">
        <ele>1260.29</ele>
        <time>2021-05-26T12:37:36Z</time>
      </trkpt>
      <trkpt lat="44.32134" lon="3.76105">
        <ele>1256.89</ele>
        <time>2021-05-26T12:37:41Z</time>
      </trkpt>
      <trkpt lat="44.32185" lon="3.76054">
        <ele>1252.95</ele>
        <time>2021-05-26T12:37:49Z</time>
      </trkpt>
      <trkpt lat="44.32261" lon="3.75935">
        <ele>1246.98</ele>
        <time>2021-05-26T12:38:02Z</time>
      </trkpt>
      <trkpt lat="44.32269" lon="3.75925">
        <ele>1246.94</ele>
        <time>2021-05-26T12:38:03Z</time>
      </trkpt>
      <trkpt lat="44.32327" lon="3.75861">
        <ele>1243.43</ele>
        <time>2021-05-26T12:38:09Z</time>
      </trkpt>
      <trkpt lat="44.32347" lon="3.7584">
        <ele>1242.52</ele>
        <time>2021-05-26T12:38:11Z</time>
      </trkpt>
      <trkpt lat="44.32383" lon="3.75781">
        <ele>1238.85</ele>
        <time>2021-05-26T12:38:16Z</time>
      </trkpt>
      <trkpt lat="44.32389" lon="3.75768">
        <ele>1238.91</ele>
        <time>2021-05-26T12:38:17Z</time>
      </trkpt>
      <trkpt lat="44.3243" lon="3.75644">
        <ele>1233.48</ele>
        <time>2021-05-26T12:38:27Z</time>
      </trkpt>
      <trkpt lat="44.32442" lon="3.75597">
        <ele>1229.98</ele>
        <time>2021-05-26T12:38:31Z</time>
      </trkpt>
      <trkpt lat="44.32443" lon="3.75586">
        <ele>1229.9</ele>
        <time>2021-05-26T12:38:32Z</time>
      </trkpt>
      <trkpt lat="44.32432" lon="3.75514">
        <ele>1226.16</ele>
        <time>2021-05-26T12:38:38Z</time>
      </trkpt>
      <trkpt lat="44.32423" lon="3.75452">
        <ele>1223.67</ele>
        <time>2021-05-26T12:38:43Z</time>
      </trkpt>
      <trkpt lat="44.32403" lon="3.75389">
        <ele>1220.46</ele>
        <time>2021-05-26T12:38:49Z</time>
      </trkpt>
      <trkpt lat="44.32379" lon="3.7526">
        <ele>1213.5</ele>
        <time>2021-05-26T12:39:02Z</time>
      </trkpt>
      <trkpt lat="44.3238" lon="3.75249">
        <ele>1213.46</ele>
        <time>2021-05-26T12:39:03Z</time>
      </trkpt>
      <trkpt lat="44.32367" lon="3.75166">
        <ele>1210.57</ele>
        <time>2021-05-26T12:39:11Z</time>
      </trkpt>
      <trkpt lat="44.32357" lon="3.75091">
        <ele>1206.41</ele>
        <time>2021-05-26T12:39:18Z</time>
      </trkpt>
      <trkpt lat="44.32354" lon="3.75079">
        <ele>1206.41</ele>
        <time>2021-05-26T12:39:19Z</time>
      </trkpt>
      <trkpt lat="44.3235" lon="3.75038">
        <ele>1205.12</ele>
        <time>2021-05-26T12:39:22Z</time>
      </trkpt>
      <trkpt lat="44.3234" lon="3.74964">
        <ele>1202.13</ele>
        <time>2021-05-26T12:39:28Z</time>
      </trkpt>
      <trkpt lat="44.32323" lon="3.74911">
        <ele>1199.08</ele>
        <time>2021-05-26T12:39:33Z</time>
      </trkpt>
      <trkpt lat="44.32294" lon="3.74865">
        <ele>1195.32</ele>
        <time>2021-05-26T12:39:39Z</time>
      </trkpt>
      <trkpt lat="44.32229" lon="3.74841">
        <ele>1191.53</ele>
        <time>2021-05-26T12:39:47Z</time>
      </trkpt>
      <trkpt lat="44.3222" lon="3.7484">
        <ele>1191.55</ele>
        <time>2021-05-26T12:39:48Z</time>
      </trkpt>
      <trkpt lat="44.32167" lon="3.74851">
        <ele>1187.51</ele>
        <time>2021-05-26T12:39:56Z</time>
      </trkpt>
      <trkpt lat="44.32243" lon="3.74774">
        <ele>1183.94</ele>
        <time>2021-05-26T12:40:14Z</time>
      </trkpt>
      <trkpt lat="44.32312" lon="3.74784">
        <ele>1180.61</ele>
        <time>2021-05-26T12:40:22Z</time>
      </trkpt>
      <trkpt lat="44.32377" lon="3.74845">
        <ele>1176.85</ele>
        <time>2021-05-26T12:40:30Z</time>
      </trkpt>
      <trkpt lat="44.32386" lon="3.74857">
        <ele>1176.9</ele>
        <time>2021-05-26T12:40:31Z</time>
      </trkpt>
      <trkpt lat="44.32444" lon="3.74956">
        <ele>1172.18</ele>
        <time>2021-05-26T12:40:39Z</time>
      </trkpt>
      <trkpt lat="44.32489" lon="3.75039">
        <ele>1167.22</ele>
        <time>2021-05-26T12:40:47Z</time>
      </trkpt>
      <trkpt lat="44.32493" lon="3.75047">
        <ele>1167.18</ele>
        <time>2021-05-26T12:40:48Z</time>
      </trkpt>
      <trkpt lat="44.32544" lon="3.75158">
        <ele>1163.36</ele>
        <time>2021-05-26T12:40:58Z</time>
      </trkpt>
      <trkpt lat="44.32551" lon="3.75169">
        <ele>1163.41</ele>
        <time>2021-05-26T12:40:59Z</time>
      </trkpt>
      <trkpt lat="44.32566" lon="3.75191">
        <ele>1162.13</ele>
        <time>2021-05-26T12:41:01Z</time>
      </trkpt>
      <trkpt lat="44.32634" lon="3.75288">
        <ele>1157.34</ele>
        <time>2021-05-26T12:41:10Z</time>
      </trkpt>
      <trkpt lat="44.32766" lon="3.75427">
        <ele>1148.99</ele>
        <time>2021-05-26T12:41:25Z</time>
      </trkpt>
      <trkpt lat="44.32804" lon="3.75522">
        <ele>1145.26</ele>
        <time>2021-05-26T12:41:33Z</time>
      </trkpt>
      <trkpt lat="44.32806" lon="3.75536">
        <ele>1145.32</ele>
        <time>2021-05-26T12:41:34Z</time>
      </trkpt>
      <trkpt lat="44.32823" lon="3.75681">
        <ele>1140.52</ele>
        <time>2021-05-26T12:41:44Z</time>
      </trkpt>
      <trkpt lat="44.32771" lon="3.75844">
        <ele>1133.75</ele>
        <time>2021-05-26T12:41:57Z</time>
      </trkpt>
      <trkpt lat="44.32766" lon="3.75857">
        <ele>1133.7</ele>
        <time>2021-05-26T12:41:58Z</time>
      </trkpt>
      <trkpt lat="44.32775" lon="3.75992">
        <ele>1128.89</ele>
        <time>2021-05-26T12:42:08Z</time>
      </trkpt>
      <trkpt lat="44.3278" lon="3.76003">
        <ele>1127.47</ele>
        <time>2021-05-26T12:42:09Z</time>
      </trkpt>
      <trkpt lat="44.32786" lon="3.76013">
        <ele>1127.5</ele>
        <time>2021-05-26T12:42:10Z</time>
      </trkpt>
      <trkpt lat="44.32795" lon="3.76173">
        <ele>1122.48</ele>
        <time>2021-05-26T12:42:20Z</time>
      </trkpt>
      <trkpt lat="44.327" lon="3.76292">
        <ele>1114.81</ele>
        <time>2021-05-26T12:42:33Z</time>
      </trkpt>
      <trkpt lat="44.32692" lon="3.76299">
        <ele>1114.71</ele>
        <time>2021-05-26T12:42:34Z</time>
      </trkpt>
      <trkpt lat="44.32655" lon="3.76389">
        <ele>1110.5</ele>
        <time>2021-05-26T12:42:46Z</time>
      </trkpt>
      <trkpt lat="44.32727" lon="3.76432">
        <ele>1106</ele>
        <time>2021-05-26T12:42:55Z</time>
      </trkpt>
      <trkpt lat="44.32735" lon="3.76435">
        <ele>1105.94</ele>
        <time>2021-05-26T12:42:56Z</time>
      </trkpt>
      <trkpt lat="44.32744" lon="3.76438">
        <ele>1104.52</ele>
        <time>2021-05-26T12:42:57Z</time>
      </trkpt>
      <trkpt lat="44.32845" lon="3.76512">
        <ele>1098.71</ele>
        <time>2021-05-26T12:43:08Z</time>
      </trkpt>
      <trkpt lat="44.32855" lon="3.76521">
        <ele>1098.66</ele>
        <time>2021-05-26T12:43:09Z</time>
      </trkpt>
      <trkpt lat="44.32873" lon="3.76537">
        <ele>1097.3</ele>
        <time>2021-05-26T12:43:11Z</time>
      </trkpt>
      <trkpt lat="44.32952" lon="3.76638">
        <ele>1092.38</ele>
        <time>2021-05-26T12:43:21Z</time>
      </trkpt>
      <trkpt lat="44.32986" lon="3.76691">
        <ele>1089.68</ele>
        <time>2021-05-26T12:43:28Z</time>
      </trkpt>
    </trkseg>
  </trk>
</gpx>